<?xml version="1.0" encoding="UTF-8" standalone="no" ?>
<gpx xmlns="http://www.topografix.com/GPX/1/1" xmlns:xsi="http://www.w3.org/2001/XMLSchema-instance" xsi:schemaLocation="http://www.topografix.com/GPX/1/1 http://www.topografix.com/GPX/1/1/gpx.xsd" version="1.1" creator="VisuGPX - https://www.visugpx.com">
  <metadata>
    <name>Vacqueyras : Tauleigne - Gigondas - Pas de l'Aigle - Dentelles Sarrasines - La Pause - Les Plâtières - Chambilles</name>
  </metadata>
  <trk>
    <name><![CDATA[2020-10-25 11:42:17 nettoyé]]></name>
    <extensions>
      <line xmlns="http://www.topografix.com/GPX/gpx_style/0/2">
        <color>0000FF</color>
        <width>4</width>
      </line>
    </extensions>
    <trkseg>
      <trkpt lat="44.13833" lon="4.98703">
        <ele>123</ele>
        <time>2020-10-25T07:38:48Z</time>
      </trkpt>
      <trkpt lat="44.13834" lon="4.98722">
        <ele>123</ele>
        <time>2020-10-25T07:39:29Z</time>
      </trkpt>
      <trkpt lat="44.13836" lon="4.98748">
        <ele>124</ele>
        <time>2020-10-25T07:39:38Z</time>
      </trkpt>
      <trkpt lat="44.13841" lon="4.98774">
        <ele>124</ele>
        <time>2020-10-25T07:39:47Z</time>
      </trkpt>
      <trkpt lat="44.13852" lon="4.98798">
        <ele>124</ele>
        <time>2020-10-25T07:39:56Z</time>
      </trkpt>
      <trkpt lat="44.13862" lon="4.98815">
        <ele>124</ele>
        <time>2020-10-25T07:40:03Z</time>
      </trkpt>
      <trkpt lat="44.13874" lon="4.98839">
        <ele>124</ele>
        <time>2020-10-25T07:40:11Z</time>
      </trkpt>
      <trkpt lat="44.13891" lon="4.98867">
        <ele>125</ele>
        <time>2020-10-25T07:40:21Z</time>
      </trkpt>
      <trkpt lat="44.13904" lon="4.98885">
        <ele>125</ele>
        <time>2020-10-25T07:40:28Z</time>
      </trkpt>
      <trkpt lat="44.13916" lon="4.98905">
        <ele>126</ele>
        <time>2020-10-25T07:40:36Z</time>
      </trkpt>
      <trkpt lat="44.13934" lon="4.98931">
        <ele>128</ele>
        <time>2020-10-25T07:40:47Z</time>
      </trkpt>
      <trkpt lat="44.13953" lon="4.98947">
        <ele>129</ele>
        <time>2020-10-25T07:40:56Z</time>
      </trkpt>
      <trkpt lat="44.13974" lon="4.98959">
        <ele>129</ele>
        <time>2020-10-25T07:41:05Z</time>
      </trkpt>
      <trkpt lat="44.1399" lon="4.98967">
        <ele>129</ele>
        <time>2020-10-25T07:41:12Z</time>
      </trkpt>
      <trkpt lat="44.14006" lon="4.98975">
        <ele>129</ele>
        <time>2020-10-25T07:41:19Z</time>
      </trkpt>
      <trkpt lat="44.14023" lon="4.98988">
        <ele>130</ele>
        <time>2020-10-25T07:41:28Z</time>
      </trkpt>
      <trkpt lat="44.14036" lon="4.99">
        <ele>130</ele>
        <time>2020-10-25T07:41:35Z</time>
      </trkpt>
      <trkpt lat="44.14055" lon="4.99012">
        <ele>132</ele>
        <time>2020-10-25T07:41:44Z</time>
      </trkpt>
      <trkpt lat="44.14074" lon="4.99017">
        <ele>134</ele>
        <time>2020-10-25T07:41:53Z</time>
      </trkpt>
      <trkpt lat="44.14095" lon="4.9902">
        <ele>135</ele>
        <time>2020-10-25T07:42:03Z</time>
      </trkpt>
      <trkpt lat="44.14112" lon="4.9902">
        <ele>137</ele>
        <time>2020-10-25T07:42:11Z</time>
      </trkpt>
      <trkpt lat="44.14136" lon="4.99024">
        <ele>139</ele>
        <time>2020-10-25T07:42:22Z</time>
      </trkpt>
      <trkpt lat="44.1416" lon="4.99035">
        <ele>141</ele>
        <time>2020-10-25T07:42:33Z</time>
      </trkpt>
      <trkpt lat="44.14181" lon="4.99049">
        <ele>142</ele>
        <time>2020-10-25T07:42:43Z</time>
      </trkpt>
      <trkpt lat="44.142" lon="4.99066">
        <ele>143</ele>
        <time>2020-10-25T07:42:53Z</time>
      </trkpt>
      <trkpt lat="44.14217" lon="4.99076">
        <ele>145</ele>
        <time>2020-10-25T07:43:01Z</time>
      </trkpt>
      <trkpt lat="44.14227" lon="4.99082">
        <ele>146</ele>
        <time>2020-10-25T07:43:07Z</time>
      </trkpt>
      <trkpt lat="44.14235" lon="4.99087">
        <ele>146</ele>
        <time>2020-10-25T07:43:12Z</time>
      </trkpt>
      <trkpt lat="44.14248" lon="4.99088">
        <ele>147</ele>
        <time>2020-10-25T07:43:18Z</time>
      </trkpt>
      <trkpt lat="44.1425" lon="4.99087">
        <ele>148</ele>
        <time>2020-10-25T07:43:19Z</time>
      </trkpt>
      <trkpt lat="44.14267" lon="4.9909">
        <ele>149</ele>
        <time>2020-10-25T07:43:27Z</time>
      </trkpt>
      <trkpt lat="44.14282" lon="4.99091">
        <ele>150</ele>
        <time>2020-10-25T07:43:34Z</time>
      </trkpt>
      <trkpt lat="44.14285" lon="4.99091">
        <ele>150</ele>
        <time>2020-10-25T07:43:36Z</time>
      </trkpt>
      <trkpt lat="44.14287" lon="4.99091">
        <ele>150</ele>
        <time>2020-10-25T07:43:37Z</time>
      </trkpt>
      <trkpt lat="44.14289" lon="4.99091">
        <ele>150</ele>
        <time>2020-10-25T07:43:38Z</time>
      </trkpt>
      <trkpt lat="44.14309" lon="4.99089">
        <ele>152</ele>
        <time>2020-10-25T07:43:49Z</time>
      </trkpt>
      <trkpt lat="44.14325" lon="4.99088">
        <ele>153</ele>
        <time>2020-10-25T07:43:58Z</time>
      </trkpt>
      <trkpt lat="44.14345" lon="4.99089">
        <ele>155</ele>
        <time>2020-10-25T07:44:08Z</time>
      </trkpt>
      <trkpt lat="44.14361" lon="4.99088">
        <ele>157</ele>
        <time>2020-10-25T07:44:17Z</time>
      </trkpt>
      <trkpt lat="44.14385" lon="4.99086">
        <ele>159</ele>
        <time>2020-10-25T07:44:29Z</time>
      </trkpt>
      <trkpt lat="44.144" lon="4.99087">
        <ele>161</ele>
        <time>2020-10-25T07:44:36Z</time>
      </trkpt>
      <trkpt lat="44.14419" lon="4.99086">
        <ele>163</ele>
        <time>2020-10-25T07:44:46Z</time>
      </trkpt>
      <trkpt lat="44.14421" lon="4.99086">
        <ele>163</ele>
        <time>2020-10-25T07:44:47Z</time>
      </trkpt>
      <trkpt lat="44.14424" lon="4.99085">
        <ele>164</ele>
        <time>2020-10-25T07:44:48Z</time>
      </trkpt>
      <trkpt lat="44.14425" lon="4.99085">
        <ele>164</ele>
        <time>2020-10-25T07:44:49Z</time>
      </trkpt>
      <trkpt lat="44.14427" lon="4.99085">
        <ele>164</ele>
        <time>2020-10-25T07:44:50Z</time>
      </trkpt>
      <trkpt lat="44.14429" lon="4.99085">
        <ele>164</ele>
        <time>2020-10-25T07:44:51Z</time>
      </trkpt>
      <trkpt lat="44.14431" lon="4.99085">
        <ele>164</ele>
        <time>2020-10-25T07:44:52Z</time>
      </trkpt>
      <trkpt lat="44.14432" lon="4.99085">
        <ele>165</ele>
        <time>2020-10-25T07:44:53Z</time>
      </trkpt>
      <trkpt lat="44.14434" lon="4.99085">
        <ele>165</ele>
        <time>2020-10-25T07:44:54Z</time>
      </trkpt>
      <trkpt lat="44.14435" lon="4.99085">
        <ele>165</ele>
        <time>2020-10-25T07:44:55Z</time>
      </trkpt>
      <trkpt lat="44.14437" lon="4.99085">
        <ele>165</ele>
        <time>2020-10-25T07:44:56Z</time>
      </trkpt>
      <trkpt lat="44.14452" lon="4.99084">
        <ele>167</ele>
        <time>2020-10-25T07:45:04Z</time>
      </trkpt>
      <trkpt lat="44.14473" lon="4.99083">
        <ele>170</ele>
        <time>2020-10-25T07:45:14Z</time>
      </trkpt>
      <trkpt lat="44.14494" lon="4.99082">
        <ele>172</ele>
        <time>2020-10-25T07:45:25Z</time>
      </trkpt>
      <trkpt lat="44.14512" lon="4.99082">
        <ele>174</ele>
        <time>2020-10-25T07:45:33Z</time>
      </trkpt>
      <trkpt lat="44.14536" lon="4.99081">
        <ele>176</ele>
        <time>2020-10-25T07:45:44Z</time>
      </trkpt>
      <trkpt lat="44.14556" lon="4.9908">
        <ele>178</ele>
        <time>2020-10-25T07:45:54Z</time>
      </trkpt>
      <trkpt lat="44.14575" lon="4.99079">
        <ele>180</ele>
        <time>2020-10-25T07:46:03Z</time>
      </trkpt>
      <trkpt lat="44.14593" lon="4.99081">
        <ele>182</ele>
        <time>2020-10-25T07:46:12Z</time>
      </trkpt>
      <trkpt lat="44.14608" lon="4.9908">
        <ele>184</ele>
        <time>2020-10-25T07:46:19Z</time>
      </trkpt>
      <trkpt lat="44.1461" lon="4.99079">
        <ele>184</ele>
        <time>2020-10-25T07:46:20Z</time>
      </trkpt>
      <trkpt lat="44.14611" lon="4.99076">
        <ele>184</ele>
        <time>2020-10-25T07:46:21Z</time>
      </trkpt>
      <trkpt lat="44.14612" lon="4.99072">
        <ele>184</ele>
        <time>2020-10-25T07:46:22Z</time>
      </trkpt>
      <trkpt lat="44.14612" lon="4.99069">
        <ele>184</ele>
        <time>2020-10-25T07:46:24Z</time>
      </trkpt>
      <trkpt lat="44.14613" lon="4.99065">
        <ele>184</ele>
        <time>2020-10-25T07:46:25Z</time>
      </trkpt>
      <trkpt lat="44.14612" lon="4.99063">
        <ele>184</ele>
        <time>2020-10-25T07:46:26Z</time>
      </trkpt>
      <trkpt lat="44.14613" lon="4.99059">
        <ele>184</ele>
        <time>2020-10-25T07:46:28Z</time>
      </trkpt>
      <trkpt lat="44.14612" lon="4.99054">
        <ele>184</ele>
        <time>2020-10-25T07:46:31Z</time>
      </trkpt>
      <trkpt lat="44.14612" lon="4.99052">
        <ele>184</ele>
        <time>2020-10-25T07:46:40Z</time>
      </trkpt>
      <trkpt lat="44.14613" lon="4.99047">
        <ele>184</ele>
        <time>2020-10-25T07:46:59Z</time>
      </trkpt>
      <trkpt lat="44.14614" lon="4.99042">
        <ele>184</ele>
        <time>2020-10-25T07:47:01Z</time>
      </trkpt>
      <trkpt lat="44.14613" lon="4.99028">
        <ele>184</ele>
        <time>2020-10-25T07:47:07Z</time>
      </trkpt>
      <trkpt lat="44.14613" lon="4.99023">
        <ele>184</ele>
        <time>2020-10-25T07:47:10Z</time>
      </trkpt>
      <trkpt lat="44.14626" lon="4.99014">
        <ele>186</ele>
        <time>2020-10-25T07:47:18Z</time>
      </trkpt>
      <trkpt lat="44.14642" lon="4.99014">
        <ele>187</ele>
        <time>2020-10-25T07:47:27Z</time>
      </trkpt>
      <trkpt lat="44.14657" lon="4.99016">
        <ele>189</ele>
        <time>2020-10-25T07:47:36Z</time>
      </trkpt>
      <trkpt lat="44.14675" lon="4.99018">
        <ele>191</ele>
        <time>2020-10-25T07:47:46Z</time>
      </trkpt>
      <trkpt lat="44.14696" lon="4.9902">
        <ele>194</ele>
        <time>2020-10-25T07:47:55Z</time>
      </trkpt>
      <trkpt lat="44.14715" lon="4.99022">
        <ele>196</ele>
        <time>2020-10-25T07:48:05Z</time>
      </trkpt>
      <trkpt lat="44.14747" lon="4.99024">
        <ele>200</ele>
        <time>2020-10-25T07:48:18Z</time>
      </trkpt>
      <trkpt lat="44.14767" lon="4.99024">
        <ele>202</ele>
        <time>2020-10-25T07:48:27Z</time>
      </trkpt>
      <trkpt lat="44.14782" lon="4.99029">
        <ele>203</ele>
        <time>2020-10-25T07:48:36Z</time>
      </trkpt>
      <trkpt lat="44.14805" lon="4.99034">
        <ele>205</ele>
        <time>2020-10-25T07:48:48Z</time>
      </trkpt>
      <trkpt lat="44.14817" lon="4.99032">
        <ele>207</ele>
        <time>2020-10-25T07:49:09Z</time>
      </trkpt>
      <trkpt lat="44.14823" lon="4.99034">
        <ele>207</ele>
        <time>2020-10-25T07:49:12Z</time>
      </trkpt>
      <trkpt lat="44.14826" lon="4.99034">
        <ele>208</ele>
        <time>2020-10-25T07:49:13Z</time>
      </trkpt>
      <trkpt lat="44.14828" lon="4.99034">
        <ele>208</ele>
        <time>2020-10-25T07:49:14Z</time>
      </trkpt>
      <trkpt lat="44.1483" lon="4.99033">
        <ele>208</ele>
        <time>2020-10-25T07:49:15Z</time>
      </trkpt>
      <trkpt lat="44.14833" lon="4.99032">
        <ele>208</ele>
        <time>2020-10-25T07:49:17Z</time>
      </trkpt>
      <trkpt lat="44.14835" lon="4.99032">
        <ele>209</ele>
        <time>2020-10-25T07:49:18Z</time>
      </trkpt>
      <trkpt lat="44.14839" lon="4.99032">
        <ele>209</ele>
        <time>2020-10-25T07:49:20Z</time>
      </trkpt>
      <trkpt lat="44.14843" lon="4.99031">
        <ele>209</ele>
        <time>2020-10-25T07:49:22Z</time>
      </trkpt>
      <trkpt lat="44.14861" lon="4.99033">
        <ele>211</ele>
        <time>2020-10-25T07:49:34Z</time>
      </trkpt>
      <trkpt lat="44.14863" lon="4.99033">
        <ele>211</ele>
        <time>2020-10-25T07:49:35Z</time>
      </trkpt>
      <trkpt lat="44.14883" lon="4.99035">
        <ele>213</ele>
        <time>2020-10-25T07:49:44Z</time>
      </trkpt>
      <trkpt lat="44.14885" lon="4.99037">
        <ele>213</ele>
        <time>2020-10-25T07:49:45Z</time>
      </trkpt>
      <trkpt lat="44.14887" lon="4.99038">
        <ele>213</ele>
        <time>2020-10-25T07:49:46Z</time>
      </trkpt>
      <trkpt lat="44.14888" lon="4.99039">
        <ele>213</ele>
        <time>2020-10-25T07:49:47Z</time>
      </trkpt>
      <trkpt lat="44.1489" lon="4.9904">
        <ele>214</ele>
        <time>2020-10-25T07:49:48Z</time>
      </trkpt>
      <trkpt lat="44.14892" lon="4.9904">
        <ele>214</ele>
        <time>2020-10-25T07:49:49Z</time>
      </trkpt>
      <trkpt lat="44.14893" lon="4.9904">
        <ele>214</ele>
        <time>2020-10-25T07:49:50Z</time>
      </trkpt>
      <trkpt lat="44.14896" lon="4.9904">
        <ele>214</ele>
        <time>2020-10-25T07:49:51Z</time>
      </trkpt>
      <trkpt lat="44.14918" lon="4.99039">
        <ele>216</ele>
        <time>2020-10-25T07:50:02Z</time>
      </trkpt>
      <trkpt lat="44.14921" lon="4.9904">
        <ele>217</ele>
        <time>2020-10-25T07:50:04Z</time>
      </trkpt>
      <trkpt lat="44.14923" lon="4.99041">
        <ele>217</ele>
        <time>2020-10-25T07:50:05Z</time>
      </trkpt>
      <trkpt lat="44.14926" lon="4.99042">
        <ele>217</ele>
        <time>2020-10-25T07:50:07Z</time>
      </trkpt>
      <trkpt lat="44.14932" lon="4.99045">
        <ele>218</ele>
        <time>2020-10-25T07:50:11Z</time>
      </trkpt>
      <trkpt lat="44.14934" lon="4.99045">
        <ele>218</ele>
        <time>2020-10-25T07:50:12Z</time>
      </trkpt>
      <trkpt lat="44.14939" lon="4.99043">
        <ele>219</ele>
        <time>2020-10-25T07:50:15Z</time>
      </trkpt>
      <trkpt lat="44.14941" lon="4.99043">
        <ele>219</ele>
        <time>2020-10-25T07:50:16Z</time>
      </trkpt>
      <trkpt lat="44.14959" lon="4.99045">
        <ele>221</ele>
        <time>2020-10-25T07:50:25Z</time>
      </trkpt>
      <trkpt lat="44.14971" lon="4.9904">
        <ele>223</ele>
        <time>2020-10-25T07:50:31Z</time>
      </trkpt>
      <trkpt lat="44.14979" lon="4.99038">
        <ele>224</ele>
        <time>2020-10-25T07:50:37Z</time>
      </trkpt>
      <trkpt lat="44.14999" lon="4.99033">
        <ele>226</ele>
        <time>2020-10-25T07:50:48Z</time>
      </trkpt>
      <trkpt lat="44.15016" lon="4.99035">
        <ele>228</ele>
        <time>2020-10-25T07:50:58Z</time>
      </trkpt>
      <trkpt lat="44.15018" lon="4.99035">
        <ele>228</ele>
        <time>2020-10-25T07:50:59Z</time>
      </trkpt>
      <trkpt lat="44.15029" lon="4.99036">
        <ele>229</ele>
        <time>2020-10-25T07:51:05Z</time>
      </trkpt>
      <trkpt lat="44.15035" lon="4.99039">
        <ele>230</ele>
        <time>2020-10-25T07:51:09Z</time>
      </trkpt>
      <trkpt lat="44.15052" lon="4.99043">
        <ele>231</ele>
        <time>2020-10-25T07:51:19Z</time>
      </trkpt>
      <trkpt lat="44.15071" lon="4.99043">
        <ele>233</ele>
        <time>2020-10-25T07:51:28Z</time>
      </trkpt>
      <trkpt lat="44.15076" lon="4.99041">
        <ele>234</ele>
        <time>2020-10-25T07:51:31Z</time>
      </trkpt>
      <trkpt lat="44.15078" lon="4.99042">
        <ele>234</ele>
        <time>2020-10-25T07:51:32Z</time>
      </trkpt>
      <trkpt lat="44.15079" lon="4.99043">
        <ele>234</ele>
        <time>2020-10-25T07:51:33Z</time>
      </trkpt>
      <trkpt lat="44.15084" lon="4.99045">
        <ele>234</ele>
        <time>2020-10-25T07:51:36Z</time>
      </trkpt>
      <trkpt lat="44.15101" lon="4.99048">
        <ele>236</ele>
        <time>2020-10-25T07:51:44Z</time>
      </trkpt>
      <trkpt lat="44.15103" lon="4.99047">
        <ele>236</ele>
        <time>2020-10-25T07:51:45Z</time>
      </trkpt>
      <trkpt lat="44.15109" lon="4.99044">
        <ele>236</ele>
        <time>2020-10-25T07:51:47Z</time>
      </trkpt>
      <trkpt lat="44.15111" lon="4.99043">
        <ele>236</ele>
        <time>2020-10-25T07:51:48Z</time>
      </trkpt>
      <trkpt lat="44.15114" lon="4.99043">
        <ele>236</ele>
        <time>2020-10-25T07:51:49Z</time>
      </trkpt>
      <trkpt lat="44.15116" lon="4.99043">
        <ele>236</ele>
        <time>2020-10-25T07:51:50Z</time>
      </trkpt>
      <trkpt lat="44.15118" lon="4.99044">
        <ele>236</ele>
        <time>2020-10-25T07:51:51Z</time>
      </trkpt>
      <trkpt lat="44.15119" lon="4.99045">
        <ele>237</ele>
        <time>2020-10-25T07:51:52Z</time>
      </trkpt>
      <trkpt lat="44.1512" lon="4.99047">
        <ele>237</ele>
        <time>2020-10-25T07:51:53Z</time>
      </trkpt>
      <trkpt lat="44.15122" lon="4.99047">
        <ele>237</ele>
        <time>2020-10-25T07:51:54Z</time>
      </trkpt>
      <trkpt lat="44.15125" lon="4.99049">
        <ele>237</ele>
        <time>2020-10-25T07:51:56Z</time>
      </trkpt>
      <trkpt lat="44.15127" lon="4.99049">
        <ele>237</ele>
        <time>2020-10-25T07:51:57Z</time>
      </trkpt>
      <trkpt lat="44.15129" lon="4.99048">
        <ele>237</ele>
        <time>2020-10-25T07:51:58Z</time>
      </trkpt>
      <trkpt lat="44.15131" lon="4.99047">
        <ele>237</ele>
        <time>2020-10-25T07:51:59Z</time>
      </trkpt>
      <trkpt lat="44.15133" lon="4.99047">
        <ele>238</ele>
        <time>2020-10-25T07:52:00Z</time>
      </trkpt>
      <trkpt lat="44.15135" lon="4.99048">
        <ele>238</ele>
        <time>2020-10-25T07:52:01Z</time>
      </trkpt>
      <trkpt lat="44.15136" lon="4.99049">
        <ele>238</ele>
        <time>2020-10-25T07:52:02Z</time>
      </trkpt>
      <trkpt lat="44.15138" lon="4.9905">
        <ele>238</ele>
        <time>2020-10-25T07:52:03Z</time>
      </trkpt>
      <trkpt lat="44.1514" lon="4.99051">
        <ele>238</ele>
        <time>2020-10-25T07:52:04Z</time>
      </trkpt>
      <trkpt lat="44.15142" lon="4.99052">
        <ele>238</ele>
        <time>2020-10-25T07:52:05Z</time>
      </trkpt>
      <trkpt lat="44.15144" lon="4.99052">
        <ele>239</ele>
        <time>2020-10-25T07:52:06Z</time>
      </trkpt>
      <trkpt lat="44.15146" lon="4.99051">
        <ele>239</ele>
        <time>2020-10-25T07:52:07Z</time>
      </trkpt>
      <trkpt lat="44.15148" lon="4.99051">
        <ele>239</ele>
        <time>2020-10-25T07:52:08Z</time>
      </trkpt>
      <trkpt lat="44.15149" lon="4.99052">
        <ele>239</ele>
        <time>2020-10-25T07:52:09Z</time>
      </trkpt>
      <trkpt lat="44.15151" lon="4.99053">
        <ele>239</ele>
        <time>2020-10-25T07:52:10Z</time>
      </trkpt>
      <trkpt lat="44.15152" lon="4.99054">
        <ele>239</ele>
        <time>2020-10-25T07:52:11Z</time>
      </trkpt>
      <trkpt lat="44.15154" lon="4.99055">
        <ele>240</ele>
        <time>2020-10-25T07:52:12Z</time>
      </trkpt>
      <trkpt lat="44.15155" lon="4.99056">
        <ele>240</ele>
        <time>2020-10-25T07:52:13Z</time>
      </trkpt>
      <trkpt lat="44.15157" lon="4.99057">
        <ele>240</ele>
        <time>2020-10-25T07:52:14Z</time>
      </trkpt>
      <trkpt lat="44.15178" lon="4.99063">
        <ele>242</ele>
        <time>2020-10-25T07:52:24Z</time>
      </trkpt>
      <trkpt lat="44.15184" lon="4.99064">
        <ele>242</ele>
        <time>2020-10-25T07:52:27Z</time>
      </trkpt>
      <trkpt lat="44.15187" lon="4.99065">
        <ele>242</ele>
        <time>2020-10-25T07:52:28Z</time>
      </trkpt>
      <trkpt lat="44.15189" lon="4.99066">
        <ele>242</ele>
        <time>2020-10-25T07:52:29Z</time>
      </trkpt>
      <trkpt lat="44.15192" lon="4.99067">
        <ele>242</ele>
        <time>2020-10-25T07:52:30Z</time>
      </trkpt>
      <trkpt lat="44.15194" lon="4.99067">
        <ele>243</ele>
        <time>2020-10-25T07:52:31Z</time>
      </trkpt>
      <trkpt lat="44.15196" lon="4.99068">
        <ele>243</ele>
        <time>2020-10-25T07:52:32Z</time>
      </trkpt>
      <trkpt lat="44.15199" lon="4.99068">
        <ele>243</ele>
        <time>2020-10-25T07:52:33Z</time>
      </trkpt>
      <trkpt lat="44.15203" lon="4.99068">
        <ele>243</ele>
        <time>2020-10-25T07:52:35Z</time>
      </trkpt>
      <trkpt lat="44.15205" lon="4.99067">
        <ele>243</ele>
        <time>2020-10-25T07:52:36Z</time>
      </trkpt>
      <trkpt lat="44.15207" lon="4.99067">
        <ele>243</ele>
        <time>2020-10-25T07:52:37Z</time>
      </trkpt>
      <trkpt lat="44.15209" lon="4.99066">
        <ele>243</ele>
        <time>2020-10-25T07:52:38Z</time>
      </trkpt>
      <trkpt lat="44.15212" lon="4.99066">
        <ele>243</ele>
        <time>2020-10-25T07:52:39Z</time>
      </trkpt>
      <trkpt lat="44.15217" lon="4.99067">
        <ele>243</ele>
        <time>2020-10-25T07:52:41Z</time>
      </trkpt>
      <trkpt lat="44.15231" lon="4.99078">
        <ele>245</ele>
        <time>2020-10-25T07:52:48Z</time>
      </trkpt>
      <trkpt lat="44.15249" lon="4.99083">
        <ele>247</ele>
        <time>2020-10-25T07:52:56Z</time>
      </trkpt>
      <trkpt lat="44.15251" lon="4.99084">
        <ele>247</ele>
        <time>2020-10-25T07:52:57Z</time>
      </trkpt>
      <trkpt lat="44.15253" lon="4.99087">
        <ele>246</ele>
        <time>2020-10-25T07:52:58Z</time>
      </trkpt>
      <trkpt lat="44.15254" lon="4.99088">
        <ele>246</ele>
        <time>2020-10-25T07:52:59Z</time>
      </trkpt>
      <trkpt lat="44.15256" lon="4.9909">
        <ele>246</ele>
        <time>2020-10-25T07:53:00Z</time>
      </trkpt>
      <trkpt lat="44.15258" lon="4.9909">
        <ele>246</ele>
        <time>2020-10-25T07:53:01Z</time>
      </trkpt>
      <trkpt lat="44.1526" lon="4.99089">
        <ele>246</ele>
        <time>2020-10-25T07:53:02Z</time>
      </trkpt>
      <trkpt lat="44.15262" lon="4.99089">
        <ele>246</ele>
        <time>2020-10-25T07:53:03Z</time>
      </trkpt>
      <trkpt lat="44.15264" lon="4.9909">
        <ele>245</ele>
        <time>2020-10-25T07:53:04Z</time>
      </trkpt>
      <trkpt lat="44.15266" lon="4.9909">
        <ele>245</ele>
        <time>2020-10-25T07:53:05Z</time>
      </trkpt>
      <trkpt lat="44.15268" lon="4.99091">
        <ele>245</ele>
        <time>2020-10-25T07:53:06Z</time>
      </trkpt>
      <trkpt lat="44.1527" lon="4.99092">
        <ele>245</ele>
        <time>2020-10-25T07:53:07Z</time>
      </trkpt>
      <trkpt lat="44.15281" lon="4.99093">
        <ele>245</ele>
        <time>2020-10-25T07:53:12Z</time>
      </trkpt>
      <trkpt lat="44.15282" lon="4.99094">
        <ele>244</ele>
        <time>2020-10-25T07:53:13Z</time>
      </trkpt>
      <trkpt lat="44.15284" lon="4.99095">
        <ele>244</ele>
        <time>2020-10-25T07:53:14Z</time>
      </trkpt>
      <trkpt lat="44.15286" lon="4.99095">
        <ele>244</ele>
        <time>2020-10-25T07:53:15Z</time>
      </trkpt>
      <trkpt lat="44.15288" lon="4.99094">
        <ele>244</ele>
        <time>2020-10-25T07:53:16Z</time>
      </trkpt>
      <trkpt lat="44.15289" lon="4.99095">
        <ele>244</ele>
        <time>2020-10-25T07:53:17Z</time>
      </trkpt>
      <trkpt lat="44.15291" lon="4.99095">
        <ele>244</ele>
        <time>2020-10-25T07:53:18Z</time>
      </trkpt>
      <trkpt lat="44.15293" lon="4.99096">
        <ele>244</ele>
        <time>2020-10-25T07:53:19Z</time>
      </trkpt>
      <trkpt lat="44.15295" lon="4.99096">
        <ele>244</ele>
        <time>2020-10-25T07:53:20Z</time>
      </trkpt>
      <trkpt lat="44.15297" lon="4.99097">
        <ele>244</ele>
        <time>2020-10-25T07:53:21Z</time>
      </trkpt>
      <trkpt lat="44.15299" lon="4.99098">
        <ele>244</ele>
        <time>2020-10-25T07:53:22Z</time>
      </trkpt>
      <trkpt lat="44.15313" lon="4.99103">
        <ele>243</ele>
        <time>2020-10-25T07:53:28Z</time>
      </trkpt>
      <trkpt lat="44.15319" lon="4.99105">
        <ele>243</ele>
        <time>2020-10-25T07:53:30Z</time>
      </trkpt>
      <trkpt lat="44.1534" lon="4.99112">
        <ele>243</ele>
        <time>2020-10-25T07:53:38Z</time>
      </trkpt>
      <trkpt lat="44.15348" lon="4.99117">
        <ele>243</ele>
        <time>2020-10-25T07:53:42Z</time>
      </trkpt>
      <trkpt lat="44.15366" lon="4.99121">
        <ele>242</ele>
        <time>2020-10-25T07:53:50Z</time>
      </trkpt>
      <trkpt lat="44.15379" lon="4.99122">
        <ele>242</ele>
        <time>2020-10-25T07:53:55Z</time>
      </trkpt>
      <trkpt lat="44.15381" lon="4.99124">
        <ele>242</ele>
        <time>2020-10-25T07:53:56Z</time>
      </trkpt>
      <trkpt lat="44.15382" lon="4.99125">
        <ele>242</ele>
        <time>2020-10-25T07:53:57Z</time>
      </trkpt>
      <trkpt lat="44.15383" lon="4.99128">
        <ele>243</ele>
        <time>2020-10-25T07:53:58Z</time>
      </trkpt>
      <trkpt lat="44.15385" lon="4.99129">
        <ele>243</ele>
        <time>2020-10-25T07:53:59Z</time>
      </trkpt>
      <trkpt lat="44.15386" lon="4.9913">
        <ele>243</ele>
        <time>2020-10-25T07:54:00Z</time>
      </trkpt>
      <trkpt lat="44.15388" lon="4.99131">
        <ele>243</ele>
        <time>2020-10-25T07:54:01Z</time>
      </trkpt>
      <trkpt lat="44.15391" lon="4.99132">
        <ele>243</ele>
        <time>2020-10-25T07:54:02Z</time>
      </trkpt>
      <trkpt lat="44.15393" lon="4.99133">
        <ele>243</ele>
        <time>2020-10-25T07:54:03Z</time>
      </trkpt>
      <trkpt lat="44.15395" lon="4.99135">
        <ele>243</ele>
        <time>2020-10-25T07:54:04Z</time>
      </trkpt>
      <trkpt lat="44.15398" lon="4.99136">
        <ele>243</ele>
        <time>2020-10-25T07:54:05Z</time>
      </trkpt>
      <trkpt lat="44.154" lon="4.99137">
        <ele>244</ele>
        <time>2020-10-25T07:54:06Z</time>
      </trkpt>
      <trkpt lat="44.15403" lon="4.99138">
        <ele>244</ele>
        <time>2020-10-25T07:54:07Z</time>
      </trkpt>
      <trkpt lat="44.15425" lon="4.99151">
        <ele>245</ele>
        <time>2020-10-25T07:54:15Z</time>
      </trkpt>
      <trkpt lat="44.15434" lon="4.99158">
        <ele>246</ele>
        <time>2020-10-25T07:54:19Z</time>
      </trkpt>
      <trkpt lat="44.15436" lon="4.99159">
        <ele>246</ele>
        <time>2020-10-25T07:54:20Z</time>
      </trkpt>
      <trkpt lat="44.15438" lon="4.99159">
        <ele>246</ele>
        <time>2020-10-25T07:54:21Z</time>
      </trkpt>
      <trkpt lat="44.1544" lon="4.99161">
        <ele>246</ele>
        <time>2020-10-25T07:54:22Z</time>
      </trkpt>
      <trkpt lat="44.15441" lon="4.99163">
        <ele>246</ele>
        <time>2020-10-25T07:54:23Z</time>
      </trkpt>
      <trkpt lat="44.15443" lon="4.99165">
        <ele>246</ele>
        <time>2020-10-25T07:54:24Z</time>
      </trkpt>
      <trkpt lat="44.15445" lon="4.99166">
        <ele>246</ele>
        <time>2020-10-25T07:54:25Z</time>
      </trkpt>
      <trkpt lat="44.15447" lon="4.99166">
        <ele>246</ele>
        <time>2020-10-25T07:54:26Z</time>
      </trkpt>
      <trkpt lat="44.15449" lon="4.99168">
        <ele>246</ele>
        <time>2020-10-25T07:54:27Z</time>
      </trkpt>
      <trkpt lat="44.15451" lon="4.9917">
        <ele>246</ele>
        <time>2020-10-25T07:54:28Z</time>
      </trkpt>
      <trkpt lat="44.15453" lon="4.99172">
        <ele>246</ele>
        <time>2020-10-25T07:54:29Z</time>
      </trkpt>
      <trkpt lat="44.15455" lon="4.99173">
        <ele>245</ele>
        <time>2020-10-25T07:54:30Z</time>
      </trkpt>
      <trkpt lat="44.15456" lon="4.99176">
        <ele>245</ele>
        <time>2020-10-25T07:54:31Z</time>
      </trkpt>
      <trkpt lat="44.15458" lon="4.9918">
        <ele>245</ele>
        <time>2020-10-25T07:54:33Z</time>
      </trkpt>
      <trkpt lat="44.15461" lon="4.99181">
        <ele>244</ele>
        <time>2020-10-25T07:54:34Z</time>
      </trkpt>
      <trkpt lat="44.15464" lon="4.99182">
        <ele>244</ele>
        <time>2020-10-25T07:54:35Z</time>
      </trkpt>
      <trkpt lat="44.1547" lon="4.99182">
        <ele>244</ele>
        <time>2020-10-25T07:54:37Z</time>
      </trkpt>
      <trkpt lat="44.15486" lon="4.99192">
        <ele>243</ele>
        <time>2020-10-25T07:54:44Z</time>
      </trkpt>
      <trkpt lat="44.15505" lon="4.99203">
        <ele>243</ele>
        <time>2020-10-25T07:54:52Z</time>
      </trkpt>
      <trkpt lat="44.15522" lon="4.9922">
        <ele>242</ele>
        <time>2020-10-25T07:55:00Z</time>
      </trkpt>
      <trkpt lat="44.15546" lon="4.99238">
        <ele>242</ele>
        <time>2020-10-25T07:55:10Z</time>
      </trkpt>
      <trkpt lat="44.15566" lon="4.99253">
        <ele>242</ele>
        <time>2020-10-25T07:55:18Z</time>
      </trkpt>
      <trkpt lat="44.15578" lon="4.99266">
        <ele>240</ele>
        <time>2020-10-25T07:55:25Z</time>
      </trkpt>
      <trkpt lat="44.15582" lon="4.99271">
        <ele>239</ele>
        <time>2020-10-25T07:55:27Z</time>
      </trkpt>
      <trkpt lat="44.15588" lon="4.99276">
        <ele>237</ele>
        <time>2020-10-25T07:55:30Z</time>
      </trkpt>
      <trkpt lat="44.15589" lon="4.99278">
        <ele>237</ele>
        <time>2020-10-25T07:55:31Z</time>
      </trkpt>
      <trkpt lat="44.15592" lon="4.99286">
        <ele>235</ele>
        <time>2020-10-25T07:55:35Z</time>
      </trkpt>
      <trkpt lat="44.15592" lon="4.99299">
        <ele>233</ele>
        <time>2020-10-25T07:55:41Z</time>
      </trkpt>
      <trkpt lat="44.15591" lon="4.99301">
        <ele>233</ele>
        <time>2020-10-25T07:55:42Z</time>
      </trkpt>
      <trkpt lat="44.1559" lon="4.99303">
        <ele>233</ele>
        <time>2020-10-25T07:55:43Z</time>
      </trkpt>
      <trkpt lat="44.15588" lon="4.99305">
        <ele>234</ele>
        <time>2020-10-25T07:55:44Z</time>
      </trkpt>
      <trkpt lat="44.15587" lon="4.99306">
        <ele>234</ele>
        <time>2020-10-25T07:55:45Z</time>
      </trkpt>
      <trkpt lat="44.15586" lon="4.99308">
        <ele>234</ele>
        <time>2020-10-25T07:55:46Z</time>
      </trkpt>
      <trkpt lat="44.15586" lon="4.9931">
        <ele>233</ele>
        <time>2020-10-25T07:55:47Z</time>
      </trkpt>
      <trkpt lat="44.15587" lon="4.99313">
        <ele>233</ele>
        <time>2020-10-25T07:55:48Z</time>
      </trkpt>
      <trkpt lat="44.1559" lon="4.99321">
        <ele>231</ele>
        <time>2020-10-25T07:55:51Z</time>
      </trkpt>
      <trkpt lat="44.15592" lon="4.99323">
        <ele>231</ele>
        <time>2020-10-25T07:55:52Z</time>
      </trkpt>
      <trkpt lat="44.15594" lon="4.99325">
        <ele>230</ele>
        <time>2020-10-25T07:55:53Z</time>
      </trkpt>
      <trkpt lat="44.15596" lon="4.99327">
        <ele>229</ele>
        <time>2020-10-25T07:55:54Z</time>
      </trkpt>
      <trkpt lat="44.15598" lon="4.99329">
        <ele>229</ele>
        <time>2020-10-25T07:55:55Z</time>
      </trkpt>
      <trkpt lat="44.15599" lon="4.99332">
        <ele>228</ele>
        <time>2020-10-25T07:55:56Z</time>
      </trkpt>
      <trkpt lat="44.15612" lon="4.99337">
        <ele>226</ele>
        <time>2020-10-25T07:56:02Z</time>
      </trkpt>
      <trkpt lat="44.15621" lon="4.99338">
        <ele>224</ele>
        <time>2020-10-25T07:56:06Z</time>
      </trkpt>
      <trkpt lat="44.15623" lon="4.99339">
        <ele>224</ele>
        <time>2020-10-25T07:56:07Z</time>
      </trkpt>
      <trkpt lat="44.15625" lon="4.99339">
        <ele>223</ele>
        <time>2020-10-25T07:56:08Z</time>
      </trkpt>
      <trkpt lat="44.15626" lon="4.99338">
        <ele>223</ele>
        <time>2020-10-25T07:56:09Z</time>
      </trkpt>
      <trkpt lat="44.15627" lon="4.99336">
        <ele>223</ele>
        <time>2020-10-25T07:56:10Z</time>
      </trkpt>
      <trkpt lat="44.15632" lon="4.99326">
        <ele>222</ele>
        <time>2020-10-25T07:56:17Z</time>
      </trkpt>
      <trkpt lat="44.15635" lon="4.99326">
        <ele>222</ele>
        <time>2020-10-25T07:56:19Z</time>
      </trkpt>
      <trkpt lat="44.15637" lon="4.99326">
        <ele>222</ele>
        <time>2020-10-25T07:56:20Z</time>
      </trkpt>
      <trkpt lat="44.15639" lon="4.99325">
        <ele>221</ele>
        <time>2020-10-25T07:56:21Z</time>
      </trkpt>
      <trkpt lat="44.15643" lon="4.99324">
        <ele>220</ele>
        <time>2020-10-25T07:56:23Z</time>
      </trkpt>
      <trkpt lat="44.15645" lon="4.99325">
        <ele>220</ele>
        <time>2020-10-25T07:56:24Z</time>
      </trkpt>
      <trkpt lat="44.15646" lon="4.99326">
        <ele>220</ele>
        <time>2020-10-25T07:56:25Z</time>
      </trkpt>
      <trkpt lat="44.15647" lon="4.99328">
        <ele>220</ele>
        <time>2020-10-25T07:56:26Z</time>
      </trkpt>
      <trkpt lat="44.15649" lon="4.9933">
        <ele>219</ele>
        <time>2020-10-25T07:56:27Z</time>
      </trkpt>
      <trkpt lat="44.1565" lon="4.99331">
        <ele>219</ele>
        <time>2020-10-25T07:56:28Z</time>
      </trkpt>
      <trkpt lat="44.15651" lon="4.99333">
        <ele>219</ele>
        <time>2020-10-25T07:56:29Z</time>
      </trkpt>
      <trkpt lat="44.15656" lon="4.99339">
        <ele>218</ele>
        <time>2020-10-25T07:56:33Z</time>
      </trkpt>
      <trkpt lat="44.15658" lon="4.99343">
        <ele>218</ele>
        <time>2020-10-25T07:56:35Z</time>
      </trkpt>
      <trkpt lat="44.15657" lon="4.99346">
        <ele>218</ele>
        <time>2020-10-25T07:56:37Z</time>
      </trkpt>
      <trkpt lat="44.15656" lon="4.99348">
        <ele>218</ele>
        <time>2020-10-25T07:56:38Z</time>
      </trkpt>
      <trkpt lat="44.15655" lon="4.99349">
        <ele>218</ele>
        <time>2020-10-25T07:56:39Z</time>
      </trkpt>
      <trkpt lat="44.15653" lon="4.9935">
        <ele>219</ele>
        <time>2020-10-25T07:56:40Z</time>
      </trkpt>
      <trkpt lat="44.15651" lon="4.9935">
        <ele>219</ele>
        <time>2020-10-25T07:56:41Z</time>
      </trkpt>
      <trkpt lat="44.1563" lon="4.99365">
        <ele>221</ele>
        <time>2020-10-25T07:56:52Z</time>
      </trkpt>
      <trkpt lat="44.15624" lon="4.99369">
        <ele>222</ele>
        <time>2020-10-25T07:56:56Z</time>
      </trkpt>
      <trkpt lat="44.15605" lon="4.99394">
        <ele>222</ele>
        <time>2020-10-25T07:57:07Z</time>
      </trkpt>
      <trkpt lat="44.15604" lon="4.99397">
        <ele>222</ele>
        <time>2020-10-25T07:57:08Z</time>
      </trkpt>
      <trkpt lat="44.15604" lon="4.994">
        <ele>221</ele>
        <time>2020-10-25T07:57:09Z</time>
      </trkpt>
      <trkpt lat="44.15605" lon="4.99402">
        <ele>221</ele>
        <time>2020-10-25T07:57:10Z</time>
      </trkpt>
      <trkpt lat="44.15606" lon="4.99404">
        <ele>221</ele>
        <time>2020-10-25T07:57:11Z</time>
      </trkpt>
      <trkpt lat="44.15608" lon="4.99404">
        <ele>221</ele>
        <time>2020-10-25T07:57:12Z</time>
      </trkpt>
      <trkpt lat="44.15619" lon="4.99426">
        <ele>220</ele>
        <time>2020-10-25T07:57:20Z</time>
      </trkpt>
      <trkpt lat="44.15629" lon="4.99455">
        <ele>223</ele>
        <time>2020-10-25T07:57:30Z</time>
      </trkpt>
      <trkpt lat="44.1564" lon="4.99484">
        <ele>227</ele>
        <time>2020-10-25T07:57:41Z</time>
      </trkpt>
      <trkpt lat="44.15648" lon="4.99502">
        <ele>230</ele>
        <time>2020-10-25T07:57:50Z</time>
      </trkpt>
      <trkpt lat="44.15654" lon="4.99518">
        <ele>231</ele>
        <time>2020-10-25T07:57:58Z</time>
      </trkpt>
      <trkpt lat="44.15662" lon="4.99527">
        <ele>232</ele>
        <time>2020-10-25T07:58:04Z</time>
      </trkpt>
      <trkpt lat="44.15667" lon="4.99533">
        <ele>233</ele>
        <time>2020-10-25T07:58:14Z</time>
      </trkpt>
      <trkpt lat="44.15664" lon="4.99537">
        <ele>233</ele>
        <time>2020-10-25T07:58:17Z</time>
      </trkpt>
      <trkpt lat="44.15663" lon="4.99539">
        <ele>233</ele>
        <time>2020-10-25T07:58:18Z</time>
      </trkpt>
      <trkpt lat="44.15648" lon="4.99555">
        <ele>233</ele>
        <time>2020-10-25T07:58:33Z</time>
      </trkpt>
      <trkpt lat="44.15626" lon="4.99577">
        <ele>234</ele>
        <time>2020-10-25T07:58:43Z</time>
      </trkpt>
      <trkpt lat="44.15606" lon="4.99592">
        <ele>236</ele>
        <time>2020-10-25T07:58:52Z</time>
      </trkpt>
      <trkpt lat="44.15589" lon="4.99605">
        <ele>237</ele>
        <time>2020-10-25T07:59:00Z</time>
      </trkpt>
      <trkpt lat="44.15567" lon="4.99625">
        <ele>237</ele>
        <time>2020-10-25T07:59:10Z</time>
      </trkpt>
      <trkpt lat="44.15546" lon="4.99639">
        <ele>237</ele>
        <time>2020-10-25T07:59:19Z</time>
      </trkpt>
      <trkpt lat="44.15521" lon="4.99647">
        <ele>237</ele>
        <time>2020-10-25T07:59:29Z</time>
      </trkpt>
      <trkpt lat="44.15499" lon="4.9965">
        <ele>236</ele>
        <time>2020-10-25T07:59:38Z</time>
      </trkpt>
      <trkpt lat="44.15474" lon="4.99653">
        <ele>233</ele>
        <time>2020-10-25T07:59:48Z</time>
      </trkpt>
      <trkpt lat="44.15461" lon="4.99657">
        <ele>232</ele>
        <time>2020-10-25T07:59:53Z</time>
      </trkpt>
      <trkpt lat="44.15459" lon="4.9966">
        <ele>232</ele>
        <time>2020-10-25T07:59:54Z</time>
      </trkpt>
      <trkpt lat="44.15458" lon="4.99663">
        <ele>232</ele>
        <time>2020-10-25T07:59:55Z</time>
      </trkpt>
      <trkpt lat="44.15457" lon="4.99668">
        <ele>232</ele>
        <time>2020-10-25T07:59:56Z</time>
      </trkpt>
      <trkpt lat="44.15457" lon="4.99671">
        <ele>232</ele>
        <time>2020-10-25T07:59:57Z</time>
      </trkpt>
      <trkpt lat="44.15457" lon="4.99675">
        <ele>232</ele>
        <time>2020-10-25T07:59:58Z</time>
      </trkpt>
      <trkpt lat="44.15466" lon="4.99704">
        <ele>235</ele>
        <time>2020-10-25T08:00:07Z</time>
      </trkpt>
      <trkpt lat="44.15473" lon="4.99731">
        <ele>237</ele>
        <time>2020-10-25T08:00:15Z</time>
      </trkpt>
      <trkpt lat="44.15484" lon="4.99768">
        <ele>239</ele>
        <time>2020-10-25T08:00:25Z</time>
      </trkpt>
      <trkpt lat="44.15494" lon="4.99801">
        <ele>240</ele>
        <time>2020-10-25T08:00:34Z</time>
      </trkpt>
      <trkpt lat="44.15503" lon="4.99833">
        <ele>240</ele>
        <time>2020-10-25T08:00:42Z</time>
      </trkpt>
      <trkpt lat="44.15507" lon="4.99851">
        <ele>241</ele>
        <time>2020-10-25T08:00:47Z</time>
      </trkpt>
      <trkpt lat="44.15511" lon="4.99857">
        <ele>242</ele>
        <time>2020-10-25T08:00:49Z</time>
      </trkpt>
      <trkpt lat="44.15513" lon="4.99858">
        <ele>243</ele>
        <time>2020-10-25T08:00:50Z</time>
      </trkpt>
      <trkpt lat="44.15516" lon="4.99859">
        <ele>243</ele>
        <time>2020-10-25T08:00:51Z</time>
      </trkpt>
      <trkpt lat="44.15542" lon="4.99862">
        <ele>247</ele>
        <time>2020-10-25T08:01:00Z</time>
      </trkpt>
      <trkpt lat="44.15547" lon="4.9986">
        <ele>248</ele>
        <time>2020-10-25T08:01:02Z</time>
      </trkpt>
      <trkpt lat="44.15566" lon="4.99853">
        <ele>250</ele>
        <time>2020-10-25T08:01:11Z</time>
      </trkpt>
      <trkpt lat="44.15568" lon="4.99852">
        <ele>250</ele>
        <time>2020-10-25T08:01:12Z</time>
      </trkpt>
      <trkpt lat="44.1557" lon="4.99852">
        <ele>251</ele>
        <time>2020-10-25T08:01:13Z</time>
      </trkpt>
      <trkpt lat="44.1559" lon="4.99847">
        <ele>253</ele>
        <time>2020-10-25T08:01:22Z</time>
      </trkpt>
      <trkpt lat="44.1561" lon="4.99843">
        <ele>254</ele>
        <time>2020-10-25T08:01:32Z</time>
      </trkpt>
      <trkpt lat="44.15629" lon="4.99838">
        <ele>254</ele>
        <time>2020-10-25T08:01:41Z</time>
      </trkpt>
      <trkpt lat="44.15649" lon="4.99833">
        <ele>255</ele>
        <time>2020-10-25T08:01:50Z</time>
      </trkpt>
      <trkpt lat="44.1567" lon="4.99831">
        <ele>257</ele>
        <time>2020-10-25T08:01:59Z</time>
      </trkpt>
      <trkpt lat="44.15692" lon="4.9983">
        <ele>257</ele>
        <time>2020-10-25T08:02:07Z</time>
      </trkpt>
      <trkpt lat="44.15722" lon="4.99826">
        <ele>258</ele>
        <time>2020-10-25T08:02:17Z</time>
      </trkpt>
      <trkpt lat="44.15749" lon="4.99823">
        <ele>258</ele>
        <time>2020-10-25T08:02:26Z</time>
      </trkpt>
      <trkpt lat="44.15776" lon="4.99828">
        <ele>256</ele>
        <time>2020-10-25T08:02:36Z</time>
      </trkpt>
      <trkpt lat="44.15779" lon="4.99832">
        <ele>256</ele>
        <time>2020-10-25T08:02:38Z</time>
      </trkpt>
      <trkpt lat="44.15789" lon="4.99861">
        <ele>258</ele>
        <time>2020-10-25T08:02:48Z</time>
      </trkpt>
      <trkpt lat="44.15804" lon="4.99898">
        <ele>262</ele>
        <time>2020-10-25T08:03:00Z</time>
      </trkpt>
      <trkpt lat="44.15805" lon="4.999">
        <ele>263</ele>
        <time>2020-10-25T08:03:01Z</time>
      </trkpt>
      <trkpt lat="44.15807" lon="4.99903">
        <ele>263</ele>
        <time>2020-10-25T08:03:02Z</time>
      </trkpt>
      <trkpt lat="44.15809" lon="4.99905">
        <ele>263</ele>
        <time>2020-10-25T08:03:03Z</time>
      </trkpt>
      <trkpt lat="44.15811" lon="4.99907">
        <ele>263</ele>
        <time>2020-10-25T08:03:04Z</time>
      </trkpt>
      <trkpt lat="44.15813" lon="4.99909">
        <ele>263</ele>
        <time>2020-10-25T08:03:05Z</time>
      </trkpt>
      <trkpt lat="44.15832" lon="4.99927">
        <ele>265</ele>
        <time>2020-10-25T08:03:13Z</time>
      </trkpt>
      <trkpt lat="44.15853" lon="4.99944">
        <ele>263</ele>
        <time>2020-10-25T08:03:22Z</time>
      </trkpt>
      <trkpt lat="44.15878" lon="4.99958">
        <ele>260</ele>
        <time>2020-10-25T08:03:32Z</time>
      </trkpt>
      <trkpt lat="44.15903" lon="4.99968">
        <ele>259</ele>
        <time>2020-10-25T08:03:41Z</time>
      </trkpt>
      <trkpt lat="44.15916" lon="4.99989">
        <ele>261</ele>
        <time>2020-10-25T08:03:49Z</time>
      </trkpt>
      <trkpt lat="44.15931" lon="5.00012">
        <ele>261</ele>
        <time>2020-10-25T08:03:57Z</time>
      </trkpt>
      <trkpt lat="44.15949" lon="5.00036">
        <ele>260</ele>
        <time>2020-10-25T08:04:06Z</time>
      </trkpt>
      <trkpt lat="44.15954" lon="5.00041">
        <ele>260</ele>
        <time>2020-10-25T08:04:08Z</time>
      </trkpt>
      <trkpt lat="44.15959" lon="5.00044">
        <ele>260</ele>
        <time>2020-10-25T08:04:10Z</time>
      </trkpt>
      <trkpt lat="44.15963" lon="5.00047">
        <ele>260</ele>
        <time>2020-10-25T08:04:12Z</time>
      </trkpt>
      <trkpt lat="44.15967" lon="5.0005">
        <ele>260</ele>
        <time>2020-10-25T08:04:14Z</time>
      </trkpt>
      <trkpt lat="44.1599" lon="5.00064">
        <ele>267</ele>
        <time>2020-10-25T08:04:25Z</time>
      </trkpt>
      <trkpt lat="44.15996" lon="5.00066">
        <ele>269</ele>
        <time>2020-10-25T08:04:36Z</time>
      </trkpt>
      <trkpt lat="44.15998" lon="5.00062">
        <ele>269</ele>
        <time>2020-10-25T08:04:51Z</time>
      </trkpt>
      <trkpt lat="44.15998" lon="5.00055">
        <ele>267</ele>
        <time>2020-10-25T08:05:02Z</time>
      </trkpt>
      <trkpt lat="44.15995" lon="5.00051">
        <ele>265</ele>
        <time>2020-10-25T08:05:10Z</time>
      </trkpt>
      <trkpt lat="44.15994" lon="5.00043">
        <ele>263</ele>
        <time>2020-10-25T08:05:54Z</time>
      </trkpt>
      <trkpt lat="44.15988" lon="5.00039">
        <ele>260</ele>
        <time>2020-10-25T08:06:05Z</time>
      </trkpt>
      <trkpt lat="44.15987" lon="5.00036">
        <ele>259</ele>
        <time>2020-10-25T08:06:07Z</time>
      </trkpt>
      <trkpt lat="44.15992" lon="5.00032">
        <ele>259</ele>
        <time>2020-10-25T08:06:13Z</time>
      </trkpt>
      <trkpt lat="44.16005" lon="5.0003">
        <ele>260</ele>
        <time>2020-10-25T08:06:20Z</time>
      </trkpt>
      <trkpt lat="44.16008" lon="5.0003">
        <ele>261</ele>
        <time>2020-10-25T08:06:21Z</time>
      </trkpt>
      <trkpt lat="44.1602" lon="5.00034">
        <ele>264</ele>
        <time>2020-10-25T08:06:27Z</time>
      </trkpt>
      <trkpt lat="44.16037" lon="5.00044">
        <ele>266</ele>
        <time>2020-10-25T08:06:35Z</time>
      </trkpt>
      <trkpt lat="44.16037" lon="5.00038">
        <ele>264</ele>
        <time>2020-10-25T08:07:09Z</time>
      </trkpt>
      <trkpt lat="44.16039" lon="5.00034">
        <ele>263</ele>
        <time>2020-10-25T08:07:14Z</time>
      </trkpt>
      <trkpt lat="44.16044" lon="5.00029">
        <ele>260</ele>
        <time>2020-10-25T08:07:18Z</time>
      </trkpt>
      <trkpt lat="44.16046" lon="5.00028">
        <ele>260</ele>
        <time>2020-10-25T08:07:19Z</time>
      </trkpt>
      <trkpt lat="44.16051" lon="5.00024">
        <ele>258</ele>
        <time>2020-10-25T08:07:22Z</time>
      </trkpt>
      <trkpt lat="44.16055" lon="5.00022">
        <ele>256</ele>
        <time>2020-10-25T08:07:24Z</time>
      </trkpt>
      <trkpt lat="44.1606" lon="5.00013">
        <ele>253</ele>
        <time>2020-10-25T08:07:30Z</time>
      </trkpt>
      <trkpt lat="44.16068" lon="5.00002">
        <ele>248</ele>
        <time>2020-10-25T08:07:34Z</time>
      </trkpt>
      <trkpt lat="44.16069" lon="4.99998">
        <ele>247</ele>
        <time>2020-10-25T08:07:36Z</time>
      </trkpt>
      <trkpt lat="44.16069" lon="4.99995">
        <ele>247</ele>
        <time>2020-10-25T08:07:38Z</time>
      </trkpt>
      <trkpt lat="44.16067" lon="4.99989">
        <ele>246</ele>
        <time>2020-10-25T08:07:42Z</time>
      </trkpt>
      <trkpt lat="44.16064" lon="4.99984">
        <ele>245</ele>
        <time>2020-10-25T08:07:51Z</time>
      </trkpt>
      <trkpt lat="44.16061" lon="4.99978">
        <ele>244</ele>
        <time>2020-10-25T08:07:57Z</time>
      </trkpt>
      <trkpt lat="44.16065" lon="4.99973">
        <ele>243</ele>
        <time>2020-10-25T08:08:19Z</time>
      </trkpt>
      <trkpt lat="44.16071" lon="4.99971">
        <ele>242</ele>
        <time>2020-10-25T08:08:23Z</time>
      </trkpt>
      <trkpt lat="44.16075" lon="4.99969">
        <ele>241</ele>
        <time>2020-10-25T08:08:25Z</time>
      </trkpt>
      <trkpt lat="44.16077" lon="4.99966">
        <ele>241</ele>
        <time>2020-10-25T08:08:26Z</time>
      </trkpt>
      <trkpt lat="44.16079" lon="4.99959">
        <ele>239</ele>
        <time>2020-10-25T08:08:28Z</time>
      </trkpt>
      <trkpt lat="44.16082" lon="4.99952">
        <ele>238</ele>
        <time>2020-10-25T08:08:30Z</time>
      </trkpt>
      <trkpt lat="44.16083" lon="4.99948">
        <ele>237</ele>
        <time>2020-10-25T08:08:31Z</time>
      </trkpt>
      <trkpt lat="44.16098" lon="4.9992">
        <ele>232</ele>
        <time>2020-10-25T08:08:39Z</time>
      </trkpt>
      <trkpt lat="44.16103" lon="4.99911">
        <ele>230</ele>
        <time>2020-10-25T08:08:43Z</time>
      </trkpt>
      <trkpt lat="44.1611" lon="4.99904">
        <ele>230</ele>
        <time>2020-10-25T08:08:50Z</time>
      </trkpt>
      <trkpt lat="44.16112" lon="4.99909">
        <ele>230</ele>
        <time>2020-10-25T08:08:51Z</time>
      </trkpt>
      <trkpt lat="44.16107" lon="4.99923">
        <ele>232</ele>
        <time>2020-10-25T08:08:57Z</time>
      </trkpt>
      <trkpt lat="44.16108" lon="4.99926">
        <ele>233</ele>
        <time>2020-10-25T08:08:58Z</time>
      </trkpt>
      <trkpt lat="44.16115" lon="4.99941">
        <ele>236</ele>
        <time>2020-10-25T08:09:04Z</time>
      </trkpt>
      <trkpt lat="44.16117" lon="4.99947">
        <ele>236</ele>
        <time>2020-10-25T08:09:06Z</time>
      </trkpt>
      <trkpt lat="44.16119" lon="4.99951">
        <ele>237</ele>
        <time>2020-10-25T08:09:08Z</time>
      </trkpt>
      <trkpt lat="44.16121" lon="4.99957">
        <ele>238</ele>
        <time>2020-10-25T08:09:10Z</time>
      </trkpt>
      <trkpt lat="44.16123" lon="4.99961">
        <ele>239</ele>
        <time>2020-10-25T08:09:12Z</time>
      </trkpt>
      <trkpt lat="44.16124" lon="4.99964">
        <ele>239</ele>
        <time>2020-10-25T08:09:13Z</time>
      </trkpt>
      <trkpt lat="44.16127" lon="4.99967">
        <ele>240</ele>
        <time>2020-10-25T08:09:15Z</time>
      </trkpt>
      <trkpt lat="44.16129" lon="4.99968">
        <ele>240</ele>
        <time>2020-10-25T08:09:16Z</time>
      </trkpt>
      <trkpt lat="44.16132" lon="4.99968">
        <ele>240</ele>
        <time>2020-10-25T08:09:18Z</time>
      </trkpt>
      <trkpt lat="44.16134" lon="4.99968">
        <ele>240</ele>
        <time>2020-10-25T08:09:19Z</time>
      </trkpt>
      <trkpt lat="44.16138" lon="4.99968">
        <ele>240</ele>
        <time>2020-10-25T08:09:21Z</time>
      </trkpt>
      <trkpt lat="44.16143" lon="4.99969">
        <ele>240</ele>
        <time>2020-10-25T08:09:23Z</time>
      </trkpt>
      <trkpt lat="44.16147" lon="4.99971">
        <ele>240</ele>
        <time>2020-10-25T08:09:25Z</time>
      </trkpt>
      <trkpt lat="44.16166" lon="4.99979">
        <ele>241</ele>
        <time>2020-10-25T08:09:34Z</time>
      </trkpt>
      <trkpt lat="44.16186" lon="4.99983">
        <ele>241</ele>
        <time>2020-10-25T08:09:43Z</time>
      </trkpt>
      <trkpt lat="44.16212" lon="4.99987">
        <ele>241</ele>
        <time>2020-10-25T08:09:53Z</time>
      </trkpt>
      <trkpt lat="44.16242" lon="4.99986">
        <ele>239</ele>
        <time>2020-10-25T08:10:03Z</time>
      </trkpt>
      <trkpt lat="44.16267" lon="4.99996">
        <ele>238</ele>
        <time>2020-10-25T08:10:12Z</time>
      </trkpt>
      <trkpt lat="44.16287" lon="5.0001">
        <ele>239</ele>
        <time>2020-10-25T08:10:20Z</time>
      </trkpt>
      <trkpt lat="44.16307" lon="5.00025">
        <ele>237</ele>
        <time>2020-10-25T08:10:28Z</time>
      </trkpt>
      <trkpt lat="44.16326" lon="5.00043">
        <ele>236</ele>
        <time>2020-10-25T08:10:36Z</time>
      </trkpt>
      <trkpt lat="44.16346" lon="5.00061">
        <ele>237</ele>
        <time>2020-10-25T08:10:44Z</time>
      </trkpt>
      <trkpt lat="44.16358" lon="5.00072">
        <ele>238</ele>
        <time>2020-10-25T08:10:49Z</time>
      </trkpt>
      <trkpt lat="44.16359" lon="5.00075">
        <ele>238</ele>
        <time>2020-10-25T08:10:50Z</time>
      </trkpt>
      <trkpt lat="44.16359" lon="5.00078">
        <ele>239</ele>
        <time>2020-10-25T08:10:51Z</time>
      </trkpt>
      <trkpt lat="44.16359" lon="5.00081">
        <ele>239</ele>
        <time>2020-10-25T08:10:52Z</time>
      </trkpt>
      <trkpt lat="44.16358" lon="5.00087">
        <ele>239</ele>
        <time>2020-10-25T08:10:54Z</time>
      </trkpt>
      <trkpt lat="44.16358" lon="5.0009">
        <ele>240</ele>
        <time>2020-10-25T08:10:55Z</time>
      </trkpt>
      <trkpt lat="44.16357" lon="5.00096">
        <ele>240</ele>
        <time>2020-10-25T08:10:57Z</time>
      </trkpt>
      <trkpt lat="44.16356" lon="5.00099">
        <ele>241</ele>
        <time>2020-10-25T08:10:58Z</time>
      </trkpt>
      <trkpt lat="44.16356" lon="5.00102">
        <ele>241</ele>
        <time>2020-10-25T08:10:59Z</time>
      </trkpt>
      <trkpt lat="44.16355" lon="5.00105">
        <ele>241</ele>
        <time>2020-10-25T08:11:00Z</time>
      </trkpt>
      <trkpt lat="44.16354" lon="5.00111">
        <ele>242</ele>
        <time>2020-10-25T08:11:02Z</time>
      </trkpt>
      <trkpt lat="44.16354" lon="5.00114">
        <ele>242</ele>
        <time>2020-10-25T08:11:03Z</time>
      </trkpt>
      <trkpt lat="44.16353" lon="5.00117">
        <ele>242</ele>
        <time>2020-10-25T08:11:04Z</time>
      </trkpt>
      <trkpt lat="44.16353" lon="5.0012">
        <ele>242</ele>
        <time>2020-10-25T08:11:05Z</time>
      </trkpt>
      <trkpt lat="44.16352" lon="5.00122">
        <ele>242</ele>
        <time>2020-10-25T08:11:06Z</time>
      </trkpt>
      <trkpt lat="44.16352" lon="5.00124">
        <ele>242</ele>
        <time>2020-10-25T08:11:07Z</time>
      </trkpt>
      <trkpt lat="44.16351" lon="5.00127">
        <ele>242</ele>
        <time>2020-10-25T08:11:08Z</time>
      </trkpt>
      <trkpt lat="44.16351" lon="5.0013">
        <ele>242</ele>
        <time>2020-10-25T08:11:09Z</time>
      </trkpt>
      <trkpt lat="44.16346" lon="5.0014">
        <ele>243</ele>
        <time>2020-10-25T08:11:13Z</time>
      </trkpt>
      <trkpt lat="44.16344" lon="5.00142">
        <ele>243</ele>
        <time>2020-10-25T08:11:14Z</time>
      </trkpt>
      <trkpt lat="44.16343" lon="5.00143">
        <ele>243</ele>
        <time>2020-10-25T08:11:15Z</time>
      </trkpt>
      <trkpt lat="44.16342" lon="5.00145">
        <ele>243</ele>
        <time>2020-10-25T08:11:16Z</time>
      </trkpt>
      <trkpt lat="44.16341" lon="5.00146">
        <ele>243</ele>
        <time>2020-10-25T08:11:17Z</time>
      </trkpt>
      <trkpt lat="44.16339" lon="5.00147">
        <ele>244</ele>
        <time>2020-10-25T08:11:18Z</time>
      </trkpt>
      <trkpt lat="44.16338" lon="5.00149">
        <ele>244</ele>
        <time>2020-10-25T08:11:19Z</time>
      </trkpt>
      <trkpt lat="44.16337" lon="5.00151">
        <ele>244</ele>
        <time>2020-10-25T08:11:20Z</time>
      </trkpt>
      <trkpt lat="44.16335" lon="5.00152">
        <ele>244</ele>
        <time>2020-10-25T08:11:21Z</time>
      </trkpt>
      <trkpt lat="44.16333" lon="5.00154">
        <ele>244</ele>
        <time>2020-10-25T08:11:22Z</time>
      </trkpt>
      <trkpt lat="44.16332" lon="5.00157">
        <ele>245</ele>
        <time>2020-10-25T08:11:23Z</time>
      </trkpt>
      <trkpt lat="44.1633" lon="5.00159">
        <ele>245</ele>
        <time>2020-10-25T08:11:24Z</time>
      </trkpt>
      <trkpt lat="44.16328" lon="5.00161">
        <ele>245</ele>
        <time>2020-10-25T08:11:25Z</time>
      </trkpt>
      <trkpt lat="44.16308" lon="5.0019">
        <ele>247</ele>
        <time>2020-10-25T08:11:35Z</time>
      </trkpt>
      <trkpt lat="44.16299" lon="5.00211">
        <ele>248</ele>
        <time>2020-10-25T08:11:42Z</time>
      </trkpt>
      <trkpt lat="44.16297" lon="5.00214">
        <ele>248</ele>
        <time>2020-10-25T08:11:43Z</time>
      </trkpt>
      <trkpt lat="44.16296" lon="5.00217">
        <ele>248</ele>
        <time>2020-10-25T08:11:44Z</time>
      </trkpt>
      <trkpt lat="44.16295" lon="5.0022">
        <ele>248</ele>
        <time>2020-10-25T08:11:45Z</time>
      </trkpt>
      <trkpt lat="44.16294" lon="5.00223">
        <ele>248</ele>
        <time>2020-10-25T08:11:46Z</time>
      </trkpt>
      <trkpt lat="44.16291" lon="5.00231">
        <ele>249</ele>
        <time>2020-10-25T08:11:49Z</time>
      </trkpt>
      <trkpt lat="44.1629" lon="5.00234">
        <ele>249</ele>
        <time>2020-10-25T08:11:50Z</time>
      </trkpt>
      <trkpt lat="44.16289" lon="5.00237">
        <ele>249</ele>
        <time>2020-10-25T08:11:51Z</time>
      </trkpt>
      <trkpt lat="44.16289" lon="5.0024">
        <ele>249</ele>
        <time>2020-10-25T08:11:52Z</time>
      </trkpt>
      <trkpt lat="44.16289" lon="5.00243">
        <ele>249</ele>
        <time>2020-10-25T08:11:53Z</time>
      </trkpt>
      <trkpt lat="44.16288" lon="5.00247">
        <ele>249</ele>
        <time>2020-10-25T08:11:54Z</time>
      </trkpt>
      <trkpt lat="44.16287" lon="5.00251">
        <ele>249</ele>
        <time>2020-10-25T08:11:55Z</time>
      </trkpt>
      <trkpt lat="44.16287" lon="5.00255">
        <ele>249</ele>
        <time>2020-10-25T08:11:56Z</time>
      </trkpt>
      <trkpt lat="44.16287" lon="5.00258">
        <ele>249</ele>
        <time>2020-10-25T08:11:57Z</time>
      </trkpt>
      <trkpt lat="44.16287" lon="5.00263">
        <ele>248</ele>
        <time>2020-10-25T08:11:58Z</time>
      </trkpt>
      <trkpt lat="44.16287" lon="5.00267">
        <ele>248</ele>
        <time>2020-10-25T08:11:59Z</time>
      </trkpt>
      <trkpt lat="44.1629" lon="5.00302">
        <ele>245</ele>
        <time>2020-10-25T08:12:08Z</time>
      </trkpt>
      <trkpt lat="44.16298" lon="5.00343">
        <ele>242</ele>
        <time>2020-10-25T08:12:19Z</time>
      </trkpt>
      <trkpt lat="44.16307" lon="5.00379">
        <ele>242</ele>
        <time>2020-10-25T08:12:29Z</time>
      </trkpt>
      <trkpt lat="44.16319" lon="5.00404">
        <ele>247</ele>
        <time>2020-10-25T08:12:38Z</time>
      </trkpt>
      <trkpt lat="44.16347" lon="5.00425">
        <ele>249</ele>
        <time>2020-10-25T08:12:48Z</time>
      </trkpt>
      <trkpt lat="44.16373" lon="5.0044">
        <ele>250</ele>
        <time>2020-10-25T08:12:59Z</time>
      </trkpt>
      <trkpt lat="44.16391" lon="5.00465">
        <ele>251</ele>
        <time>2020-10-25T08:13:10Z</time>
      </trkpt>
      <trkpt lat="44.16406" lon="5.00493">
        <ele>252</ele>
        <time>2020-10-25T08:13:20Z</time>
      </trkpt>
      <trkpt lat="44.16412" lon="5.00517">
        <ele>253</ele>
        <time>2020-10-25T08:13:28Z</time>
      </trkpt>
      <trkpt lat="44.1641" lon="5.00523">
        <ele>253</ele>
        <time>2020-10-25T08:13:30Z</time>
      </trkpt>
      <trkpt lat="44.16409" lon="5.00526">
        <ele>254</ele>
        <time>2020-10-25T08:13:31Z</time>
      </trkpt>
      <trkpt lat="44.16408" lon="5.0053">
        <ele>254</ele>
        <time>2020-10-25T08:13:33Z</time>
      </trkpt>
      <trkpt lat="44.16408" lon="5.00532">
        <ele>254</ele>
        <time>2020-10-25T08:13:34Z</time>
      </trkpt>
      <trkpt lat="44.16409" lon="5.00534">
        <ele>254</ele>
        <time>2020-10-25T08:13:35Z</time>
      </trkpt>
      <trkpt lat="44.1641" lon="5.00537">
        <ele>254</ele>
        <time>2020-10-25T08:13:36Z</time>
      </trkpt>
      <trkpt lat="44.16411" lon="5.0054">
        <ele>254</ele>
        <time>2020-10-25T08:13:37Z</time>
      </trkpt>
      <trkpt lat="44.16413" lon="5.00542">
        <ele>254</ele>
        <time>2020-10-25T08:13:38Z</time>
      </trkpt>
      <trkpt lat="44.16414" lon="5.00545">
        <ele>254</ele>
        <time>2020-10-25T08:13:39Z</time>
      </trkpt>
      <trkpt lat="44.16415" lon="5.00548">
        <ele>254</ele>
        <time>2020-10-25T08:13:40Z</time>
      </trkpt>
      <trkpt lat="44.16417" lon="5.00552">
        <ele>254</ele>
        <time>2020-10-25T08:13:41Z</time>
      </trkpt>
      <trkpt lat="44.16419" lon="5.00556">
        <ele>254</ele>
        <time>2020-10-25T08:13:42Z</time>
      </trkpt>
      <trkpt lat="44.16422" lon="5.00559">
        <ele>254</ele>
        <time>2020-10-25T08:13:43Z</time>
      </trkpt>
      <trkpt lat="44.16424" lon="5.00563">
        <ele>254</ele>
        <time>2020-10-25T08:13:44Z</time>
      </trkpt>
      <trkpt lat="44.16427" lon="5.00566">
        <ele>254</ele>
        <time>2020-10-25T08:13:45Z</time>
      </trkpt>
      <trkpt lat="44.16428" lon="5.00568">
        <ele>254</ele>
        <time>2020-10-25T08:13:46Z</time>
      </trkpt>
      <trkpt lat="44.16431" lon="5.00574">
        <ele>254</ele>
        <time>2020-10-25T08:13:48Z</time>
      </trkpt>
      <trkpt lat="44.16432" lon="5.00576">
        <ele>254</ele>
        <time>2020-10-25T08:13:49Z</time>
      </trkpt>
      <trkpt lat="44.16442" lon="5.00603">
        <ele>254</ele>
        <time>2020-10-25T08:13:58Z</time>
      </trkpt>
      <trkpt lat="44.16449" lon="5.00625">
        <ele>254</ele>
        <time>2020-10-25T08:14:06Z</time>
      </trkpt>
      <trkpt lat="44.16464" lon="5.00662">
        <ele>255</ele>
        <time>2020-10-25T08:14:18Z</time>
      </trkpt>
      <trkpt lat="44.16469" lon="5.00689">
        <ele>258</ele>
        <time>2020-10-25T08:14:27Z</time>
      </trkpt>
      <trkpt lat="44.16479" lon="5.00708">
        <ele>259</ele>
        <time>2020-10-25T08:14:34Z</time>
      </trkpt>
      <trkpt lat="44.1648" lon="5.00711">
        <ele>259</ele>
        <time>2020-10-25T08:14:35Z</time>
      </trkpt>
      <trkpt lat="44.16494" lon="5.00732">
        <ele>261</ele>
        <time>2020-10-25T08:14:43Z</time>
      </trkpt>
      <trkpt lat="44.16517" lon="5.00763">
        <ele>262</ele>
        <time>2020-10-25T08:14:57Z</time>
      </trkpt>
      <trkpt lat="44.16534" lon="5.00801">
        <ele>266</ele>
        <time>2020-10-25T08:15:10Z</time>
      </trkpt>
      <trkpt lat="44.16549" lon="5.0083">
        <ele>266</ele>
        <time>2020-10-25T08:15:22Z</time>
      </trkpt>
      <trkpt lat="44.16561" lon="5.00847">
        <ele>264</ele>
        <time>2020-10-25T08:15:28Z</time>
      </trkpt>
      <trkpt lat="44.16578" lon="5.00883">
        <ele>261</ele>
        <time>2020-10-25T08:15:39Z</time>
      </trkpt>
      <trkpt lat="44.16593" lon="5.00922">
        <ele>258</ele>
        <time>2020-10-25T08:15:50Z</time>
      </trkpt>
      <trkpt lat="44.16606" lon="5.00946">
        <ele>258</ele>
        <time>2020-10-25T08:15:57Z</time>
      </trkpt>
      <trkpt lat="44.16621" lon="5.00972">
        <ele>258</ele>
        <time>2020-10-25T08:16:07Z</time>
      </trkpt>
      <trkpt lat="44.16636" lon="5.01007">
        <ele>258</ele>
        <time>2020-10-25T08:16:19Z</time>
      </trkpt>
      <trkpt lat="44.16648" lon="5.01038">
        <ele>258</ele>
        <time>2020-10-25T08:16:28Z</time>
      </trkpt>
      <trkpt lat="44.16657" lon="5.01077">
        <ele>258</ele>
        <time>2020-10-25T08:16:38Z</time>
      </trkpt>
      <trkpt lat="44.16659" lon="5.01084">
        <ele>258</ele>
        <time>2020-10-25T08:16:40Z</time>
      </trkpt>
      <trkpt lat="44.1666" lon="5.01117">
        <ele>259</ele>
        <time>2020-10-25T08:16:49Z</time>
      </trkpt>
      <trkpt lat="44.16649" lon="5.01161">
        <ele>261</ele>
        <time>2020-10-25T08:17:01Z</time>
      </trkpt>
      <trkpt lat="44.16633" lon="5.01182">
        <ele>265</ele>
        <time>2020-10-25T08:17:09Z</time>
      </trkpt>
      <trkpt lat="44.1663" lon="5.01184">
        <ele>266</ele>
        <time>2020-10-25T08:17:10Z</time>
      </trkpt>
      <trkpt lat="44.16629" lon="5.01187">
        <ele>266</ele>
        <time>2020-10-25T08:17:11Z</time>
      </trkpt>
      <trkpt lat="44.16627" lon="5.0119">
        <ele>267</ele>
        <time>2020-10-25T08:17:12Z</time>
      </trkpt>
      <trkpt lat="44.16621" lon="5.01207">
        <ele>269</ele>
        <time>2020-10-25T08:17:17Z</time>
      </trkpt>
      <trkpt lat="44.1662" lon="5.0121">
        <ele>269</ele>
        <time>2020-10-25T08:17:18Z</time>
      </trkpt>
      <trkpt lat="44.16619" lon="5.01214">
        <ele>269</ele>
        <time>2020-10-25T08:17:19Z</time>
      </trkpt>
      <trkpt lat="44.16617" lon="5.01218">
        <ele>269</ele>
        <time>2020-10-25T08:17:20Z</time>
      </trkpt>
      <trkpt lat="44.16617" lon="5.01222">
        <ele>269</ele>
        <time>2020-10-25T08:17:21Z</time>
      </trkpt>
      <trkpt lat="44.16615" lon="5.01226">
        <ele>270</ele>
        <time>2020-10-25T08:17:22Z</time>
      </trkpt>
      <trkpt lat="44.16614" lon="5.01231">
        <ele>270</ele>
        <time>2020-10-25T08:17:23Z</time>
      </trkpt>
      <trkpt lat="44.16613" lon="5.01234">
        <ele>270</ele>
        <time>2020-10-25T08:17:24Z</time>
      </trkpt>
      <trkpt lat="44.16612" lon="5.01238">
        <ele>270</ele>
        <time>2020-10-25T08:17:25Z</time>
      </trkpt>
      <trkpt lat="44.16604" lon="5.01272">
        <ele>271</ele>
        <time>2020-10-25T08:17:35Z</time>
      </trkpt>
      <trkpt lat="44.16601" lon="5.01299">
        <ele>270</ele>
        <time>2020-10-25T08:17:42Z</time>
      </trkpt>
      <trkpt lat="44.16601" lon="5.01302">
        <ele>270</ele>
        <time>2020-10-25T08:17:43Z</time>
      </trkpt>
      <trkpt lat="44.166" lon="5.01305">
        <ele>270</ele>
        <time>2020-10-25T08:17:44Z</time>
      </trkpt>
      <trkpt lat="44.16599" lon="5.01307">
        <ele>270</ele>
        <time>2020-10-25T08:17:45Z</time>
      </trkpt>
      <trkpt lat="44.16599" lon="5.0131">
        <ele>270</ele>
        <time>2020-10-25T08:17:46Z</time>
      </trkpt>
      <trkpt lat="44.16591" lon="5.0134">
        <ele>269</ele>
        <time>2020-10-25T08:17:55Z</time>
      </trkpt>
      <trkpt lat="44.16591" lon="5.01343">
        <ele>269</ele>
        <time>2020-10-25T08:17:56Z</time>
      </trkpt>
      <trkpt lat="44.16591" lon="5.01346">
        <ele>269</ele>
        <time>2020-10-25T08:17:57Z</time>
      </trkpt>
      <trkpt lat="44.1659" lon="5.01349">
        <ele>269</ele>
        <time>2020-10-25T08:17:58Z</time>
      </trkpt>
      <trkpt lat="44.1659" lon="5.01352">
        <ele>268</ele>
        <time>2020-10-25T08:17:59Z</time>
      </trkpt>
      <trkpt lat="44.1659" lon="5.01356">
        <ele>268</ele>
        <time>2020-10-25T08:18:00Z</time>
      </trkpt>
      <trkpt lat="44.1659" lon="5.0136">
        <ele>268</ele>
        <time>2020-10-25T08:18:01Z</time>
      </trkpt>
      <trkpt lat="44.16591" lon="5.01365">
        <ele>267</ele>
        <time>2020-10-25T08:18:02Z</time>
      </trkpt>
      <trkpt lat="44.1659" lon="5.01369">
        <ele>267</ele>
        <time>2020-10-25T08:18:03Z</time>
      </trkpt>
      <trkpt lat="44.1659" lon="5.01373">
        <ele>267</ele>
        <time>2020-10-25T08:18:04Z</time>
      </trkpt>
      <trkpt lat="44.1659" lon="5.01377">
        <ele>267</ele>
        <time>2020-10-25T08:18:05Z</time>
      </trkpt>
      <trkpt lat="44.16601" lon="5.01413">
        <ele>267</ele>
        <time>2020-10-25T08:18:14Z</time>
      </trkpt>
      <trkpt lat="44.16609" lon="5.01418">
        <ele>266</ele>
        <time>2020-10-25T08:18:17Z</time>
      </trkpt>
      <trkpt lat="44.16615" lon="5.01416">
        <ele>266</ele>
        <time>2020-10-25T08:18:20Z</time>
      </trkpt>
      <trkpt lat="44.16618" lon="5.01414">
        <ele>266</ele>
        <time>2020-10-25T08:18:21Z</time>
      </trkpt>
      <trkpt lat="44.16619" lon="5.01412">
        <ele>266</ele>
        <time>2020-10-25T08:18:22Z</time>
      </trkpt>
      <trkpt lat="44.1662" lon="5.0141">
        <ele>266</ele>
        <time>2020-10-25T08:18:23Z</time>
      </trkpt>
      <trkpt lat="44.16621" lon="5.01408">
        <ele>266</ele>
        <time>2020-10-25T08:18:24Z</time>
      </trkpt>
      <trkpt lat="44.16623" lon="5.01407">
        <ele>266</ele>
        <time>2020-10-25T08:18:26Z</time>
      </trkpt>
      <trkpt lat="44.16624" lon="5.01409">
        <ele>267</ele>
        <time>2020-10-25T08:18:27Z</time>
      </trkpt>
      <trkpt lat="44.16625" lon="5.01411">
        <ele>267</ele>
        <time>2020-10-25T08:18:28Z</time>
      </trkpt>
      <trkpt lat="44.16625" lon="5.01414">
        <ele>267</ele>
        <time>2020-10-25T08:18:29Z</time>
      </trkpt>
      <trkpt lat="44.16625" lon="5.01418">
        <ele>267</ele>
        <time>2020-10-25T08:18:30Z</time>
      </trkpt>
      <trkpt lat="44.16626" lon="5.0142">
        <ele>267</ele>
        <time>2020-10-25T08:18:31Z</time>
      </trkpt>
      <trkpt lat="44.16627" lon="5.01423">
        <ele>267</ele>
        <time>2020-10-25T08:18:32Z</time>
      </trkpt>
      <trkpt lat="44.16628" lon="5.01425">
        <ele>268</ele>
        <time>2020-10-25T08:18:33Z</time>
      </trkpt>
      <trkpt lat="44.1663" lon="5.01428">
        <ele>268</ele>
        <time>2020-10-25T08:18:34Z</time>
      </trkpt>
      <trkpt lat="44.16631" lon="5.01429">
        <ele>268</ele>
        <time>2020-10-25T08:18:35Z</time>
      </trkpt>
      <trkpt lat="44.16633" lon="5.01431">
        <ele>268</ele>
        <time>2020-10-25T08:18:36Z</time>
      </trkpt>
      <trkpt lat="44.16635" lon="5.01434">
        <ele>268</ele>
        <time>2020-10-25T08:18:37Z</time>
      </trkpt>
      <trkpt lat="44.16636" lon="5.01436">
        <ele>269</ele>
        <time>2020-10-25T08:18:38Z</time>
      </trkpt>
      <trkpt lat="44.16639" lon="5.01438">
        <ele>269</ele>
        <time>2020-10-25T08:18:39Z</time>
      </trkpt>
      <trkpt lat="44.16648" lon="5.01454">
        <ele>272</ele>
        <time>2020-10-25T08:18:46Z</time>
      </trkpt>
      <trkpt lat="44.16652" lon="5.01456">
        <ele>273</ele>
        <time>2020-10-25T08:19:09Z</time>
      </trkpt>
      <trkpt lat="44.16653" lon="5.01457">
        <ele>273</ele>
        <time>2020-10-25T08:19:10Z</time>
      </trkpt>
      <trkpt lat="44.16667" lon="5.01478">
        <ele>276</ele>
        <time>2020-10-25T08:19:19Z</time>
      </trkpt>
      <trkpt lat="44.16679" lon="5.01492">
        <ele>279</ele>
        <time>2020-10-25T08:19:26Z</time>
      </trkpt>
      <trkpt lat="44.16689" lon="5.01505">
        <ele>281</ele>
        <time>2020-10-25T08:19:33Z</time>
      </trkpt>
      <trkpt lat="44.16698" lon="5.0152">
        <ele>282</ele>
        <time>2020-10-25T08:19:40Z</time>
      </trkpt>
      <trkpt lat="44.1671" lon="5.01544">
        <ele>284</ele>
        <time>2020-10-25T08:19:50Z</time>
      </trkpt>
      <trkpt lat="44.16719" lon="5.01563">
        <ele>285</ele>
        <time>2020-10-25T08:19:59Z</time>
      </trkpt>
      <trkpt lat="44.1672" lon="5.01566">
        <ele>285</ele>
        <time>2020-10-25T08:20:00Z</time>
      </trkpt>
      <trkpt lat="44.16733" lon="5.01591">
        <ele>286</ele>
        <time>2020-10-25T08:20:10Z</time>
      </trkpt>
      <trkpt lat="44.16748" lon="5.01621">
        <ele>288</ele>
        <time>2020-10-25T08:20:21Z</time>
      </trkpt>
      <trkpt lat="44.16756" lon="5.01649">
        <ele>289</ele>
        <time>2020-10-25T08:20:30Z</time>
      </trkpt>
      <trkpt lat="44.16768" lon="5.01671">
        <ele>291</ele>
        <time>2020-10-25T08:20:39Z</time>
      </trkpt>
      <trkpt lat="44.16779" lon="5.01684">
        <ele>293</ele>
        <time>2020-10-25T08:20:46Z</time>
      </trkpt>
      <trkpt lat="44.16792" lon="5.01718">
        <ele>297</ele>
        <time>2020-10-25T08:20:58Z</time>
      </trkpt>
      <trkpt lat="44.16795" lon="5.01761">
        <ele>297</ele>
        <time>2020-10-25T08:21:10Z</time>
      </trkpt>
      <trkpt lat="44.16798" lon="5.01785">
        <ele>300</ele>
        <time>2020-10-25T08:21:19Z</time>
      </trkpt>
      <trkpt lat="44.16805" lon="5.01808">
        <ele>303</ele>
        <time>2020-10-25T08:21:27Z</time>
      </trkpt>
      <trkpt lat="44.16809" lon="5.01817">
        <ele>305</ele>
        <time>2020-10-25T08:21:31Z</time>
      </trkpt>
      <trkpt lat="44.16811" lon="5.01833">
        <ele>308</ele>
        <time>2020-10-25T08:21:37Z</time>
      </trkpt>
      <trkpt lat="44.16809" lon="5.01853">
        <ele>309</ele>
        <time>2020-10-25T08:21:45Z</time>
      </trkpt>
      <trkpt lat="44.16813" lon="5.01883">
        <ele>310</ele>
        <time>2020-10-25T08:21:56Z</time>
      </trkpt>
      <trkpt lat="44.16815" lon="5.0191">
        <ele>312</ele>
        <time>2020-10-25T08:22:06Z</time>
      </trkpt>
      <trkpt lat="44.16807" lon="5.01942">
        <ele>316</ele>
        <time>2020-10-25T08:22:17Z</time>
      </trkpt>
      <trkpt lat="44.16795" lon="5.01973">
        <ele>318</ele>
        <time>2020-10-25T08:22:27Z</time>
      </trkpt>
      <trkpt lat="44.16787" lon="5.0201">
        <ele>318</ele>
        <time>2020-10-25T08:22:37Z</time>
      </trkpt>
      <trkpt lat="44.16783" lon="5.02043">
        <ele>316</ele>
        <time>2020-10-25T08:22:46Z</time>
      </trkpt>
      <trkpt lat="44.1678" lon="5.02071">
        <ele>315</ele>
        <time>2020-10-25T08:22:54Z</time>
      </trkpt>
      <trkpt lat="44.16779" lon="5.02099">
        <ele>316</ele>
        <time>2020-10-25T08:23:03Z</time>
      </trkpt>
      <trkpt lat="44.16778" lon="5.0213">
        <ele>319</ele>
        <time>2020-10-25T08:23:12Z</time>
      </trkpt>
      <trkpt lat="44.16777" lon="5.02158">
        <ele>321</ele>
        <time>2020-10-25T08:23:21Z</time>
      </trkpt>
      <trkpt lat="44.16777" lon="5.02182">
        <ele>322</ele>
        <time>2020-10-25T08:23:28Z</time>
      </trkpt>
      <trkpt lat="44.16776" lon="5.02186">
        <ele>323</ele>
        <time>2020-10-25T08:23:29Z</time>
      </trkpt>
      <trkpt lat="44.16776" lon="5.02192">
        <ele>323</ele>
        <time>2020-10-25T08:23:31Z</time>
      </trkpt>
      <trkpt lat="44.16776" lon="5.02195">
        <ele>324</ele>
        <time>2020-10-25T08:23:32Z</time>
      </trkpt>
      <trkpt lat="44.16769" lon="5.02218">
        <ele>327</ele>
        <time>2020-10-25T08:23:40Z</time>
      </trkpt>
      <trkpt lat="44.16768" lon="5.0222">
        <ele>328</ele>
        <time>2020-10-25T08:23:41Z</time>
      </trkpt>
      <trkpt lat="44.16767" lon="5.02223">
        <ele>328</ele>
        <time>2020-10-25T08:23:42Z</time>
      </trkpt>
      <trkpt lat="44.16763" lon="5.02239">
        <ele>330</ele>
        <time>2020-10-25T08:23:48Z</time>
      </trkpt>
      <trkpt lat="44.16763" lon="5.02242">
        <ele>330</ele>
        <time>2020-10-25T08:23:49Z</time>
      </trkpt>
      <trkpt lat="44.16764" lon="5.02265">
        <ele>330</ele>
        <time>2020-10-25T08:23:58Z</time>
      </trkpt>
      <trkpt lat="44.16762" lon="5.02284">
        <ele>331</ele>
        <time>2020-10-25T08:24:07Z</time>
      </trkpt>
      <trkpt lat="44.16761" lon="5.02287">
        <ele>332</ele>
        <time>2020-10-25T08:24:08Z</time>
      </trkpt>
      <trkpt lat="44.1676" lon="5.02289">
        <ele>332</ele>
        <time>2020-10-25T08:24:09Z</time>
      </trkpt>
      <trkpt lat="44.16759" lon="5.02291">
        <ele>332</ele>
        <time>2020-10-25T08:24:10Z</time>
      </trkpt>
      <trkpt lat="44.16758" lon="5.02293">
        <ele>333</ele>
        <time>2020-10-25T08:24:11Z</time>
      </trkpt>
      <trkpt lat="44.16757" lon="5.02296">
        <ele>333</ele>
        <time>2020-10-25T08:24:12Z</time>
      </trkpt>
      <trkpt lat="44.16756" lon="5.02298">
        <ele>334</ele>
        <time>2020-10-25T08:24:13Z</time>
      </trkpt>
      <trkpt lat="44.16758" lon="5.02323">
        <ele>335</ele>
        <time>2020-10-25T08:24:22Z</time>
      </trkpt>
      <trkpt lat="44.16767" lon="5.02354">
        <ele>338</ele>
        <time>2020-10-25T08:24:33Z</time>
      </trkpt>
      <trkpt lat="44.16772" lon="5.02389">
        <ele>342</ele>
        <time>2020-10-25T08:24:45Z</time>
      </trkpt>
      <trkpt lat="44.16779" lon="5.02423">
        <ele>343</ele>
        <time>2020-10-25T08:24:57Z</time>
      </trkpt>
      <trkpt lat="44.16787" lon="5.02458">
        <ele>345</ele>
        <time>2020-10-25T08:25:09Z</time>
      </trkpt>
      <trkpt lat="44.16786" lon="5.0249">
        <ele>350</ele>
        <time>2020-10-25T08:25:20Z</time>
      </trkpt>
      <trkpt lat="44.16773" lon="5.02521">
        <ele>357</ele>
        <time>2020-10-25T08:25:32Z</time>
      </trkpt>
      <trkpt lat="44.16762" lon="5.02546">
        <ele>359</ele>
        <time>2020-10-25T08:25:41Z</time>
      </trkpt>
      <trkpt lat="44.1675" lon="5.02555">
        <ele>364</ele>
        <time>2020-10-25T08:25:49Z</time>
      </trkpt>
      <trkpt lat="44.16748" lon="5.02556">
        <ele>364</ele>
        <time>2020-10-25T08:25:50Z</time>
      </trkpt>
      <trkpt lat="44.16738" lon="5.02569">
        <ele>365</ele>
        <time>2020-10-25T08:25:57Z</time>
      </trkpt>
      <trkpt lat="44.16732" lon="5.02593">
        <ele>365</ele>
        <time>2020-10-25T08:26:07Z</time>
      </trkpt>
      <trkpt lat="44.16743" lon="5.02616">
        <ele>363</ele>
        <time>2020-10-25T08:26:17Z</time>
      </trkpt>
      <trkpt lat="44.16759" lon="5.02643">
        <ele>364</ele>
        <time>2020-10-25T08:26:28Z</time>
      </trkpt>
      <trkpt lat="44.16762" lon="5.02669">
        <ele>366</ele>
        <time>2020-10-25T08:26:37Z</time>
      </trkpt>
      <trkpt lat="44.16767" lon="5.02698">
        <ele>367</ele>
        <time>2020-10-25T08:26:46Z</time>
      </trkpt>
      <trkpt lat="44.1677" lon="5.02722">
        <ele>367</ele>
        <time>2020-10-25T08:26:55Z</time>
      </trkpt>
      <trkpt lat="44.16776" lon="5.02758">
        <ele>369</ele>
        <time>2020-10-25T08:27:05Z</time>
      </trkpt>
      <trkpt lat="44.16778" lon="5.02787">
        <ele>372</ele>
        <time>2020-10-25T08:27:15Z</time>
      </trkpt>
      <trkpt lat="44.16783" lon="5.02826">
        <ele>375</ele>
        <time>2020-10-25T08:27:27Z</time>
      </trkpt>
      <trkpt lat="44.16785" lon="5.02858">
        <ele>378</ele>
        <time>2020-10-25T08:27:39Z</time>
      </trkpt>
      <trkpt lat="44.16786" lon="5.02861">
        <ele>378</ele>
        <time>2020-10-25T08:27:40Z</time>
      </trkpt>
      <trkpt lat="44.16787" lon="5.02864">
        <ele>378</ele>
        <time>2020-10-25T08:27:41Z</time>
      </trkpt>
      <trkpt lat="44.16788" lon="5.02867">
        <ele>378</ele>
        <time>2020-10-25T08:27:42Z</time>
      </trkpt>
      <trkpt lat="44.16789" lon="5.0287">
        <ele>378</ele>
        <time>2020-10-25T08:27:43Z</time>
      </trkpt>
      <trkpt lat="44.16794" lon="5.02885">
        <ele>379</ele>
        <time>2020-10-25T08:27:47Z</time>
      </trkpt>
      <trkpt lat="44.16797" lon="5.02902">
        <ele>381</ele>
        <time>2020-10-25T08:27:55Z</time>
      </trkpt>
      <trkpt lat="44.16803" lon="5.02919">
        <ele>383</ele>
        <time>2020-10-25T08:28:01Z</time>
      </trkpt>
      <trkpt lat="44.16803" lon="5.02921">
        <ele>383</ele>
        <time>2020-10-25T08:28:02Z</time>
      </trkpt>
      <trkpt lat="44.16806" lon="5.02947">
        <ele>386</ele>
        <time>2020-10-25T08:28:12Z</time>
      </trkpt>
      <trkpt lat="44.16811" lon="5.02979">
        <ele>390</ele>
        <time>2020-10-25T08:28:22Z</time>
      </trkpt>
      <trkpt lat="44.16818" lon="5.03006">
        <ele>393</ele>
        <time>2020-10-25T08:28:32Z</time>
      </trkpt>
      <trkpt lat="44.16828" lon="5.03029">
        <ele>396</ele>
        <time>2020-10-25T08:28:41Z</time>
      </trkpt>
      <trkpt lat="44.16841" lon="5.03052">
        <ele>401</ele>
        <time>2020-10-25T08:28:51Z</time>
      </trkpt>
      <trkpt lat="44.16842" lon="5.03054">
        <ele>401</ele>
        <time>2020-10-25T08:28:52Z</time>
      </trkpt>
      <trkpt lat="44.16843" lon="5.03064">
        <ele>403</ele>
        <time>2020-10-25T08:28:58Z</time>
      </trkpt>
      <trkpt lat="44.16843" lon="5.03066">
        <ele>403</ele>
        <time>2020-10-25T08:28:59Z</time>
      </trkpt>
      <trkpt lat="44.16846" lon="5.0308">
        <ele>405</ele>
        <time>2020-10-25T08:29:08Z</time>
      </trkpt>
      <trkpt lat="44.16849" lon="5.03091">
        <ele>407</ele>
        <time>2020-10-25T08:29:15Z</time>
      </trkpt>
      <trkpt lat="44.16849" lon="5.03093">
        <ele>407</ele>
        <time>2020-10-25T08:29:16Z</time>
      </trkpt>
      <trkpt lat="44.1685" lon="5.03095">
        <ele>408</ele>
        <time>2020-10-25T08:29:17Z</time>
      </trkpt>
      <trkpt lat="44.16851" lon="5.03099">
        <ele>409</ele>
        <time>2020-10-25T08:29:18Z</time>
      </trkpt>
      <trkpt lat="44.16852" lon="5.03102">
        <ele>409</ele>
        <time>2020-10-25T08:29:19Z</time>
      </trkpt>
      <trkpt lat="44.16853" lon="5.03104">
        <ele>409</ele>
        <time>2020-10-25T08:29:20Z</time>
      </trkpt>
      <trkpt lat="44.16854" lon="5.03107">
        <ele>410</ele>
        <time>2020-10-25T08:29:21Z</time>
      </trkpt>
      <trkpt lat="44.16855" lon="5.0311">
        <ele>410</ele>
        <time>2020-10-25T08:29:22Z</time>
      </trkpt>
      <trkpt lat="44.16855" lon="5.03112">
        <ele>411</ele>
        <time>2020-10-25T08:29:23Z</time>
      </trkpt>
      <trkpt lat="44.16858" lon="5.03121">
        <ele>412</ele>
        <time>2020-10-25T08:29:27Z</time>
      </trkpt>
      <trkpt lat="44.16859" lon="5.03123">
        <ele>413</ele>
        <time>2020-10-25T08:29:28Z</time>
      </trkpt>
      <trkpt lat="44.1686" lon="5.03126">
        <ele>413</ele>
        <time>2020-10-25T08:29:29Z</time>
      </trkpt>
      <trkpt lat="44.1686" lon="5.03128">
        <ele>413</ele>
        <time>2020-10-25T08:29:30Z</time>
      </trkpt>
      <trkpt lat="44.16861" lon="5.0313">
        <ele>414</ele>
        <time>2020-10-25T08:29:31Z</time>
      </trkpt>
      <trkpt lat="44.16868" lon="5.0315">
        <ele>416</ele>
        <time>2020-10-25T08:29:42Z</time>
      </trkpt>
      <trkpt lat="44.16875" lon="5.03168">
        <ele>418</ele>
        <time>2020-10-25T08:29:51Z</time>
      </trkpt>
      <trkpt lat="44.16875" lon="5.0317">
        <ele>418</ele>
        <time>2020-10-25T08:29:52Z</time>
      </trkpt>
      <trkpt lat="44.16878" lon="5.03178">
        <ele>419</ele>
        <time>2020-10-25T08:29:55Z</time>
      </trkpt>
      <trkpt lat="44.16878" lon="5.0318">
        <ele>419</ele>
        <time>2020-10-25T08:29:56Z</time>
      </trkpt>
      <trkpt lat="44.16879" lon="5.03193">
        <ele>420</ele>
        <time>2020-10-25T08:30:05Z</time>
      </trkpt>
      <trkpt lat="44.16881" lon="5.0321">
        <ele>422</ele>
        <time>2020-10-25T08:30:13Z</time>
      </trkpt>
      <trkpt lat="44.16889" lon="5.03236">
        <ele>424</ele>
        <time>2020-10-25T08:30:22Z</time>
      </trkpt>
      <trkpt lat="44.16899" lon="5.03263">
        <ele>424</ele>
        <time>2020-10-25T08:30:31Z</time>
      </trkpt>
      <trkpt lat="44.16904" lon="5.03287">
        <ele>425</ele>
        <time>2020-10-25T08:30:39Z</time>
      </trkpt>
      <trkpt lat="44.1691" lon="5.03314">
        <ele>427</ele>
        <time>2020-10-25T08:30:48Z</time>
      </trkpt>
      <trkpt lat="44.16922" lon="5.03344">
        <ele>427</ele>
        <time>2020-10-25T08:30:58Z</time>
      </trkpt>
      <trkpt lat="44.16937" lon="5.03374">
        <ele>430</ele>
        <time>2020-10-25T08:31:09Z</time>
      </trkpt>
      <trkpt lat="44.16953" lon="5.03397">
        <ele>432</ele>
        <time>2020-10-25T08:31:17Z</time>
      </trkpt>
      <trkpt lat="44.16955" lon="5.03399">
        <ele>432</ele>
        <time>2020-10-25T08:31:18Z</time>
      </trkpt>
      <trkpt lat="44.16974" lon="5.0341">
        <ele>431</ele>
        <time>2020-10-25T08:31:27Z</time>
      </trkpt>
      <trkpt lat="44.1699" lon="5.03424">
        <ele>433</ele>
        <time>2020-10-25T08:31:36Z</time>
      </trkpt>
      <trkpt lat="44.17009" lon="5.03452">
        <ele>439</ele>
        <time>2020-10-25T08:31:48Z</time>
      </trkpt>
      <trkpt lat="44.17013" lon="5.03456">
        <ele>440</ele>
        <time>2020-10-25T08:31:50Z</time>
      </trkpt>
      <trkpt lat="44.17026" lon="5.03467">
        <ele>442</ele>
        <time>2020-10-25T08:31:56Z</time>
      </trkpt>
      <trkpt lat="44.17028" lon="5.0347">
        <ele>442</ele>
        <time>2020-10-25T08:31:57Z</time>
      </trkpt>
      <trkpt lat="44.1703" lon="5.03472">
        <ele>442</ele>
        <time>2020-10-25T08:31:58Z</time>
      </trkpt>
      <trkpt lat="44.17046" lon="5.03486">
        <ele>444</ele>
        <time>2020-10-25T08:32:07Z</time>
      </trkpt>
      <trkpt lat="44.17065" lon="5.03497">
        <ele>446</ele>
        <time>2020-10-25T08:32:15Z</time>
      </trkpt>
      <trkpt lat="44.17079" lon="5.03514">
        <ele>452</ele>
        <time>2020-10-25T08:32:24Z</time>
      </trkpt>
      <trkpt lat="44.17083" lon="5.03516">
        <ele>452</ele>
        <time>2020-10-25T08:32:27Z</time>
      </trkpt>
      <trkpt lat="44.17085" lon="5.03516">
        <ele>452</ele>
        <time>2020-10-25T08:32:28Z</time>
      </trkpt>
      <trkpt lat="44.1711" lon="5.03522">
        <ele>453</ele>
        <time>2020-10-25T08:32:38Z</time>
      </trkpt>
      <trkpt lat="44.17128" lon="5.0353">
        <ele>455</ele>
        <time>2020-10-25T08:32:47Z</time>
      </trkpt>
      <trkpt lat="44.1714" lon="5.03538">
        <ele>457</ele>
        <time>2020-10-25T08:32:56Z</time>
      </trkpt>
      <trkpt lat="44.17154" lon="5.03545">
        <ele>458</ele>
        <time>2020-10-25T08:33:04Z</time>
      </trkpt>
      <trkpt lat="44.17174" lon="5.03555">
        <ele>459</ele>
        <time>2020-10-25T08:33:15Z</time>
      </trkpt>
      <trkpt lat="44.17175" lon="5.03555">
        <ele>459</ele>
        <time>2020-10-25T08:33:16Z</time>
      </trkpt>
      <trkpt lat="44.17194" lon="5.03566">
        <ele>461</ele>
        <time>2020-10-25T08:33:26Z</time>
      </trkpt>
      <trkpt lat="44.17203" lon="5.03578">
        <ele>464</ele>
        <time>2020-10-25T08:33:32Z</time>
      </trkpt>
      <trkpt lat="44.17204" lon="5.03579">
        <ele>465</ele>
        <time>2020-10-25T08:33:33Z</time>
      </trkpt>
      <trkpt lat="44.17205" lon="5.03581">
        <ele>465</ele>
        <time>2020-10-25T08:33:34Z</time>
      </trkpt>
      <trkpt lat="44.1721" lon="5.03589">
        <ele>467</ele>
        <time>2020-10-25T08:33:38Z</time>
      </trkpt>
      <trkpt lat="44.17212" lon="5.0359">
        <ele>468</ele>
        <time>2020-10-25T08:33:39Z</time>
      </trkpt>
      <trkpt lat="44.17213" lon="5.03592">
        <ele>468</ele>
        <time>2020-10-25T08:33:40Z</time>
      </trkpt>
      <trkpt lat="44.17214" lon="5.03594">
        <ele>469</ele>
        <time>2020-10-25T08:33:41Z</time>
      </trkpt>
      <trkpt lat="44.17215" lon="5.03596">
        <ele>469</ele>
        <time>2020-10-25T08:33:42Z</time>
      </trkpt>
      <trkpt lat="44.17216" lon="5.03597">
        <ele>469</ele>
        <time>2020-10-25T08:33:43Z</time>
      </trkpt>
      <trkpt lat="44.17217" lon="5.03599">
        <ele>470</ele>
        <time>2020-10-25T08:33:44Z</time>
      </trkpt>
      <trkpt lat="44.17228" lon="5.03612">
        <ele>472</ele>
        <time>2020-10-25T08:33:51Z</time>
      </trkpt>
      <trkpt lat="44.1723" lon="5.03613">
        <ele>472</ele>
        <time>2020-10-25T08:33:52Z</time>
      </trkpt>
      <trkpt lat="44.17232" lon="5.03615">
        <ele>472</ele>
        <time>2020-10-25T08:33:53Z</time>
      </trkpt>
      <trkpt lat="44.17234" lon="5.03616">
        <ele>472</ele>
        <time>2020-10-25T08:33:54Z</time>
      </trkpt>
      <trkpt lat="44.17236" lon="5.03618">
        <ele>472</ele>
        <time>2020-10-25T08:33:55Z</time>
      </trkpt>
      <trkpt lat="44.17239" lon="5.03619">
        <ele>472</ele>
        <time>2020-10-25T08:33:56Z</time>
      </trkpt>
      <trkpt lat="44.17241" lon="5.03621">
        <ele>472</ele>
        <time>2020-10-25T08:33:57Z</time>
      </trkpt>
      <trkpt lat="44.17243" lon="5.03623">
        <ele>472</ele>
        <time>2020-10-25T08:33:58Z</time>
      </trkpt>
      <trkpt lat="44.17244" lon="5.03625">
        <ele>473</ele>
        <time>2020-10-25T08:33:59Z</time>
      </trkpt>
      <trkpt lat="44.17246" lon="5.03626">
        <ele>473</ele>
        <time>2020-10-25T08:34:00Z</time>
      </trkpt>
      <trkpt lat="44.17248" lon="5.03628">
        <ele>473</ele>
        <time>2020-10-25T08:34:01Z</time>
      </trkpt>
      <trkpt lat="44.17249" lon="5.0363">
        <ele>473</ele>
        <time>2020-10-25T08:34:02Z</time>
      </trkpt>
      <trkpt lat="44.17251" lon="5.03631">
        <ele>473</ele>
        <time>2020-10-25T08:34:03Z</time>
      </trkpt>
      <trkpt lat="44.17253" lon="5.03633">
        <ele>473</ele>
        <time>2020-10-25T08:34:04Z</time>
      </trkpt>
      <trkpt lat="44.17256" lon="5.03636">
        <ele>474</ele>
        <time>2020-10-25T08:34:06Z</time>
      </trkpt>
      <trkpt lat="44.17258" lon="5.03637">
        <ele>474</ele>
        <time>2020-10-25T08:34:07Z</time>
      </trkpt>
      <trkpt lat="44.17259" lon="5.03639">
        <ele>474</ele>
        <time>2020-10-25T08:34:08Z</time>
      </trkpt>
      <trkpt lat="44.17261" lon="5.03641">
        <ele>474</ele>
        <time>2020-10-25T08:34:09Z</time>
      </trkpt>
      <trkpt lat="44.17262" lon="5.03642">
        <ele>474</ele>
        <time>2020-10-25T08:34:10Z</time>
      </trkpt>
      <trkpt lat="44.17264" lon="5.03643">
        <ele>474</ele>
        <time>2020-10-25T08:34:11Z</time>
      </trkpt>
      <trkpt lat="44.17265" lon="5.03645">
        <ele>473</ele>
        <time>2020-10-25T08:34:12Z</time>
      </trkpt>
      <trkpt lat="44.17284" lon="5.03662">
        <ele>473</ele>
        <time>2020-10-25T08:34:22Z</time>
      </trkpt>
      <trkpt lat="44.17307" lon="5.03676">
        <ele>473</ele>
        <time>2020-10-25T08:34:32Z</time>
      </trkpt>
      <trkpt lat="44.17325" lon="5.03684">
        <ele>472</ele>
        <time>2020-10-25T08:34:40Z</time>
      </trkpt>
      <trkpt lat="44.1735" lon="5.03693">
        <ele>471</ele>
        <time>2020-10-25T08:34:49Z</time>
      </trkpt>
      <trkpt lat="44.17371" lon="5.03704">
        <ele>471</ele>
        <time>2020-10-25T08:34:57Z</time>
      </trkpt>
      <trkpt lat="44.17395" lon="5.03713">
        <ele>473</ele>
        <time>2020-10-25T08:35:07Z</time>
      </trkpt>
      <trkpt lat="44.17416" lon="5.03715">
        <ele>474</ele>
        <time>2020-10-25T08:35:15Z</time>
      </trkpt>
      <trkpt lat="44.17421" lon="5.03714">
        <ele>474</ele>
        <time>2020-10-25T08:35:17Z</time>
      </trkpt>
      <trkpt lat="44.17423" lon="5.03713">
        <ele>474</ele>
        <time>2020-10-25T08:35:18Z</time>
      </trkpt>
      <trkpt lat="44.17426" lon="5.03713">
        <ele>473</ele>
        <time>2020-10-25T08:35:19Z</time>
      </trkpt>
      <trkpt lat="44.17451" lon="5.03711">
        <ele>470</ele>
        <time>2020-10-25T08:35:28Z</time>
      </trkpt>
      <trkpt lat="44.17463" lon="5.03734">
        <ele>467</ele>
        <time>2020-10-25T08:35:37Z</time>
      </trkpt>
      <trkpt lat="44.17469" lon="5.03771">
        <ele>465</ele>
        <time>2020-10-25T08:35:50Z</time>
      </trkpt>
      <trkpt lat="44.17489" lon="5.03814">
        <ele>464</ele>
        <time>2020-10-25T08:36:02Z</time>
      </trkpt>
      <trkpt lat="44.17492" lon="5.0382">
        <ele>465</ele>
        <time>2020-10-25T08:36:08Z</time>
      </trkpt>
      <trkpt lat="44.17494" lon="5.03822">
        <ele>465</ele>
        <time>2020-10-25T08:36:09Z</time>
      </trkpt>
      <trkpt lat="44.17496" lon="5.03824">
        <ele>465</ele>
        <time>2020-10-25T08:36:10Z</time>
      </trkpt>
      <trkpt lat="44.17498" lon="5.03826">
        <ele>465</ele>
        <time>2020-10-25T08:36:11Z</time>
      </trkpt>
      <trkpt lat="44.175" lon="5.03827">
        <ele>465</ele>
        <time>2020-10-25T08:36:12Z</time>
      </trkpt>
      <trkpt lat="44.17502" lon="5.03829">
        <ele>465</ele>
        <time>2020-10-25T08:36:13Z</time>
      </trkpt>
      <trkpt lat="44.17513" lon="5.03853">
        <ele>466</ele>
        <time>2020-10-25T08:36:23Z</time>
      </trkpt>
      <trkpt lat="44.17517" lon="5.03881">
        <ele>466</ele>
        <time>2020-10-25T08:36:33Z</time>
      </trkpt>
      <trkpt lat="44.17533" lon="5.03914">
        <ele>458</ele>
        <time>2020-10-25T08:36:43Z</time>
      </trkpt>
      <trkpt lat="44.1755" lon="5.03956">
        <ele>455</ele>
        <time>2020-10-25T08:36:55Z</time>
      </trkpt>
      <trkpt lat="44.17559" lon="5.03978">
        <ele>457</ele>
        <time>2020-10-25T08:37:02Z</time>
      </trkpt>
      <trkpt lat="44.1756" lon="5.0398">
        <ele>457</ele>
        <time>2020-10-25T08:37:03Z</time>
      </trkpt>
      <trkpt lat="44.17571" lon="5.0401">
        <ele>459</ele>
        <time>2020-10-25T08:37:15Z</time>
      </trkpt>
      <trkpt lat="44.17573" lon="5.04019">
        <ele>460</ele>
        <time>2020-10-25T08:37:18Z</time>
      </trkpt>
      <trkpt lat="44.17589" lon="5.04051">
        <ele>460</ele>
        <time>2020-10-25T08:37:28Z</time>
      </trkpt>
      <trkpt lat="44.17609" lon="5.04078">
        <ele>457</ele>
        <time>2020-10-25T08:37:38Z</time>
      </trkpt>
      <trkpt lat="44.17622" lon="5.04097">
        <ele>455</ele>
        <time>2020-10-25T08:37:44Z</time>
      </trkpt>
      <trkpt lat="44.17645" lon="5.04132">
        <ele>457</ele>
        <time>2020-10-25T08:37:54Z</time>
      </trkpt>
      <trkpt lat="44.17661" lon="5.04156">
        <ele>459</ele>
        <time>2020-10-25T08:38:03Z</time>
      </trkpt>
      <trkpt lat="44.17673" lon="5.04173">
        <ele>460</ele>
        <time>2020-10-25T08:38:12Z</time>
      </trkpt>
      <trkpt lat="44.17675" lon="5.04174">
        <ele>460</ele>
        <time>2020-10-25T08:38:13Z</time>
      </trkpt>
      <trkpt lat="44.17677" lon="5.04176">
        <ele>460</ele>
        <time>2020-10-25T08:38:14Z</time>
      </trkpt>
      <trkpt lat="44.17679" lon="5.04177">
        <ele>460</ele>
        <time>2020-10-25T08:38:15Z</time>
      </trkpt>
      <trkpt lat="44.1768" lon="5.04178">
        <ele>459</ele>
        <time>2020-10-25T08:38:16Z</time>
      </trkpt>
      <trkpt lat="44.177" lon="5.04193">
        <ele>458</ele>
        <time>2020-10-25T08:38:25Z</time>
      </trkpt>
      <trkpt lat="44.17707" lon="5.042">
        <ele>458</ele>
        <time>2020-10-25T08:38:28Z</time>
      </trkpt>
      <trkpt lat="44.17709" lon="5.04204">
        <ele>458</ele>
        <time>2020-10-25T08:38:29Z</time>
      </trkpt>
      <trkpt lat="44.1771" lon="5.04206">
        <ele>458</ele>
        <time>2020-10-25T08:38:30Z</time>
      </trkpt>
      <trkpt lat="44.17732" lon="5.04249">
        <ele>462</ele>
        <time>2020-10-25T08:38:43Z</time>
      </trkpt>
      <trkpt lat="44.17745" lon="5.04277">
        <ele>464</ele>
        <time>2020-10-25T08:38:52Z</time>
      </trkpt>
      <trkpt lat="44.1776" lon="5.04312">
        <ele>465</ele>
        <time>2020-10-25T08:39:03Z</time>
      </trkpt>
      <trkpt lat="44.17776" lon="5.04358">
        <ele>470</ele>
        <time>2020-10-25T08:39:16Z</time>
      </trkpt>
      <trkpt lat="44.1778" lon="5.04378">
        <ele>470</ele>
        <time>2020-10-25T08:39:21Z</time>
      </trkpt>
      <trkpt lat="44.17784" lon="5.0442">
        <ele>470</ele>
        <time>2020-10-25T08:39:31Z</time>
      </trkpt>
      <trkpt lat="44.17792" lon="5.04461">
        <ele>464</ele>
        <time>2020-10-25T08:39:43Z</time>
      </trkpt>
      <trkpt lat="44.17792" lon="5.04474">
        <ele>464</ele>
        <time>2020-10-25T08:39:47Z</time>
      </trkpt>
      <trkpt lat="44.17787" lon="5.04494">
        <ele>465</ele>
        <time>2020-10-25T08:39:54Z</time>
      </trkpt>
      <trkpt lat="44.17781" lon="5.04519">
        <ele>467</ele>
        <time>2020-10-25T08:40:04Z</time>
      </trkpt>
      <trkpt lat="44.17775" lon="5.04537">
        <ele>471</ele>
        <time>2020-10-25T08:40:13Z</time>
      </trkpt>
      <trkpt lat="44.17771" lon="5.0456">
        <ele>474</ele>
        <time>2020-10-25T08:40:23Z</time>
      </trkpt>
      <trkpt lat="44.17768" lon="5.0458">
        <ele>477</ele>
        <time>2020-10-25T08:40:31Z</time>
      </trkpt>
      <trkpt lat="44.17764" lon="5.04603">
        <ele>480</ele>
        <time>2020-10-25T08:40:42Z</time>
      </trkpt>
      <trkpt lat="44.17763" lon="5.04629">
        <ele>482</ele>
        <time>2020-10-25T08:40:53Z</time>
      </trkpt>
      <trkpt lat="44.17764" lon="5.04662">
        <ele>485</ele>
        <time>2020-10-25T08:41:05Z</time>
      </trkpt>
      <trkpt lat="44.17772" lon="5.04696">
        <ele>483</ele>
        <time>2020-10-25T08:41:17Z</time>
      </trkpt>
      <trkpt lat="44.17779" lon="5.04732">
        <ele>484</ele>
        <time>2020-10-25T08:41:30Z</time>
      </trkpt>
      <trkpt lat="44.17771" lon="5.04768">
        <ele>489</ele>
        <time>2020-10-25T08:41:41Z</time>
      </trkpt>
      <trkpt lat="44.17763" lon="5.04801">
        <ele>491</ele>
        <time>2020-10-25T08:41:52Z</time>
      </trkpt>
      <trkpt lat="44.17768" lon="5.04836">
        <ele>479</ele>
        <time>2020-10-25T08:42:02Z</time>
      </trkpt>
      <trkpt lat="44.17758" lon="5.04867">
        <ele>484</ele>
        <time>2020-10-25T08:42:11Z</time>
      </trkpt>
      <trkpt lat="44.17753" lon="5.04884">
        <ele>487</ele>
        <time>2020-10-25T08:42:16Z</time>
      </trkpt>
      <trkpt lat="44.17751" lon="5.04889">
        <ele>489</ele>
        <time>2020-10-25T08:42:17Z</time>
      </trkpt>
      <trkpt lat="44.17746" lon="5.04895">
        <ele>490</ele>
        <time>2020-10-25T08:42:20Z</time>
      </trkpt>
      <trkpt lat="44.17744" lon="5.04895">
        <ele>490</ele>
        <time>2020-10-25T08:42:21Z</time>
      </trkpt>
      <trkpt lat="44.17742" lon="5.04896">
        <ele>491</ele>
        <time>2020-10-25T08:42:22Z</time>
      </trkpt>
      <trkpt lat="44.17737" lon="5.04899">
        <ele>492</ele>
        <time>2020-10-25T08:42:24Z</time>
      </trkpt>
      <trkpt lat="44.1773" lon="5.04902">
        <ele>493</ele>
        <time>2020-10-25T08:42:27Z</time>
      </trkpt>
      <trkpt lat="44.17727" lon="5.04904">
        <ele>493</ele>
        <time>2020-10-25T08:42:28Z</time>
      </trkpt>
      <trkpt lat="44.17721" lon="5.0491">
        <ele>492</ele>
        <time>2020-10-25T08:42:30Z</time>
      </trkpt>
      <trkpt lat="44.17717" lon="5.04914">
        <ele>491</ele>
        <time>2020-10-25T08:42:32Z</time>
      </trkpt>
      <trkpt lat="44.17715" lon="5.04918">
        <ele>489</ele>
        <time>2020-10-25T08:42:33Z</time>
      </trkpt>
      <trkpt lat="44.17706" lon="5.04924">
        <ele>486</ele>
        <time>2020-10-25T08:42:37Z</time>
      </trkpt>
      <trkpt lat="44.17704" lon="5.04925">
        <ele>486</ele>
        <time>2020-10-25T08:42:38Z</time>
      </trkpt>
      <trkpt lat="44.17702" lon="5.04927">
        <ele>485</ele>
        <time>2020-10-25T08:42:39Z</time>
      </trkpt>
      <trkpt lat="44.17699" lon="5.04929">
        <ele>484</ele>
        <time>2020-10-25T08:42:40Z</time>
      </trkpt>
      <trkpt lat="44.17683" lon="5.04932">
        <ele>482</ele>
        <time>2020-10-25T08:42:47Z</time>
      </trkpt>
      <trkpt lat="44.17681" lon="5.04933">
        <ele>482</ele>
        <time>2020-10-25T08:42:48Z</time>
      </trkpt>
      <trkpt lat="44.17679" lon="5.04934">
        <ele>481</ele>
        <time>2020-10-25T08:42:49Z</time>
      </trkpt>
      <trkpt lat="44.17676" lon="5.04936">
        <ele>481</ele>
        <time>2020-10-25T08:42:50Z</time>
      </trkpt>
      <trkpt lat="44.17671" lon="5.04943">
        <ele>479</ele>
        <time>2020-10-25T08:42:53Z</time>
      </trkpt>
      <trkpt lat="44.17669" lon="5.04947">
        <ele>478</ele>
        <time>2020-10-25T08:42:54Z</time>
      </trkpt>
      <trkpt lat="44.17669" lon="5.04959">
        <ele>475</ele>
        <time>2020-10-25T08:42:58Z</time>
      </trkpt>
      <trkpt lat="44.17669" lon="5.04962">
        <ele>475</ele>
        <time>2020-10-25T08:42:59Z</time>
      </trkpt>
      <trkpt lat="44.1767" lon="5.04965">
        <ele>474</ele>
        <time>2020-10-25T08:43:00Z</time>
      </trkpt>
      <trkpt lat="44.1767" lon="5.04968">
        <ele>473</ele>
        <time>2020-10-25T08:43:01Z</time>
      </trkpt>
      <trkpt lat="44.1767" lon="5.04995">
        <ele>468</ele>
        <time>2020-10-25T08:43:10Z</time>
      </trkpt>
      <trkpt lat="44.17669" lon="5.05003">
        <ele>466</ele>
        <time>2020-10-25T08:43:21Z</time>
      </trkpt>
      <trkpt lat="44.17668" lon="5.05005">
        <ele>466</ele>
        <time>2020-10-25T08:43:42Z</time>
      </trkpt>
      <trkpt lat="44.17666" lon="5.05015">
        <ele>464</ele>
        <time>2020-10-25T08:43:59Z</time>
      </trkpt>
      <trkpt lat="44.17665" lon="5.05029">
        <ele>461</ele>
        <time>2020-10-25T08:44:07Z</time>
      </trkpt>
      <trkpt lat="44.17658" lon="5.05044">
        <ele>461</ele>
        <time>2020-10-25T08:44:18Z</time>
      </trkpt>
      <trkpt lat="44.17656" lon="5.05044">
        <ele>461</ele>
        <time>2020-10-25T08:44:19Z</time>
      </trkpt>
      <trkpt lat="44.17655" lon="5.05043">
        <ele>461</ele>
        <time>2020-10-25T08:44:20Z</time>
      </trkpt>
      <trkpt lat="44.17653" lon="5.05041">
        <ele>462</ele>
        <time>2020-10-25T08:44:21Z</time>
      </trkpt>
      <trkpt lat="44.17651" lon="5.0504">
        <ele>462</ele>
        <time>2020-10-25T08:44:22Z</time>
      </trkpt>
      <trkpt lat="44.17649" lon="5.05039">
        <ele>462</ele>
        <time>2020-10-25T08:44:23Z</time>
      </trkpt>
      <trkpt lat="44.17647" lon="5.05037">
        <ele>462</ele>
        <time>2020-10-25T08:44:24Z</time>
      </trkpt>
      <trkpt lat="44.17644" lon="5.05036">
        <ele>463</ele>
        <time>2020-10-25T08:44:25Z</time>
      </trkpt>
      <trkpt lat="44.17642" lon="5.05034">
        <ele>463</ele>
        <time>2020-10-25T08:44:26Z</time>
      </trkpt>
      <trkpt lat="44.1764" lon="5.05033">
        <ele>463</ele>
        <time>2020-10-25T08:44:27Z</time>
      </trkpt>
      <trkpt lat="44.17638" lon="5.05032">
        <ele>464</ele>
        <time>2020-10-25T08:44:28Z</time>
      </trkpt>
      <trkpt lat="44.17636" lon="5.05031">
        <ele>463</ele>
        <time>2020-10-25T08:44:29Z</time>
      </trkpt>
      <trkpt lat="44.17634" lon="5.0503">
        <ele>463</ele>
        <time>2020-10-25T08:44:30Z</time>
      </trkpt>
      <trkpt lat="44.17627" lon="5.05025">
        <ele>463</ele>
        <time>2020-10-25T08:44:33Z</time>
      </trkpt>
      <trkpt lat="44.17606" lon="5.05015">
        <ele>462</ele>
        <time>2020-10-25T08:44:41Z</time>
      </trkpt>
      <trkpt lat="44.17581" lon="5.05003">
        <ele>459</ele>
        <time>2020-10-25T08:44:50Z</time>
      </trkpt>
      <trkpt lat="44.17565" lon="5.05001">
        <ele>457</ele>
        <time>2020-10-25T08:44:56Z</time>
      </trkpt>
      <trkpt lat="44.1756" lon="5.05001">
        <ele>457</ele>
        <time>2020-10-25T08:44:58Z</time>
      </trkpt>
      <trkpt lat="44.17556" lon="5.04999">
        <ele>456</ele>
        <time>2020-10-25T08:45:00Z</time>
      </trkpt>
      <trkpt lat="44.17552" lon="5.04999">
        <ele>455</ele>
        <time>2020-10-25T08:45:02Z</time>
      </trkpt>
      <trkpt lat="44.17532" lon="5.04998">
        <ele>450</ele>
        <time>2020-10-25T08:45:11Z</time>
      </trkpt>
      <trkpt lat="44.17518" lon="5.04993">
        <ele>447</ele>
        <time>2020-10-25T08:45:17Z</time>
      </trkpt>
      <trkpt lat="44.17515" lon="5.04991">
        <ele>446</ele>
        <time>2020-10-25T08:45:19Z</time>
      </trkpt>
      <trkpt lat="44.17514" lon="5.04992">
        <ele>446</ele>
        <time>2020-10-25T08:45:20Z</time>
      </trkpt>
      <trkpt lat="44.17513" lon="5.04994">
        <ele>446</ele>
        <time>2020-10-25T08:45:21Z</time>
      </trkpt>
      <trkpt lat="44.17513" lon="5.04997">
        <ele>445</ele>
        <time>2020-10-25T08:45:22Z</time>
      </trkpt>
      <trkpt lat="44.17513" lon="5.04999">
        <ele>445</ele>
        <time>2020-10-25T08:45:23Z</time>
      </trkpt>
      <trkpt lat="44.17514" lon="5.05002">
        <ele>445</ele>
        <time>2020-10-25T08:45:24Z</time>
      </trkpt>
      <trkpt lat="44.17514" lon="5.05006">
        <ele>445</ele>
        <time>2020-10-25T08:45:25Z</time>
      </trkpt>
      <trkpt lat="44.17522" lon="5.05037">
        <ele>445</ele>
        <time>2020-10-25T08:45:36Z</time>
      </trkpt>
      <trkpt lat="44.17524" lon="5.05046">
        <ele>446</ele>
        <time>2020-10-25T08:45:39Z</time>
      </trkpt>
      <trkpt lat="44.17523" lon="5.0505">
        <ele>446</ele>
        <time>2020-10-25T08:45:40Z</time>
      </trkpt>
      <trkpt lat="44.17522" lon="5.05052">
        <ele>446</ele>
        <time>2020-10-25T08:45:41Z</time>
      </trkpt>
      <trkpt lat="44.17519" lon="5.05056">
        <ele>446</ele>
        <time>2020-10-25T08:45:43Z</time>
      </trkpt>
      <trkpt lat="44.17518" lon="5.05058">
        <ele>446</ele>
        <time>2020-10-25T08:45:44Z</time>
      </trkpt>
      <trkpt lat="44.17489" lon="5.05063">
        <ele>443</ele>
        <time>2020-10-25T08:45:57Z</time>
      </trkpt>
      <trkpt lat="44.17486" lon="5.05064">
        <ele>443</ele>
        <time>2020-10-25T08:45:58Z</time>
      </trkpt>
      <trkpt lat="44.17481" lon="5.05067">
        <ele>442</ele>
        <time>2020-10-25T08:46:02Z</time>
      </trkpt>
      <trkpt lat="44.17478" lon="5.05068">
        <ele>442</ele>
        <time>2020-10-25T08:46:03Z</time>
      </trkpt>
      <trkpt lat="44.17476" lon="5.05069">
        <ele>442</ele>
        <time>2020-10-25T08:46:04Z</time>
      </trkpt>
      <trkpt lat="44.17474" lon="5.05072">
        <ele>442</ele>
        <time>2020-10-25T08:46:05Z</time>
      </trkpt>
      <trkpt lat="44.17471" lon="5.05074">
        <ele>442</ele>
        <time>2020-10-25T08:46:06Z</time>
      </trkpt>
      <trkpt lat="44.1745" lon="5.05088">
        <ele>442</ele>
        <time>2020-10-25T08:46:16Z</time>
      </trkpt>
      <trkpt lat="44.17427" lon="5.0509">
        <ele>443</ele>
        <time>2020-10-25T08:46:25Z</time>
      </trkpt>
      <trkpt lat="44.17405" lon="5.05086">
        <ele>444</ele>
        <time>2020-10-25T08:46:34Z</time>
      </trkpt>
      <trkpt lat="44.17384" lon="5.05081">
        <ele>445</ele>
        <time>2020-10-25T08:46:45Z</time>
      </trkpt>
      <trkpt lat="44.17372" lon="5.05082">
        <ele>447</ele>
        <time>2020-10-25T08:46:51Z</time>
      </trkpt>
      <trkpt lat="44.1737" lon="5.05082">
        <ele>447</ele>
        <time>2020-10-25T08:46:52Z</time>
      </trkpt>
      <trkpt lat="44.17368" lon="5.05082">
        <ele>447</ele>
        <time>2020-10-25T08:46:53Z</time>
      </trkpt>
      <trkpt lat="44.17346" lon="5.05082">
        <ele>448</ele>
        <time>2020-10-25T08:47:02Z</time>
      </trkpt>
      <trkpt lat="44.1733" lon="5.05099">
        <ele>449</ele>
        <time>2020-10-25T08:47:11Z</time>
      </trkpt>
      <trkpt lat="44.17309" lon="5.05126">
        <ele>448</ele>
        <time>2020-10-25T08:47:19Z</time>
      </trkpt>
      <trkpt lat="44.17285" lon="5.05142">
        <ele>448</ele>
        <time>2020-10-25T08:47:28Z</time>
      </trkpt>
      <trkpt lat="44.17278" lon="5.05148">
        <ele>448</ele>
        <time>2020-10-25T08:47:31Z</time>
      </trkpt>
      <trkpt lat="44.17266" lon="5.05159">
        <ele>448</ele>
        <time>2020-10-25T08:47:38Z</time>
      </trkpt>
      <trkpt lat="44.17263" lon="5.05157">
        <ele>448</ele>
        <time>2020-10-25T08:47:41Z</time>
      </trkpt>
      <trkpt lat="44.17262" lon="5.05154">
        <ele>447</ele>
        <time>2020-10-25T08:47:43Z</time>
      </trkpt>
      <trkpt lat="44.1726" lon="5.0515">
        <ele>447</ele>
        <time>2020-10-25T08:47:45Z</time>
      </trkpt>
      <trkpt lat="44.17259" lon="5.05149">
        <ele>447</ele>
        <time>2020-10-25T08:47:46Z</time>
      </trkpt>
      <trkpt lat="44.17252" lon="5.05135">
        <ele>445</ele>
        <time>2020-10-25T08:47:53Z</time>
      </trkpt>
      <trkpt lat="44.1724" lon="5.05113">
        <ele>441</ele>
        <time>2020-10-25T08:48:01Z</time>
      </trkpt>
      <trkpt lat="44.17224" lon="5.0508">
        <ele>437</ele>
        <time>2020-10-25T08:48:11Z</time>
      </trkpt>
      <trkpt lat="44.17213" lon="5.05052">
        <ele>434</ele>
        <time>2020-10-25T08:48:22Z</time>
      </trkpt>
      <trkpt lat="44.17195" lon="5.05009">
        <ele>431</ele>
        <time>2020-10-25T08:48:31Z</time>
      </trkpt>
      <trkpt lat="44.17182" lon="5.04976">
        <ele>429</ele>
        <time>2020-10-25T08:48:41Z</time>
      </trkpt>
      <trkpt lat="44.17163" lon="5.04952">
        <ele>427</ele>
        <time>2020-10-25T08:48:51Z</time>
      </trkpt>
      <trkpt lat="44.17136" lon="5.04938">
        <ele>425</ele>
        <time>2020-10-25T08:49:00Z</time>
      </trkpt>
      <trkpt lat="44.17104" lon="5.04929">
        <ele>423</ele>
        <time>2020-10-25T08:49:11Z</time>
      </trkpt>
      <trkpt lat="44.17089" lon="5.04922">
        <ele>424</ele>
        <time>2020-10-25T08:49:17Z</time>
      </trkpt>
      <trkpt lat="44.17088" lon="5.04921">
        <ele>424</ele>
        <time>2020-10-25T08:49:18Z</time>
      </trkpt>
      <trkpt lat="44.17086" lon="5.0492">
        <ele>424</ele>
        <time>2020-10-25T08:49:19Z</time>
      </trkpt>
      <trkpt lat="44.17084" lon="5.0492">
        <ele>425</ele>
        <time>2020-10-25T08:49:20Z</time>
      </trkpt>
      <trkpt lat="44.17082" lon="5.04919">
        <ele>425</ele>
        <time>2020-10-25T08:49:21Z</time>
      </trkpt>
      <trkpt lat="44.1708" lon="5.04919">
        <ele>425</ele>
        <time>2020-10-25T08:49:22Z</time>
      </trkpt>
      <trkpt lat="44.17078" lon="5.04919">
        <ele>425</ele>
        <time>2020-10-25T08:49:23Z</time>
      </trkpt>
      <trkpt lat="44.17076" lon="5.04918">
        <ele>425</ele>
        <time>2020-10-25T08:49:24Z</time>
      </trkpt>
      <trkpt lat="44.17074" lon="5.04918">
        <ele>425</ele>
        <time>2020-10-25T08:49:25Z</time>
      </trkpt>
      <trkpt lat="44.17072" lon="5.04917">
        <ele>425</ele>
        <time>2020-10-25T08:49:26Z</time>
      </trkpt>
      <trkpt lat="44.17069" lon="5.04916">
        <ele>426</ele>
        <time>2020-10-25T08:49:27Z</time>
      </trkpt>
      <trkpt lat="44.17045" lon="5.04907">
        <ele>428</ele>
        <time>2020-10-25T08:49:37Z</time>
      </trkpt>
      <trkpt lat="44.17036" lon="5.04906">
        <ele>429</ele>
        <time>2020-10-25T08:49:41Z</time>
      </trkpt>
      <trkpt lat="44.17034" lon="5.04905">
        <ele>429</ele>
        <time>2020-10-25T08:49:42Z</time>
      </trkpt>
      <trkpt lat="44.17032" lon="5.04905">
        <ele>429</ele>
        <time>2020-10-25T08:49:43Z</time>
      </trkpt>
      <trkpt lat="44.1703" lon="5.04904">
        <ele>429</ele>
        <time>2020-10-25T08:49:44Z</time>
      </trkpt>
      <trkpt lat="44.17028" lon="5.04903">
        <ele>429</ele>
        <time>2020-10-25T08:49:45Z</time>
      </trkpt>
      <trkpt lat="44.17026" lon="5.04903">
        <ele>430</ele>
        <time>2020-10-25T08:49:46Z</time>
      </trkpt>
      <trkpt lat="44.17023" lon="5.04902">
        <ele>430</ele>
        <time>2020-10-25T08:49:47Z</time>
      </trkpt>
      <trkpt lat="44.17021" lon="5.04901">
        <ele>430</ele>
        <time>2020-10-25T08:49:48Z</time>
      </trkpt>
      <trkpt lat="44.17019" lon="5.049">
        <ele>430</ele>
        <time>2020-10-25T08:49:49Z</time>
      </trkpt>
      <trkpt lat="44.17017" lon="5.04899">
        <ele>431</ele>
        <time>2020-10-25T08:49:50Z</time>
      </trkpt>
      <trkpt lat="44.17015" lon="5.04898">
        <ele>431</ele>
        <time>2020-10-25T08:49:51Z</time>
      </trkpt>
      <trkpt lat="44.17013" lon="5.04897">
        <ele>431</ele>
        <time>2020-10-25T08:49:52Z</time>
      </trkpt>
      <trkpt lat="44.17011" lon="5.04897">
        <ele>431</ele>
        <time>2020-10-25T08:49:53Z</time>
      </trkpt>
      <trkpt lat="44.16993" lon="5.04889">
        <ele>434</ele>
        <time>2020-10-25T08:50:03Z</time>
      </trkpt>
      <trkpt lat="44.16979" lon="5.04886">
        <ele>435</ele>
        <time>2020-10-25T08:50:09Z</time>
      </trkpt>
      <trkpt lat="44.1696" lon="5.04888">
        <ele>434</ele>
        <time>2020-10-25T08:50:20Z</time>
      </trkpt>
      <trkpt lat="44.16944" lon="5.04878">
        <ele>435</ele>
        <time>2020-10-25T08:50:28Z</time>
      </trkpt>
      <trkpt lat="44.16922" lon="5.04856">
        <ele>435</ele>
        <time>2020-10-25T08:50:39Z</time>
      </trkpt>
      <trkpt lat="44.16909" lon="5.04848">
        <ele>433</ele>
        <time>2020-10-25T08:50:46Z</time>
      </trkpt>
      <trkpt lat="44.16898" lon="5.04844">
        <ele>430</ele>
        <time>2020-10-25T08:50:52Z</time>
      </trkpt>
      <trkpt lat="44.16895" lon="5.04842">
        <ele>429</ele>
        <time>2020-10-25T08:50:54Z</time>
      </trkpt>
      <trkpt lat="44.16893" lon="5.04842">
        <ele>428</ele>
        <time>2020-10-25T08:50:55Z</time>
      </trkpt>
      <trkpt lat="44.16883" lon="5.04841">
        <ele>426</ele>
        <time>2020-10-25T08:51:02Z</time>
      </trkpt>
      <trkpt lat="44.16866" lon="5.04838">
        <ele>422</ele>
        <time>2020-10-25T08:51:10Z</time>
      </trkpt>
      <trkpt lat="44.16862" lon="5.04837">
        <ele>420</ele>
        <time>2020-10-25T08:51:12Z</time>
      </trkpt>
      <trkpt lat="44.16853" lon="5.04837">
        <ele>419</ele>
        <time>2020-10-25T08:51:16Z</time>
      </trkpt>
      <trkpt lat="44.16851" lon="5.04836">
        <ele>418</ele>
        <time>2020-10-25T08:51:17Z</time>
      </trkpt>
      <trkpt lat="44.16849" lon="5.04835">
        <ele>418</ele>
        <time>2020-10-25T08:51:18Z</time>
      </trkpt>
      <trkpt lat="44.16847" lon="5.04835">
        <ele>418</ele>
        <time>2020-10-25T08:51:19Z</time>
      </trkpt>
      <trkpt lat="44.16845" lon="5.04833">
        <ele>417</ele>
        <time>2020-10-25T08:51:20Z</time>
      </trkpt>
      <trkpt lat="44.16844" lon="5.04832">
        <ele>417</ele>
        <time>2020-10-25T08:51:21Z</time>
      </trkpt>
      <trkpt lat="44.16842" lon="5.04832">
        <ele>416</ele>
        <time>2020-10-25T08:51:22Z</time>
      </trkpt>
      <trkpt lat="44.16838" lon="5.04833">
        <ele>416</ele>
        <time>2020-10-25T08:51:24Z</time>
      </trkpt>
      <trkpt lat="44.1682" lon="5.04833">
        <ele>413</ele>
        <time>2020-10-25T08:51:31Z</time>
      </trkpt>
      <trkpt lat="44.16794" lon="5.0483">
        <ele>410</ele>
        <time>2020-10-25T08:51:41Z</time>
      </trkpt>
      <trkpt lat="44.16777" lon="5.04821">
        <ele>409</ele>
        <time>2020-10-25T08:51:49Z</time>
      </trkpt>
      <trkpt lat="44.16775" lon="5.04819">
        <ele>409</ele>
        <time>2020-10-25T08:51:50Z</time>
      </trkpt>
      <trkpt lat="44.16773" lon="5.04818">
        <ele>410</ele>
        <time>2020-10-25T08:51:51Z</time>
      </trkpt>
      <trkpt lat="44.16771" lon="5.04817">
        <ele>410</ele>
        <time>2020-10-25T08:51:52Z</time>
      </trkpt>
      <trkpt lat="44.16752" lon="5.04818">
        <ele>416</ele>
        <time>2020-10-25T08:52:01Z</time>
      </trkpt>
      <trkpt lat="44.16747" lon="5.04818">
        <ele>417</ele>
        <time>2020-10-25T08:52:03Z</time>
      </trkpt>
      <trkpt lat="44.16746" lon="5.04818">
        <ele>418</ele>
        <time>2020-10-25T08:52:04Z</time>
      </trkpt>
      <trkpt lat="44.16744" lon="5.04818">
        <ele>418</ele>
        <time>2020-10-25T08:52:05Z</time>
      </trkpt>
      <trkpt lat="44.16742" lon="5.04818">
        <ele>419</ele>
        <time>2020-10-25T08:52:06Z</time>
      </trkpt>
      <trkpt lat="44.1674" lon="5.04819">
        <ele>419</ele>
        <time>2020-10-25T08:52:07Z</time>
      </trkpt>
      <trkpt lat="44.16737" lon="5.04819">
        <ele>420</ele>
        <time>2020-10-25T08:52:08Z</time>
      </trkpt>
      <trkpt lat="44.1671" lon="5.04828">
        <ele>424</ele>
        <time>2020-10-25T08:52:18Z</time>
      </trkpt>
      <trkpt lat="44.16679" lon="5.04836">
        <ele>424</ele>
        <time>2020-10-25T08:52:28Z</time>
      </trkpt>
      <trkpt lat="44.16668" lon="5.04837">
        <ele>423</ele>
        <time>2020-10-25T08:52:32Z</time>
      </trkpt>
      <trkpt lat="44.16644" lon="5.04843">
        <ele>421</ele>
        <time>2020-10-25T08:52:42Z</time>
      </trkpt>
      <trkpt lat="44.16641" lon="5.04845">
        <ele>421</ele>
        <time>2020-10-25T08:52:43Z</time>
      </trkpt>
      <trkpt lat="44.16616" lon="5.04851">
        <ele>416</ele>
        <time>2020-10-25T08:52:52Z</time>
      </trkpt>
      <trkpt lat="44.16594" lon="5.04846">
        <ele>412</ele>
        <time>2020-10-25T08:53:01Z</time>
      </trkpt>
      <trkpt lat="44.16592" lon="5.04845">
        <ele>412</ele>
        <time>2020-10-25T08:53:02Z</time>
      </trkpt>
      <trkpt lat="44.1659" lon="5.04844">
        <ele>411</ele>
        <time>2020-10-25T08:53:03Z</time>
      </trkpt>
      <trkpt lat="44.16587" lon="5.04843">
        <ele>411</ele>
        <time>2020-10-25T08:53:04Z</time>
      </trkpt>
      <trkpt lat="44.16586" lon="5.04842">
        <ele>411</ele>
        <time>2020-10-25T08:53:05Z</time>
      </trkpt>
      <trkpt lat="44.16585" lon="5.0484">
        <ele>410</ele>
        <time>2020-10-25T08:53:06Z</time>
      </trkpt>
      <trkpt lat="44.16583" lon="5.04839">
        <ele>410</ele>
        <time>2020-10-25T08:53:07Z</time>
      </trkpt>
      <trkpt lat="44.16582" lon="5.04837">
        <ele>410</ele>
        <time>2020-10-25T08:53:08Z</time>
      </trkpt>
      <trkpt lat="44.1658" lon="5.04835">
        <ele>409</ele>
        <time>2020-10-25T08:53:09Z</time>
      </trkpt>
      <trkpt lat="44.16578" lon="5.04832">
        <ele>409</ele>
        <time>2020-10-25T08:53:10Z</time>
      </trkpt>
      <trkpt lat="44.16577" lon="5.0483">
        <ele>408</ele>
        <time>2020-10-25T08:53:11Z</time>
      </trkpt>
      <trkpt lat="44.16576" lon="5.04827">
        <ele>407</ele>
        <time>2020-10-25T08:53:12Z</time>
      </trkpt>
      <trkpt lat="44.16575" lon="5.04826">
        <ele>406</ele>
        <time>2020-10-25T08:53:13Z</time>
      </trkpt>
      <trkpt lat="44.16574" lon="5.04824">
        <ele>406</ele>
        <time>2020-10-25T08:53:14Z</time>
      </trkpt>
      <trkpt lat="44.16573" lon="5.04822">
        <ele>405</ele>
        <time>2020-10-25T08:53:15Z</time>
      </trkpt>
      <trkpt lat="44.16572" lon="5.0482">
        <ele>404</ele>
        <time>2020-10-25T08:53:16Z</time>
      </trkpt>
      <trkpt lat="44.16571" lon="5.04817">
        <ele>404</ele>
        <time>2020-10-25T08:53:17Z</time>
      </trkpt>
      <trkpt lat="44.16571" lon="5.04815">
        <ele>404</ele>
        <time>2020-10-25T08:53:18Z</time>
      </trkpt>
      <trkpt lat="44.16572" lon="5.04813">
        <ele>404</ele>
        <time>2020-10-25T08:53:19Z</time>
      </trkpt>
      <trkpt lat="44.16572" lon="5.04811">
        <ele>404</ele>
        <time>2020-10-25T08:53:20Z</time>
      </trkpt>
      <trkpt lat="44.16574" lon="5.04808">
        <ele>405</ele>
        <time>2020-10-25T08:53:22Z</time>
      </trkpt>
      <trkpt lat="44.16577" lon="5.04806">
        <ele>406</ele>
        <time>2020-10-25T08:53:26Z</time>
      </trkpt>
      <trkpt lat="44.16577" lon="5.04799">
        <ele>404</ele>
        <time>2020-10-25T08:53:34Z</time>
      </trkpt>
      <trkpt lat="44.16573" lon="5.04794">
        <ele>401</ele>
        <time>2020-10-25T08:53:38Z</time>
      </trkpt>
      <trkpt lat="44.16565" lon="5.04792">
        <ele>397</ele>
        <time>2020-10-25T08:53:43Z</time>
      </trkpt>
      <trkpt lat="44.16564" lon="5.04792">
        <ele>397</ele>
        <time>2020-10-25T08:53:44Z</time>
      </trkpt>
      <trkpt lat="44.16561" lon="5.04782">
        <ele>394</ele>
        <time>2020-10-25T08:53:49Z</time>
      </trkpt>
      <trkpt lat="44.16564" lon="5.0477">
        <ele>392</ele>
        <time>2020-10-25T08:53:54Z</time>
      </trkpt>
      <trkpt lat="44.16575" lon="5.04741">
        <ele>392</ele>
        <time>2020-10-25T08:54:05Z</time>
      </trkpt>
      <trkpt lat="44.16575" lon="5.04738">
        <ele>392</ele>
        <time>2020-10-25T08:54:06Z</time>
      </trkpt>
      <trkpt lat="44.16577" lon="5.04696">
        <ele>391</ele>
        <time>2020-10-25T08:54:17Z</time>
      </trkpt>
      <trkpt lat="44.16578" lon="5.04658">
        <ele>389</ele>
        <time>2020-10-25T08:54:26Z</time>
      </trkpt>
      <trkpt lat="44.16571" lon="5.04615">
        <ele>382</ele>
        <time>2020-10-25T08:54:36Z</time>
      </trkpt>
      <trkpt lat="44.16563" lon="5.04594">
        <ele>379</ele>
        <time>2020-10-25T08:54:46Z</time>
      </trkpt>
      <trkpt lat="44.16554" lon="5.04583">
        <ele>378</ele>
        <time>2020-10-25T08:54:54Z</time>
      </trkpt>
      <trkpt lat="44.16552" lon="5.0458">
        <ele>377</ele>
        <time>2020-10-25T08:54:55Z</time>
      </trkpt>
      <trkpt lat="44.16549" lon="5.04579">
        <ele>376</ele>
        <time>2020-10-25T08:54:56Z</time>
      </trkpt>
      <trkpt lat="44.16527" lon="5.04555">
        <ele>372</ele>
        <time>2020-10-25T08:55:06Z</time>
      </trkpt>
      <trkpt lat="44.16521" lon="5.04547">
        <ele>371</ele>
        <time>2020-10-25T08:55:10Z</time>
      </trkpt>
      <trkpt lat="44.16514" lon="5.04539">
        <ele>370</ele>
        <time>2020-10-25T08:55:14Z</time>
      </trkpt>
      <trkpt lat="44.16511" lon="5.04537">
        <ele>370</ele>
        <time>2020-10-25T08:55:15Z</time>
      </trkpt>
      <trkpt lat="44.1651" lon="5.04535">
        <ele>370</ele>
        <time>2020-10-25T08:55:16Z</time>
      </trkpt>
      <trkpt lat="44.16508" lon="5.04532">
        <ele>370</ele>
        <time>2020-10-25T08:55:17Z</time>
      </trkpt>
      <trkpt lat="44.16505" lon="5.0453">
        <ele>370</ele>
        <time>2020-10-25T08:55:18Z</time>
      </trkpt>
      <trkpt lat="44.16503" lon="5.04528">
        <ele>370</ele>
        <time>2020-10-25T08:55:19Z</time>
      </trkpt>
      <trkpt lat="44.165" lon="5.04526">
        <ele>370</ele>
        <time>2020-10-25T08:55:20Z</time>
      </trkpt>
      <trkpt lat="44.16498" lon="5.04525">
        <ele>369</ele>
        <time>2020-10-25T08:55:21Z</time>
      </trkpt>
      <trkpt lat="44.16495" lon="5.04522">
        <ele>369</ele>
        <time>2020-10-25T08:55:22Z</time>
      </trkpt>
      <trkpt lat="44.16494" lon="5.0452">
        <ele>369</ele>
        <time>2020-10-25T08:55:23Z</time>
      </trkpt>
      <trkpt lat="44.16488" lon="5.04512">
        <ele>368</ele>
        <time>2020-10-25T08:55:27Z</time>
      </trkpt>
      <trkpt lat="44.16487" lon="5.0451">
        <ele>368</ele>
        <time>2020-10-25T08:55:28Z</time>
      </trkpt>
      <trkpt lat="44.16484" lon="5.04508">
        <ele>367</ele>
        <time>2020-10-25T08:55:29Z</time>
      </trkpt>
      <trkpt lat="44.16465" lon="5.04488">
        <ele>365</ele>
        <time>2020-10-25T08:55:38Z</time>
      </trkpt>
      <trkpt lat="44.16446" lon="5.04484">
        <ele>363</ele>
        <time>2020-10-25T08:55:46Z</time>
      </trkpt>
      <trkpt lat="44.16446" lon="5.04489">
        <ele>364</ele>
        <time>2020-10-25T08:55:49Z</time>
      </trkpt>
      <trkpt lat="44.16447" lon="5.04491">
        <ele>364</ele>
        <time>2020-10-25T08:55:50Z</time>
      </trkpt>
      <trkpt lat="44.16462" lon="5.04508">
        <ele>367</ele>
        <time>2020-10-25T08:55:59Z</time>
      </trkpt>
      <trkpt lat="44.16465" lon="5.04525">
        <ele>368</ele>
        <time>2020-10-25T08:56:09Z</time>
      </trkpt>
      <trkpt lat="44.16463" lon="5.04525">
        <ele>367</ele>
        <time>2020-10-25T08:56:10Z</time>
      </trkpt>
      <trkpt lat="44.16461" lon="5.04525">
        <ele>367</ele>
        <time>2020-10-25T08:56:11Z</time>
      </trkpt>
      <trkpt lat="44.16459" lon="5.04525">
        <ele>367</ele>
        <time>2020-10-25T08:56:12Z</time>
      </trkpt>
      <trkpt lat="44.16457" lon="5.04525">
        <ele>366</ele>
        <time>2020-10-25T08:56:13Z</time>
      </trkpt>
      <trkpt lat="44.16453" lon="5.04524">
        <ele>366</ele>
        <time>2020-10-25T08:56:15Z</time>
      </trkpt>
      <trkpt lat="44.1645" lon="5.04524">
        <ele>365</ele>
        <time>2020-10-25T08:56:16Z</time>
      </trkpt>
      <trkpt lat="44.16436" lon="5.04518">
        <ele>363</ele>
        <time>2020-10-25T08:56:24Z</time>
      </trkpt>
      <trkpt lat="44.16434" lon="5.04518">
        <ele>362</ele>
        <time>2020-10-25T08:56:25Z</time>
      </trkpt>
      <trkpt lat="44.16419" lon="5.04518">
        <ele>360</ele>
        <time>2020-10-25T08:56:32Z</time>
      </trkpt>
      <trkpt lat="44.16417" lon="5.04517">
        <ele>359</ele>
        <time>2020-10-25T08:56:33Z</time>
      </trkpt>
      <trkpt lat="44.16416" lon="5.04517">
        <ele>359</ele>
        <time>2020-10-25T08:56:34Z</time>
      </trkpt>
      <trkpt lat="44.16414" lon="5.04516">
        <ele>358</ele>
        <time>2020-10-25T08:56:35Z</time>
      </trkpt>
      <trkpt lat="44.16412" lon="5.04515">
        <ele>358</ele>
        <time>2020-10-25T08:56:36Z</time>
      </trkpt>
      <trkpt lat="44.1641" lon="5.04514">
        <ele>358</ele>
        <time>2020-10-25T08:56:37Z</time>
      </trkpt>
      <trkpt lat="44.16408" lon="5.04513">
        <ele>357</ele>
        <time>2020-10-25T08:56:38Z</time>
      </trkpt>
      <trkpt lat="44.16406" lon="5.04512">
        <ele>357</ele>
        <time>2020-10-25T08:56:39Z</time>
      </trkpt>
      <trkpt lat="44.16404" lon="5.0451">
        <ele>357</ele>
        <time>2020-10-25T08:56:40Z</time>
      </trkpt>
      <trkpt lat="44.16379" lon="5.04497">
        <ele>353</ele>
        <time>2020-10-25T08:56:51Z</time>
      </trkpt>
      <trkpt lat="44.16364" lon="5.04485">
        <ele>351</ele>
        <time>2020-10-25T08:56:59Z</time>
      </trkpt>
      <trkpt lat="44.16353" lon="5.04469">
        <ele>352</ele>
        <time>2020-10-25T08:57:07Z</time>
      </trkpt>
      <trkpt lat="44.16339" lon="5.04452">
        <ele>352</ele>
        <time>2020-10-25T08:57:16Z</time>
      </trkpt>
      <trkpt lat="44.16337" lon="5.04451">
        <ele>352</ele>
        <time>2020-10-25T08:57:32Z</time>
      </trkpt>
      <trkpt lat="44.16335" lon="5.04449">
        <ele>352</ele>
        <time>2020-10-25T08:57:48Z</time>
      </trkpt>
      <trkpt lat="44.16334" lon="5.04448">
        <ele>352</ele>
        <time>2020-10-25T08:57:49Z</time>
      </trkpt>
      <trkpt lat="44.16332" lon="5.04447">
        <ele>352</ele>
        <time>2020-10-25T08:57:50Z</time>
      </trkpt>
      <trkpt lat="44.1632" lon="5.04434">
        <ele>351</ele>
        <time>2020-10-25T08:57:59Z</time>
      </trkpt>
      <trkpt lat="44.16319" lon="5.04434">
        <ele>351</ele>
        <time>2020-10-25T08:58:00Z</time>
      </trkpt>
      <trkpt lat="44.16316" lon="5.04438">
        <ele>349</ele>
        <time>2020-10-25T08:58:04Z</time>
      </trkpt>
      <trkpt lat="44.16315" lon="5.04439">
        <ele>349</ele>
        <time>2020-10-25T08:58:05Z</time>
      </trkpt>
      <trkpt lat="44.16316" lon="5.04447">
        <ele>347</ele>
        <time>2020-10-25T08:58:11Z</time>
      </trkpt>
      <trkpt lat="44.16312" lon="5.04447">
        <ele>346</ele>
        <time>2020-10-25T08:58:15Z</time>
      </trkpt>
      <trkpt lat="44.1631" lon="5.04445">
        <ele>346</ele>
        <time>2020-10-25T08:58:16Z</time>
      </trkpt>
      <trkpt lat="44.16308" lon="5.04444">
        <ele>346</ele>
        <time>2020-10-25T08:58:17Z</time>
      </trkpt>
      <trkpt lat="44.16306" lon="5.04443">
        <ele>346</ele>
        <time>2020-10-25T08:58:18Z</time>
      </trkpt>
      <trkpt lat="44.16304" lon="5.04441">
        <ele>345</ele>
        <time>2020-10-25T08:58:19Z</time>
      </trkpt>
      <trkpt lat="44.16302" lon="5.0444">
        <ele>345</ele>
        <time>2020-10-25T08:58:20Z</time>
      </trkpt>
      <trkpt lat="44.16286" lon="5.04424">
        <ele>341</ele>
        <time>2020-10-25T08:58:30Z</time>
      </trkpt>
      <trkpt lat="44.16277" lon="5.04416">
        <ele>339</ele>
        <time>2020-10-25T08:58:35Z</time>
      </trkpt>
      <trkpt lat="44.16276" lon="5.04413">
        <ele>339</ele>
        <time>2020-10-25T08:58:36Z</time>
      </trkpt>
      <trkpt lat="44.16273" lon="5.04386">
        <ele>341</ele>
        <time>2020-10-25T08:58:45Z</time>
      </trkpt>
      <trkpt lat="44.16271" lon="5.04361">
        <ele>343</ele>
        <time>2020-10-25T08:58:55Z</time>
      </trkpt>
      <trkpt lat="44.16265" lon="5.04328">
        <ele>339</ele>
        <time>2020-10-25T08:59:05Z</time>
      </trkpt>
      <trkpt lat="44.16262" lon="5.04317">
        <ele>337</ele>
        <time>2020-10-25T08:59:10Z</time>
      </trkpt>
      <trkpt lat="44.1626" lon="5.0431">
        <ele>336</ele>
        <time>2020-10-25T08:59:12Z</time>
      </trkpt>
      <trkpt lat="44.16258" lon="5.04307">
        <ele>336</ele>
        <time>2020-10-25T08:59:13Z</time>
      </trkpt>
      <trkpt lat="44.16257" lon="5.04304">
        <ele>335</ele>
        <time>2020-10-25T08:59:14Z</time>
      </trkpt>
      <trkpt lat="44.16252" lon="5.043">
        <ele>333</ele>
        <time>2020-10-25T08:59:23Z</time>
      </trkpt>
      <trkpt lat="44.16251" lon="5.04303">
        <ele>334</ele>
        <time>2020-10-25T08:59:24Z</time>
      </trkpt>
      <trkpt lat="44.1625" lon="5.04306">
        <ele>334</ele>
        <time>2020-10-25T08:59:25Z</time>
      </trkpt>
      <trkpt lat="44.1625" lon="5.04308">
        <ele>334</ele>
        <time>2020-10-25T08:59:26Z</time>
      </trkpt>
      <trkpt lat="44.16249" lon="5.04311">
        <ele>334</ele>
        <time>2020-10-25T08:59:27Z</time>
      </trkpt>
      <trkpt lat="44.16247" lon="5.04319">
        <ele>333</ele>
        <time>2020-10-25T08:59:30Z</time>
      </trkpt>
      <trkpt lat="44.16246" lon="5.04322">
        <ele>333</ele>
        <time>2020-10-25T08:59:32Z</time>
      </trkpt>
      <trkpt lat="44.16244" lon="5.04326">
        <ele>332</ele>
        <time>2020-10-25T08:59:34Z</time>
      </trkpt>
      <trkpt lat="44.16244" lon="5.04328">
        <ele>332</ele>
        <time>2020-10-25T08:59:35Z</time>
      </trkpt>
      <trkpt lat="44.16243" lon="5.0433">
        <ele>332</ele>
        <time>2020-10-25T08:59:36Z</time>
      </trkpt>
      <trkpt lat="44.16239" lon="5.0433">
        <ele>331</ele>
        <time>2020-10-25T08:59:39Z</time>
      </trkpt>
      <trkpt lat="44.16238" lon="5.04329">
        <ele>330</ele>
        <time>2020-10-25T08:59:40Z</time>
      </trkpt>
      <trkpt lat="44.16236" lon="5.04322">
        <ele>329</ele>
        <time>2020-10-25T08:59:43Z</time>
      </trkpt>
      <trkpt lat="44.16235" lon="5.04315">
        <ele>329</ele>
        <time>2020-10-25T08:59:46Z</time>
      </trkpt>
      <trkpt lat="44.16236" lon="5.04313">
        <ele>329</ele>
        <time>2020-10-25T08:59:47Z</time>
      </trkpt>
      <trkpt lat="44.16237" lon="5.04311">
        <ele>330</ele>
        <time>2020-10-25T08:59:48Z</time>
      </trkpt>
      <trkpt lat="44.16241" lon="5.04306">
        <ele>331</ele>
        <time>2020-10-25T08:59:53Z</time>
      </trkpt>
      <trkpt lat="44.16239" lon="5.04303">
        <ele>330</ele>
        <time>2020-10-25T08:59:55Z</time>
      </trkpt>
      <trkpt lat="44.16235" lon="5.04279">
        <ele>326</ele>
        <time>2020-10-25T09:00:03Z</time>
      </trkpt>
      <trkpt lat="44.16223" lon="5.04253">
        <ele>321</ele>
        <time>2020-10-25T09:00:13Z</time>
      </trkpt>
      <trkpt lat="44.16211" lon="5.04219">
        <ele>316</ele>
        <time>2020-10-25T09:00:22Z</time>
      </trkpt>
      <trkpt lat="44.16211" lon="5.04216">
        <ele>315</ele>
        <time>2020-10-25T09:00:23Z</time>
      </trkpt>
      <trkpt lat="44.1621" lon="5.04214">
        <ele>315</ele>
        <time>2020-10-25T09:00:24Z</time>
      </trkpt>
      <trkpt lat="44.16211" lon="5.04212">
        <ele>315</ele>
        <time>2020-10-25T09:00:25Z</time>
      </trkpt>
      <trkpt lat="44.16211" lon="5.0421">
        <ele>315</ele>
        <time>2020-10-25T09:00:26Z</time>
      </trkpt>
      <trkpt lat="44.16213" lon="5.04209">
        <ele>315</ele>
        <time>2020-10-25T09:00:27Z</time>
      </trkpt>
      <trkpt lat="44.16215" lon="5.04208">
        <ele>315</ele>
        <time>2020-10-25T09:00:28Z</time>
      </trkpt>
      <trkpt lat="44.16216" lon="5.04207">
        <ele>315</ele>
        <time>2020-10-25T09:00:29Z</time>
      </trkpt>
      <trkpt lat="44.1622" lon="5.04201">
        <ele>315</ele>
        <time>2020-10-25T09:00:33Z</time>
      </trkpt>
      <trkpt lat="44.1622" lon="5.04198">
        <ele>314</ele>
        <time>2020-10-25T09:00:34Z</time>
      </trkpt>
      <trkpt lat="44.16219" lon="5.04196">
        <ele>314</ele>
        <time>2020-10-25T09:00:35Z</time>
      </trkpt>
      <trkpt lat="44.16219" lon="5.04195">
        <ele>314</ele>
        <time>2020-10-25T09:00:36Z</time>
      </trkpt>
      <trkpt lat="44.16217" lon="5.04193">
        <ele>313</ele>
        <time>2020-10-25T09:00:37Z</time>
      </trkpt>
      <trkpt lat="44.16216" lon="5.04192">
        <ele>313</ele>
        <time>2020-10-25T09:00:38Z</time>
      </trkpt>
      <trkpt lat="44.162" lon="5.0418">
        <ele>311</ele>
        <time>2020-10-25T09:00:48Z</time>
      </trkpt>
      <trkpt lat="44.16186" lon="5.04194">
        <ele>309</ele>
        <time>2020-10-25T09:00:57Z</time>
      </trkpt>
      <trkpt lat="44.16186" lon="5.04197">
        <ele>310</ele>
        <time>2020-10-25T09:00:59Z</time>
      </trkpt>
      <trkpt lat="44.16187" lon="5.04206">
        <ele>310</ele>
        <time>2020-10-25T09:01:02Z</time>
      </trkpt>
      <trkpt lat="44.16187" lon="5.04224">
        <ele>310</ele>
        <time>2020-10-25T09:01:09Z</time>
      </trkpt>
      <trkpt lat="44.16185" lon="5.04235">
        <ele>309</ele>
        <time>2020-10-25T09:01:13Z</time>
      </trkpt>
      <trkpt lat="44.16182" lon="5.04247">
        <ele>308</ele>
        <time>2020-10-25T09:01:18Z</time>
      </trkpt>
      <trkpt lat="44.16183" lon="5.04251">
        <ele>308</ele>
        <time>2020-10-25T09:01:19Z</time>
      </trkpt>
      <trkpt lat="44.16183" lon="5.04257">
        <ele>308</ele>
        <time>2020-10-25T09:01:21Z</time>
      </trkpt>
      <trkpt lat="44.16186" lon="5.04283">
        <ele>308</ele>
        <time>2020-10-25T09:01:31Z</time>
      </trkpt>
      <trkpt lat="44.16185" lon="5.04288">
        <ele>307</ele>
        <time>2020-10-25T09:01:33Z</time>
      </trkpt>
      <trkpt lat="44.16182" lon="5.0429">
        <ele>306</ele>
        <time>2020-10-25T09:01:36Z</time>
      </trkpt>
      <trkpt lat="44.1618" lon="5.04288">
        <ele>305</ele>
        <time>2020-10-25T09:01:38Z</time>
      </trkpt>
      <trkpt lat="44.16168" lon="5.04271">
        <ele>301</ele>
        <time>2020-10-25T09:01:47Z</time>
      </trkpt>
      <trkpt lat="44.16164" lon="5.04271">
        <ele>298</ele>
        <time>2020-10-25T09:01:51Z</time>
      </trkpt>
      <trkpt lat="44.16162" lon="5.04274">
        <ele>297</ele>
        <time>2020-10-25T09:01:52Z</time>
      </trkpt>
      <trkpt lat="44.16161" lon="5.04276">
        <ele>296</ele>
        <time>2020-10-25T09:01:53Z</time>
      </trkpt>
      <trkpt lat="44.16161" lon="5.04281">
        <ele>296</ele>
        <time>2020-10-25T09:01:56Z</time>
      </trkpt>
      <trkpt lat="44.16158" lon="5.04291">
        <ele>294</ele>
        <time>2020-10-25T09:02:03Z</time>
      </trkpt>
      <trkpt lat="44.16154" lon="5.04292">
        <ele>292</ele>
        <time>2020-10-25T09:02:13Z</time>
      </trkpt>
      <trkpt lat="44.16152" lon="5.04288">
        <ele>291</ele>
        <time>2020-10-25T09:02:16Z</time>
      </trkpt>
      <trkpt lat="44.1615" lon="5.04287">
        <ele>290</ele>
        <time>2020-10-25T09:02:17Z</time>
      </trkpt>
      <trkpt lat="44.16149" lon="5.04284">
        <ele>290</ele>
        <time>2020-10-25T09:02:18Z</time>
      </trkpt>
      <trkpt lat="44.16146" lon="5.04276">
        <ele>289</ele>
        <time>2020-10-25T09:02:23Z</time>
      </trkpt>
      <trkpt lat="44.16144" lon="5.04271">
        <ele>288</ele>
        <time>2020-10-25T09:02:27Z</time>
      </trkpt>
      <trkpt lat="44.16143" lon="5.0427">
        <ele>287</ele>
        <time>2020-10-25T09:02:28Z</time>
      </trkpt>
      <trkpt lat="44.16137" lon="5.04265">
        <ele>285</ele>
        <time>2020-10-25T09:02:30Z</time>
      </trkpt>
      <trkpt lat="44.16135" lon="5.04266">
        <ele>285</ele>
        <time>2020-10-25T09:02:31Z</time>
      </trkpt>
      <trkpt lat="44.16134" lon="5.04267">
        <ele>284</ele>
        <time>2020-10-25T09:02:32Z</time>
      </trkpt>
      <trkpt lat="44.16128" lon="5.04265">
        <ele>282</ele>
        <time>2020-10-25T09:02:38Z</time>
      </trkpt>
      <trkpt lat="44.16126" lon="5.04265">
        <ele>281</ele>
        <time>2020-10-25T09:02:39Z</time>
      </trkpt>
      <trkpt lat="44.16124" lon="5.04264">
        <ele>281</ele>
        <time>2020-10-25T09:02:40Z</time>
      </trkpt>
      <trkpt lat="44.1612" lon="5.04265">
        <ele>280</ele>
        <time>2020-10-25T09:02:42Z</time>
      </trkpt>
      <trkpt lat="44.16116" lon="5.04266">
        <ele>278</ele>
        <time>2020-10-25T09:02:44Z</time>
      </trkpt>
      <trkpt lat="44.16115" lon="5.04265">
        <ele>278</ele>
        <time>2020-10-25T09:02:45Z</time>
      </trkpt>
      <trkpt lat="44.16113" lon="5.04265">
        <ele>277</ele>
        <time>2020-10-25T09:02:46Z</time>
      </trkpt>
      <trkpt lat="44.16109" lon="5.04259">
        <ele>276</ele>
        <time>2020-10-25T09:02:53Z</time>
      </trkpt>
      <trkpt lat="44.16109" lon="5.04256">
        <ele>276</ele>
        <time>2020-10-25T09:02:54Z</time>
      </trkpt>
      <trkpt lat="44.16109" lon="5.04253">
        <ele>276</ele>
        <time>2020-10-25T09:02:55Z</time>
      </trkpt>
      <trkpt lat="44.1611" lon="5.04251">
        <ele>276</ele>
        <time>2020-10-25T09:02:56Z</time>
      </trkpt>
      <trkpt lat="44.16111" lon="5.04249">
        <ele>276</ele>
        <time>2020-10-25T09:02:57Z</time>
      </trkpt>
      <trkpt lat="44.16113" lon="5.04247">
        <ele>277</ele>
        <time>2020-10-25T09:02:58Z</time>
      </trkpt>
      <trkpt lat="44.16124" lon="5.0422">
        <ele>283</ele>
        <time>2020-10-25T09:03:09Z</time>
      </trkpt>
      <trkpt lat="44.16129" lon="5.04178">
        <ele>285</ele>
        <time>2020-10-25T09:03:22Z</time>
      </trkpt>
      <trkpt lat="44.16133" lon="5.0414">
        <ele>281</ele>
        <time>2020-10-25T09:03:32Z</time>
      </trkpt>
      <trkpt lat="44.16143" lon="5.04108">
        <ele>276</ele>
        <time>2020-10-25T09:03:42Z</time>
      </trkpt>
      <trkpt lat="44.16159" lon="5.04091">
        <ele>278</ele>
        <time>2020-10-25T09:03:50Z</time>
      </trkpt>
      <trkpt lat="44.16182" lon="5.04081">
        <ele>279</ele>
        <time>2020-10-25T09:03:59Z</time>
      </trkpt>
      <trkpt lat="44.1619" lon="5.04077">
        <ele>279</ele>
        <time>2020-10-25T09:04:02Z</time>
      </trkpt>
      <trkpt lat="44.1619" lon="5.04049">
        <ele>280</ele>
        <time>2020-10-25T09:06:12Z</time>
      </trkpt>
      <trkpt lat="44.16169" lon="5.04055">
        <ele>279</ele>
        <time>2020-10-25T09:06:43Z</time>
      </trkpt>
      <trkpt lat="44.16152" lon="5.04049">
        <ele>280</ele>
        <time>2020-10-25T09:06:53Z</time>
      </trkpt>
      <trkpt lat="44.1615" lon="5.04047">
        <ele>281</ele>
        <time>2020-10-25T09:06:59Z</time>
      </trkpt>
      <trkpt lat="44.1615" lon="5.04044">
        <ele>281</ele>
        <time>2020-10-25T09:07:09Z</time>
      </trkpt>
      <trkpt lat="44.16143" lon="5.04033">
        <ele>285</ele>
        <time>2020-10-25T09:07:18Z</time>
      </trkpt>
      <trkpt lat="44.16143" lon="5.04031">
        <ele>285</ele>
        <time>2020-10-25T09:07:27Z</time>
      </trkpt>
      <trkpt lat="44.16139" lon="5.04027">
        <ele>287</ele>
        <time>2020-10-25T09:07:40Z</time>
      </trkpt>
      <trkpt lat="44.16136" lon="5.04024">
        <ele>289</ele>
        <time>2020-10-25T09:07:49Z</time>
      </trkpt>
      <trkpt lat="44.16131" lon="5.04021">
        <ele>292</ele>
        <time>2020-10-25T09:07:58Z</time>
      </trkpt>
      <trkpt lat="44.16127" lon="5.04016">
        <ele>295</ele>
        <time>2020-10-25T09:08:07Z</time>
      </trkpt>
      <trkpt lat="44.16127" lon="5.04007">
        <ele>299</ele>
        <time>2020-10-25T09:08:16Z</time>
      </trkpt>
      <trkpt lat="44.16127" lon="5.04006">
        <ele>299</ele>
        <time>2020-10-25T09:08:19Z</time>
      </trkpt>
      <trkpt lat="44.16126" lon="5.04005">
        <ele>300</ele>
        <time>2020-10-25T09:08:20Z</time>
      </trkpt>
      <trkpt lat="44.16124" lon="5.04005">
        <ele>301</ele>
        <time>2020-10-25T09:08:22Z</time>
      </trkpt>
      <trkpt lat="44.16118" lon="5.04005">
        <ele>303</ele>
        <time>2020-10-25T09:08:31Z</time>
      </trkpt>
      <trkpt lat="44.16116" lon="5.04006">
        <ele>304</ele>
        <time>2020-10-25T09:08:33Z</time>
      </trkpt>
      <trkpt lat="44.16115" lon="5.04006">
        <ele>304</ele>
        <time>2020-10-25T09:08:34Z</time>
      </trkpt>
      <trkpt lat="44.16109" lon="5.04005">
        <ele>307</ele>
        <time>2020-10-25T09:08:43Z</time>
      </trkpt>
      <trkpt lat="44.16105" lon="5.04">
        <ele>310</ele>
        <time>2020-10-25T09:08:52Z</time>
      </trkpt>
      <trkpt lat="44.16103" lon="5.03993">
        <ele>313</ele>
        <time>2020-10-25T09:09:00Z</time>
      </trkpt>
      <trkpt lat="44.16103" lon="5.03985">
        <ele>315</ele>
        <time>2020-10-25T09:09:10Z</time>
      </trkpt>
      <trkpt lat="44.16104" lon="5.0398">
        <ele>317</ele>
        <time>2020-10-25T09:09:19Z</time>
      </trkpt>
      <trkpt lat="44.16104" lon="5.03975">
        <ele>318</ele>
        <time>2020-10-25T09:09:22Z</time>
      </trkpt>
      <trkpt lat="44.16106" lon="5.03966">
        <ele>319</ele>
        <time>2020-10-25T09:09:31Z</time>
      </trkpt>
      <trkpt lat="44.16106" lon="5.03957">
        <ele>321</ele>
        <time>2020-10-25T09:09:39Z</time>
      </trkpt>
      <trkpt lat="44.16105" lon="5.03951">
        <ele>322</ele>
        <time>2020-10-25T09:09:44Z</time>
      </trkpt>
      <trkpt lat="44.16104" lon="5.03949">
        <ele>323</ele>
        <time>2020-10-25T09:09:45Z</time>
      </trkpt>
      <trkpt lat="44.16102" lon="5.03946">
        <ele>324</ele>
        <time>2020-10-25T09:09:47Z</time>
      </trkpt>
      <trkpt lat="44.16102" lon="5.03944">
        <ele>325</ele>
        <time>2020-10-25T09:09:48Z</time>
      </trkpt>
      <trkpt lat="44.16102" lon="5.03942">
        <ele>325</ele>
        <time>2020-10-25T09:09:49Z</time>
      </trkpt>
      <trkpt lat="44.16102" lon="5.0394">
        <ele>325</ele>
        <time>2020-10-25T09:09:50Z</time>
      </trkpt>
      <trkpt lat="44.16102" lon="5.03938">
        <ele>325</ele>
        <time>2020-10-25T09:09:51Z</time>
      </trkpt>
      <trkpt lat="44.16101" lon="5.03922">
        <ele>328</ele>
        <time>2020-10-25T09:10:03Z</time>
      </trkpt>
      <trkpt lat="44.161" lon="5.03919">
        <ele>328</ele>
        <time>2020-10-25T09:10:12Z</time>
      </trkpt>
      <trkpt lat="44.161" lon="5.03917">
        <ele>329</ele>
        <time>2020-10-25T09:10:14Z</time>
      </trkpt>
      <trkpt lat="44.16103" lon="5.03894">
        <ele>329</ele>
        <time>2020-10-25T09:10:24Z</time>
      </trkpt>
      <trkpt lat="44.16104" lon="5.03874">
        <ele>329</ele>
        <time>2020-10-25T09:10:32Z</time>
      </trkpt>
      <trkpt lat="44.16103" lon="5.03869">
        <ele>330</ele>
        <time>2020-10-25T09:10:34Z</time>
      </trkpt>
      <trkpt lat="44.16103" lon="5.03867">
        <ele>330</ele>
        <time>2020-10-25T09:10:35Z</time>
      </trkpt>
      <trkpt lat="44.16102" lon="5.03865">
        <ele>330</ele>
        <time>2020-10-25T09:10:36Z</time>
      </trkpt>
      <trkpt lat="44.16097" lon="5.0385">
        <ele>333</ele>
        <time>2020-10-25T09:10:45Z</time>
      </trkpt>
      <trkpt lat="44.16097" lon="5.03848">
        <ele>333</ele>
        <time>2020-10-25T09:10:46Z</time>
      </trkpt>
      <trkpt lat="44.16096" lon="5.03846">
        <ele>334</ele>
        <time>2020-10-25T09:10:47Z</time>
      </trkpt>
      <trkpt lat="44.16094" lon="5.03825">
        <ele>335</ele>
        <time>2020-10-25T09:10:56Z</time>
      </trkpt>
      <trkpt lat="44.16092" lon="5.03809">
        <ele>337</ele>
        <time>2020-10-25T09:11:02Z</time>
      </trkpt>
      <trkpt lat="44.16091" lon="5.03806">
        <ele>337</ele>
        <time>2020-10-25T09:11:03Z</time>
      </trkpt>
      <trkpt lat="44.1609" lon="5.03804">
        <ele>338</ele>
        <time>2020-10-25T09:11:04Z</time>
      </trkpt>
      <trkpt lat="44.16083" lon="5.03797">
        <ele>342</ele>
        <time>2020-10-25T09:11:13Z</time>
      </trkpt>
      <trkpt lat="44.16081" lon="5.03785">
        <ele>343</ele>
        <time>2020-10-25T09:11:22Z</time>
      </trkpt>
      <trkpt lat="44.16079" lon="5.03778">
        <ele>345</ele>
        <time>2020-10-25T09:11:27Z</time>
      </trkpt>
      <trkpt lat="44.16078" lon="5.03777">
        <ele>346</ele>
        <time>2020-10-25T09:11:28Z</time>
      </trkpt>
      <trkpt lat="44.16077" lon="5.03775">
        <ele>346</ele>
        <time>2020-10-25T09:11:29Z</time>
      </trkpt>
      <trkpt lat="44.16075" lon="5.03769">
        <ele>347</ele>
        <time>2020-10-25T09:11:37Z</time>
      </trkpt>
      <trkpt lat="44.16069" lon="5.03764">
        <ele>350</ele>
        <time>2020-10-25T09:11:45Z</time>
      </trkpt>
      <trkpt lat="44.16063" lon="5.03757">
        <ele>353</ele>
        <time>2020-10-25T09:11:53Z</time>
      </trkpt>
      <trkpt lat="44.16063" lon="5.03755">
        <ele>353</ele>
        <time>2020-10-25T09:11:54Z</time>
      </trkpt>
      <trkpt lat="44.16062" lon="5.03751">
        <ele>354</ele>
        <time>2020-10-25T09:11:57Z</time>
      </trkpt>
      <trkpt lat="44.16061" lon="5.03749">
        <ele>354</ele>
        <time>2020-10-25T09:11:58Z</time>
      </trkpt>
      <trkpt lat="44.1606" lon="5.03745">
        <ele>355</ele>
        <time>2020-10-25T09:12:02Z</time>
      </trkpt>
      <trkpt lat="44.16052" lon="5.03736">
        <ele>359</ele>
        <time>2020-10-25T09:12:13Z</time>
      </trkpt>
      <trkpt lat="44.16051" lon="5.03735">
        <ele>359</ele>
        <time>2020-10-25T09:12:15Z</time>
      </trkpt>
      <trkpt lat="44.16051" lon="5.03734">
        <ele>360</ele>
        <time>2020-10-25T09:12:17Z</time>
      </trkpt>
      <trkpt lat="44.16045" lon="5.03735">
        <ele>362</ele>
        <time>2020-10-25T09:12:27Z</time>
      </trkpt>
      <trkpt lat="44.16042" lon="5.03729">
        <ele>364</ele>
        <time>2020-10-25T09:12:34Z</time>
      </trkpt>
      <trkpt lat="44.16041" lon="5.03727">
        <ele>365</ele>
        <time>2020-10-25T09:12:35Z</time>
      </trkpt>
      <trkpt lat="44.1604" lon="5.0372">
        <ele>366</ele>
        <time>2020-10-25T09:12:45Z</time>
      </trkpt>
      <trkpt lat="44.1604" lon="5.03719">
        <ele>366</ele>
        <time>2020-10-25T09:12:46Z</time>
      </trkpt>
      <trkpt lat="44.16039" lon="5.03717">
        <ele>366</ele>
        <time>2020-10-25T09:12:47Z</time>
      </trkpt>
      <trkpt lat="44.16039" lon="5.03715">
        <ele>366</ele>
        <time>2020-10-25T09:12:48Z</time>
      </trkpt>
      <trkpt lat="44.16038" lon="5.03713">
        <ele>367</ele>
        <time>2020-10-25T09:12:49Z</time>
      </trkpt>
      <trkpt lat="44.16038" lon="5.0371">
        <ele>367</ele>
        <time>2020-10-25T09:12:50Z</time>
      </trkpt>
      <trkpt lat="44.16037" lon="5.03708">
        <ele>368</ele>
        <time>2020-10-25T09:12:51Z</time>
      </trkpt>
      <trkpt lat="44.16036" lon="5.03706">
        <ele>368</ele>
        <time>2020-10-25T09:12:52Z</time>
      </trkpt>
      <trkpt lat="44.16035" lon="5.03704">
        <ele>369</ele>
        <time>2020-10-25T09:12:53Z</time>
      </trkpt>
      <trkpt lat="44.16032" lon="5.03698">
        <ele>371</ele>
        <time>2020-10-25T09:12:59Z</time>
      </trkpt>
      <trkpt lat="44.16025" lon="5.03686">
        <ele>375</ele>
        <time>2020-10-25T09:13:11Z</time>
      </trkpt>
      <trkpt lat="44.16021" lon="5.03683">
        <ele>377</ele>
        <time>2020-10-25T09:13:15Z</time>
      </trkpt>
      <trkpt lat="44.16019" lon="5.03681">
        <ele>379</ele>
        <time>2020-10-25T09:13:17Z</time>
      </trkpt>
      <trkpt lat="44.16016" lon="5.03684">
        <ele>380</ele>
        <time>2020-10-25T09:13:22Z</time>
      </trkpt>
      <trkpt lat="44.16012" lon="5.03688">
        <ele>382</ele>
        <time>2020-10-25T09:13:49Z</time>
      </trkpt>
      <trkpt lat="44.16011" lon="5.0369">
        <ele>382</ele>
        <time>2020-10-25T09:13:52Z</time>
      </trkpt>
      <trkpt lat="44.16009" lon="5.03696">
        <ele>382</ele>
        <time>2020-10-25T09:13:57Z</time>
      </trkpt>
      <trkpt lat="44.16006" lon="5.03696">
        <ele>384</ele>
        <time>2020-10-25T09:14:01Z</time>
      </trkpt>
      <trkpt lat="44.16002" lon="5.03693">
        <ele>386</ele>
        <time>2020-10-25T09:14:33Z</time>
      </trkpt>
      <trkpt lat="44.15999" lon="5.03691">
        <ele>388</ele>
        <time>2020-10-25T09:14:39Z</time>
      </trkpt>
      <trkpt lat="44.15998" lon="5.03691">
        <ele>389</ele>
        <time>2020-10-25T09:14:40Z</time>
      </trkpt>
      <trkpt lat="44.15996" lon="5.03693">
        <ele>390</ele>
        <time>2020-10-25T09:14:46Z</time>
      </trkpt>
      <trkpt lat="44.15993" lon="5.03696">
        <ele>391</ele>
        <time>2020-10-25T09:14:54Z</time>
      </trkpt>
      <trkpt lat="44.15992" lon="5.03696">
        <ele>392</ele>
        <time>2020-10-25T09:14:56Z</time>
      </trkpt>
      <trkpt lat="44.15989" lon="5.03699">
        <ele>394</ele>
        <time>2020-10-25T09:15:05Z</time>
      </trkpt>
      <trkpt lat="44.15988" lon="5.03701">
        <ele>395</ele>
        <time>2020-10-25T09:15:07Z</time>
      </trkpt>
      <trkpt lat="44.15987" lon="5.03703">
        <ele>396</ele>
        <time>2020-10-25T09:15:15Z</time>
      </trkpt>
      <trkpt lat="44.15983" lon="5.03706">
        <ele>399</ele>
        <time>2020-10-25T09:15:22Z</time>
      </trkpt>
      <trkpt lat="44.15978" lon="5.03706">
        <ele>402</ele>
        <time>2020-10-25T09:15:30Z</time>
      </trkpt>
      <trkpt lat="44.15976" lon="5.03701">
        <ele>403</ele>
        <time>2020-10-25T09:15:35Z</time>
      </trkpt>
      <trkpt lat="44.15973" lon="5.03699">
        <ele>405</ele>
        <time>2020-10-25T09:15:42Z</time>
      </trkpt>
      <trkpt lat="44.15969" lon="5.03698">
        <ele>408</ele>
        <time>2020-10-25T09:15:47Z</time>
      </trkpt>
      <trkpt lat="44.15969" lon="5.03696">
        <ele>408</ele>
        <time>2020-10-25T09:15:50Z</time>
      </trkpt>
      <trkpt lat="44.15968" lon="5.03691">
        <ele>409</ele>
        <time>2020-10-25T09:15:58Z</time>
      </trkpt>
      <trkpt lat="44.15966" lon="5.03685">
        <ele>410</ele>
        <time>2020-10-25T09:16:05Z</time>
      </trkpt>
      <trkpt lat="44.15965" lon="5.03678">
        <ele>411</ele>
        <time>2020-10-25T09:16:09Z</time>
      </trkpt>
      <trkpt lat="44.15965" lon="5.03669">
        <ele>410</ele>
        <time>2020-10-25T09:16:13Z</time>
      </trkpt>
      <trkpt lat="44.15966" lon="5.03658">
        <ele>408</ele>
        <time>2020-10-25T09:16:19Z</time>
      </trkpt>
      <trkpt lat="44.15966" lon="5.03649">
        <ele>408</ele>
        <time>2020-10-25T09:16:31Z</time>
      </trkpt>
      <trkpt lat="44.15964" lon="5.0364">
        <ele>409</ele>
        <time>2020-10-25T09:16:40Z</time>
      </trkpt>
      <trkpt lat="44.15963" lon="5.03638">
        <ele>409</ele>
        <time>2020-10-25T09:16:43Z</time>
      </trkpt>
      <trkpt lat="44.1596" lon="5.03635">
        <ele>411</ele>
        <time>2020-10-25T09:16:49Z</time>
      </trkpt>
      <trkpt lat="44.15959" lon="5.03632">
        <ele>412</ele>
        <time>2020-10-25T09:17:00Z</time>
      </trkpt>
      <trkpt lat="44.15955" lon="5.03625">
        <ele>414</ele>
        <time>2020-10-25T09:17:10Z</time>
      </trkpt>
      <trkpt lat="44.15953" lon="5.0362">
        <ele>414</ele>
        <time>2020-10-25T09:17:13Z</time>
      </trkpt>
      <trkpt lat="44.15951" lon="5.03618">
        <ele>415</ele>
        <time>2020-10-25T09:17:17Z</time>
      </trkpt>
      <trkpt lat="44.15949" lon="5.03612">
        <ele>416</ele>
        <time>2020-10-25T09:17:25Z</time>
      </trkpt>
      <trkpt lat="44.15946" lon="5.03608">
        <ele>417</ele>
        <time>2020-10-25T09:17:36Z</time>
      </trkpt>
      <trkpt lat="44.15942" lon="5.03602">
        <ele>420</ele>
        <time>2020-10-25T09:17:43Z</time>
      </trkpt>
      <trkpt lat="44.15938" lon="5.0359">
        <ele>422</ele>
        <time>2020-10-25T09:17:53Z</time>
      </trkpt>
      <trkpt lat="44.15933" lon="5.03588">
        <ele>426</ele>
        <time>2020-10-25T09:18:03Z</time>
      </trkpt>
      <trkpt lat="44.15929" lon="5.03583">
        <ele>429</ele>
        <time>2020-10-25T09:18:11Z</time>
      </trkpt>
      <trkpt lat="44.15922" lon="5.03573">
        <ele>435</ele>
        <time>2020-10-25T09:18:21Z</time>
      </trkpt>
      <trkpt lat="44.15915" lon="5.03562">
        <ele>440</ele>
        <time>2020-10-25T09:18:32Z</time>
      </trkpt>
      <trkpt lat="44.15913" lon="5.03549">
        <ele>440</ele>
        <time>2020-10-25T09:18:42Z</time>
      </trkpt>
      <trkpt lat="44.15913" lon="5.03541">
        <ele>439</ele>
        <time>2020-10-25T09:18:53Z</time>
      </trkpt>
      <trkpt lat="44.1591" lon="5.03538">
        <ele>441</ele>
        <time>2020-10-25T09:19:02Z</time>
      </trkpt>
      <trkpt lat="44.15907" lon="5.03538">
        <ele>445</ele>
        <time>2020-10-25T09:19:13Z</time>
      </trkpt>
      <trkpt lat="44.15902" lon="5.03533">
        <ele>448</ele>
        <time>2020-10-25T09:19:26Z</time>
      </trkpt>
      <trkpt lat="44.15901" lon="5.03532">
        <ele>448</ele>
        <time>2020-10-25T09:19:28Z</time>
      </trkpt>
      <trkpt lat="44.15902" lon="5.03528">
        <ele>446</ele>
        <time>2020-10-25T09:19:31Z</time>
      </trkpt>
      <trkpt lat="44.15905" lon="5.03522">
        <ele>443</ele>
        <time>2020-10-25T09:19:39Z</time>
      </trkpt>
      <trkpt lat="44.15905" lon="5.03521">
        <ele>442</ele>
        <time>2020-10-25T09:19:40Z</time>
      </trkpt>
      <trkpt lat="44.15905" lon="5.0352">
        <ele>442</ele>
        <time>2020-10-25T09:19:41Z</time>
      </trkpt>
      <trkpt lat="44.15903" lon="5.03518">
        <ele>443</ele>
        <time>2020-10-25T09:19:44Z</time>
      </trkpt>
      <trkpt lat="44.15902" lon="5.03511">
        <ele>443</ele>
        <time>2020-10-25T09:19:54Z</time>
      </trkpt>
      <trkpt lat="44.15901" lon="5.03509">
        <ele>443</ele>
        <time>2020-10-25T09:19:56Z</time>
      </trkpt>
      <trkpt lat="44.15902" lon="5.03503">
        <ele>441</ele>
        <time>2020-10-25T09:19:59Z</time>
      </trkpt>
      <trkpt lat="44.15902" lon="5.03498">
        <ele>440</ele>
        <time>2020-10-25T09:20:01Z</time>
      </trkpt>
      <trkpt lat="44.15901" lon="5.03496">
        <ele>440</ele>
        <time>2020-10-25T09:20:02Z</time>
      </trkpt>
      <trkpt lat="44.15901" lon="5.03494">
        <ele>440</ele>
        <time>2020-10-25T09:20:03Z</time>
      </trkpt>
      <trkpt lat="44.15898" lon="5.03483">
        <ele>440</ele>
        <time>2020-10-25T09:20:11Z</time>
      </trkpt>
      <trkpt lat="44.15897" lon="5.03482">
        <ele>440</ele>
        <time>2020-10-25T09:20:12Z</time>
      </trkpt>
      <trkpt lat="44.15894" lon="5.03479">
        <ele>441</ele>
        <time>2020-10-25T09:20:16Z</time>
      </trkpt>
      <trkpt lat="44.15891" lon="5.03478">
        <ele>443</ele>
        <time>2020-10-25T09:20:23Z</time>
      </trkpt>
      <trkpt lat="44.15888" lon="5.03474">
        <ele>444</ele>
        <time>2020-10-25T09:20:28Z</time>
      </trkpt>
      <trkpt lat="44.1589" lon="5.03467">
        <ele>441</ele>
        <time>2020-10-25T09:20:36Z</time>
      </trkpt>
      <trkpt lat="44.15891" lon="5.03466">
        <ele>441</ele>
        <time>2020-10-25T09:20:37Z</time>
      </trkpt>
      <trkpt lat="44.15891" lon="5.03464">
        <ele>440</ele>
        <time>2020-10-25T09:20:38Z</time>
      </trkpt>
      <trkpt lat="44.15894" lon="5.03455">
        <ele>436</ele>
        <time>2020-10-25T09:20:45Z</time>
      </trkpt>
      <trkpt lat="44.15893" lon="5.03453">
        <ele>436</ele>
        <time>2020-10-25T09:20:46Z</time>
      </trkpt>
      <trkpt lat="44.15885" lon="5.03426">
        <ele>437</ele>
        <time>2020-10-25T09:20:58Z</time>
      </trkpt>
      <trkpt lat="44.15882" lon="5.0342">
        <ele>438</ele>
        <time>2020-10-25T09:21:01Z</time>
      </trkpt>
      <trkpt lat="44.15874" lon="5.03399">
        <ele>440</ele>
        <time>2020-10-25T09:21:09Z</time>
      </trkpt>
      <trkpt lat="44.15872" lon="5.03394">
        <ele>440</ele>
        <time>2020-10-25T09:21:12Z</time>
      </trkpt>
      <trkpt lat="44.15871" lon="5.0339">
        <ele>440</ele>
        <time>2020-10-25T09:21:20Z</time>
      </trkpt>
      <trkpt lat="44.15866" lon="5.03385">
        <ele>442</ele>
        <time>2020-10-25T09:21:27Z</time>
      </trkpt>
      <trkpt lat="44.15865" lon="5.03384">
        <ele>442</ele>
        <time>2020-10-25T09:21:28Z</time>
      </trkpt>
      <trkpt lat="44.15863" lon="5.03382">
        <ele>444</ele>
        <time>2020-10-25T09:21:33Z</time>
      </trkpt>
      <trkpt lat="44.15862" lon="5.03378">
        <ele>444</ele>
        <time>2020-10-25T09:21:36Z</time>
      </trkpt>
      <trkpt lat="44.15862" lon="5.03371">
        <ele>443</ele>
        <time>2020-10-25T09:21:39Z</time>
      </trkpt>
      <trkpt lat="44.15861" lon="5.03365">
        <ele>443</ele>
        <time>2020-10-25T09:21:42Z</time>
      </trkpt>
      <trkpt lat="44.15856" lon="5.03351">
        <ele>445</ele>
        <time>2020-10-25T09:21:49Z</time>
      </trkpt>
      <trkpt lat="44.15855" lon="5.03334">
        <ele>445</ele>
        <time>2020-10-25T09:21:59Z</time>
      </trkpt>
      <trkpt lat="44.15855" lon="5.03329">
        <ele>445</ele>
        <time>2020-10-25T09:22:01Z</time>
      </trkpt>
      <trkpt lat="44.15854" lon="5.03327">
        <ele>445</ele>
        <time>2020-10-25T09:22:02Z</time>
      </trkpt>
      <trkpt lat="44.15853" lon="5.03325">
        <ele>446</ele>
        <time>2020-10-25T09:22:03Z</time>
      </trkpt>
      <trkpt lat="44.15851" lon="5.03321">
        <ele>447</ele>
        <time>2020-10-25T09:22:05Z</time>
      </trkpt>
      <trkpt lat="44.15851" lon="5.03319">
        <ele>447</ele>
        <time>2020-10-25T09:22:06Z</time>
      </trkpt>
      <trkpt lat="44.15846" lon="5.03308">
        <ele>449</ele>
        <time>2020-10-25T09:22:15Z</time>
      </trkpt>
      <trkpt lat="44.15843" lon="5.03299">
        <ele>451</ele>
        <time>2020-10-25T09:22:24Z</time>
      </trkpt>
      <trkpt lat="44.15842" lon="5.0329">
        <ele>452</ele>
        <time>2020-10-25T09:22:31Z</time>
      </trkpt>
      <trkpt lat="44.15841" lon="5.03288">
        <ele>453</ele>
        <time>2020-10-25T09:22:32Z</time>
      </trkpt>
      <trkpt lat="44.15835" lon="5.03274">
        <ele>457</ele>
        <time>2020-10-25T09:22:38Z</time>
      </trkpt>
      <trkpt lat="44.15828" lon="5.03258">
        <ele>461</ele>
        <time>2020-10-25T09:22:49Z</time>
      </trkpt>
      <trkpt lat="44.15825" lon="5.03253">
        <ele>463</ele>
        <time>2020-10-25T09:22:54Z</time>
      </trkpt>
      <trkpt lat="44.15823" lon="5.0325">
        <ele>464</ele>
        <time>2020-10-25T09:22:57Z</time>
      </trkpt>
      <trkpt lat="44.15821" lon="5.03245">
        <ele>466</ele>
        <time>2020-10-25T09:23:02Z</time>
      </trkpt>
      <trkpt lat="44.1582" lon="5.03241">
        <ele>465</ele>
        <time>2020-10-25T09:23:08Z</time>
      </trkpt>
      <trkpt lat="44.15819" lon="5.03239">
        <ele>466</ele>
        <time>2020-10-25T09:23:10Z</time>
      </trkpt>
      <trkpt lat="44.15818" lon="5.03238">
        <ele>467</ele>
        <time>2020-10-25T09:23:11Z</time>
      </trkpt>
      <trkpt lat="44.15817" lon="5.03237">
        <ele>467</ele>
        <time>2020-10-25T09:23:12Z</time>
      </trkpt>
      <trkpt lat="44.15815" lon="5.03235">
        <ele>468</ele>
        <time>2020-10-25T09:23:14Z</time>
      </trkpt>
      <trkpt lat="44.15815" lon="5.03233">
        <ele>468</ele>
        <time>2020-10-25T09:23:15Z</time>
      </trkpt>
      <trkpt lat="44.15815" lon="5.03231">
        <ele>468</ele>
        <time>2020-10-25T09:23:16Z</time>
      </trkpt>
      <trkpt lat="44.15815" lon="5.03228">
        <ele>468</ele>
        <time>2020-10-25T09:23:17Z</time>
      </trkpt>
      <trkpt lat="44.15814" lon="5.03226">
        <ele>468</ele>
        <time>2020-10-25T09:23:18Z</time>
      </trkpt>
      <trkpt lat="44.15813" lon="5.03224">
        <ele>468</ele>
        <time>2020-10-25T09:23:19Z</time>
      </trkpt>
      <trkpt lat="44.15811" lon="5.03212">
        <ele>468</ele>
        <time>2020-10-25T09:23:27Z</time>
      </trkpt>
      <trkpt lat="44.1581" lon="5.03211">
        <ele>469</ele>
        <time>2020-10-25T09:23:28Z</time>
      </trkpt>
      <trkpt lat="44.15808" lon="5.03211">
        <ele>470</ele>
        <time>2020-10-25T09:23:35Z</time>
      </trkpt>
      <trkpt lat="44.15805" lon="5.03207">
        <ele>471</ele>
        <time>2020-10-25T09:23:44Z</time>
      </trkpt>
      <trkpt lat="44.15804" lon="5.03203">
        <ele>471</ele>
        <time>2020-10-25T09:23:51Z</time>
      </trkpt>
      <trkpt lat="44.15803" lon="5.03202">
        <ele>472</ele>
        <time>2020-10-25T09:23:52Z</time>
      </trkpt>
      <trkpt lat="44.15802" lon="5.03201">
        <ele>472</ele>
        <time>2020-10-25T09:23:53Z</time>
      </trkpt>
      <trkpt lat="44.15801" lon="5.032">
        <ele>473</ele>
        <time>2020-10-25T09:23:54Z</time>
      </trkpt>
      <trkpt lat="44.158" lon="5.032">
        <ele>474</ele>
        <time>2020-10-25T09:23:55Z</time>
      </trkpt>
      <trkpt lat="44.15799" lon="5.032">
        <ele>474</ele>
        <time>2020-10-25T09:23:56Z</time>
      </trkpt>
      <trkpt lat="44.15793" lon="5.03199">
        <ele>478</ele>
        <time>2020-10-25T09:24:04Z</time>
      </trkpt>
      <trkpt lat="44.15791" lon="5.03195">
        <ele>479</ele>
        <time>2020-10-25T09:24:08Z</time>
      </trkpt>
      <trkpt lat="44.15791" lon="5.03193">
        <ele>480</ele>
        <time>2020-10-25T09:24:09Z</time>
      </trkpt>
      <trkpt lat="44.15789" lon="5.03191">
        <ele>480</ele>
        <time>2020-10-25T09:24:11Z</time>
      </trkpt>
      <trkpt lat="44.15788" lon="5.03185">
        <ele>480</ele>
        <time>2020-10-25T09:24:17Z</time>
      </trkpt>
      <trkpt lat="44.15783" lon="5.03177">
        <ele>482</ele>
        <time>2020-10-25T09:24:25Z</time>
      </trkpt>
      <trkpt lat="44.15782" lon="5.03166">
        <ele>480</ele>
        <time>2020-10-25T09:24:32Z</time>
      </trkpt>
      <trkpt lat="44.15781" lon="5.03164">
        <ele>480</ele>
        <time>2020-10-25T09:24:33Z</time>
      </trkpt>
      <trkpt lat="44.15776" lon="5.03145">
        <ele>478</ele>
        <time>2020-10-25T09:24:43Z</time>
      </trkpt>
      <trkpt lat="44.15767" lon="5.03129">
        <ele>480</ele>
        <time>2020-10-25T09:24:53Z</time>
      </trkpt>
      <trkpt lat="44.15769" lon="5.03122">
        <ele>477</ele>
        <time>2020-10-25T09:25:03Z</time>
      </trkpt>
      <trkpt lat="44.15765" lon="5.03116">
        <ele>479</ele>
        <time>2020-10-25T09:25:10Z</time>
      </trkpt>
      <trkpt lat="44.1576" lon="5.03111">
        <ele>481</ele>
        <time>2020-10-25T09:25:19Z</time>
      </trkpt>
      <trkpt lat="44.15754" lon="5.03106">
        <ele>484</ele>
        <time>2020-10-25T09:25:28Z</time>
      </trkpt>
      <trkpt lat="44.15751" lon="5.03106">
        <ele>486</ele>
        <time>2020-10-25T09:25:32Z</time>
      </trkpt>
      <trkpt lat="44.15745" lon="5.03104">
        <ele>490</ele>
        <time>2020-10-25T09:25:39Z</time>
      </trkpt>
      <trkpt lat="44.15742" lon="5.03105">
        <ele>493</ele>
        <time>2020-10-25T09:25:44Z</time>
      </trkpt>
      <trkpt lat="44.15741" lon="5.03104">
        <ele>493</ele>
        <time>2020-10-25T09:25:45Z</time>
      </trkpt>
      <trkpt lat="44.15737" lon="5.03098">
        <ele>495</ele>
        <time>2020-10-25T09:25:53Z</time>
      </trkpt>
      <trkpt lat="44.15731" lon="5.03094">
        <ele>497</ele>
        <time>2020-10-25T09:26:03Z</time>
      </trkpt>
      <trkpt lat="44.15723" lon="5.03085">
        <ele>500</ele>
        <time>2020-10-25T09:26:14Z</time>
      </trkpt>
      <trkpt lat="44.15718" lon="5.03078">
        <ele>502</ele>
        <time>2020-10-25T09:26:23Z</time>
      </trkpt>
      <trkpt lat="44.15714" lon="5.03076">
        <ele>505</ele>
        <time>2020-10-25T09:26:33Z</time>
      </trkpt>
      <trkpt lat="44.15711" lon="5.03071">
        <ele>507</ele>
        <time>2020-10-25T09:26:42Z</time>
      </trkpt>
      <trkpt lat="44.15711" lon="5.03068">
        <ele>506</ele>
        <time>2020-10-25T09:26:45Z</time>
      </trkpt>
      <trkpt lat="44.15711" lon="5.03066">
        <ele>505</ele>
        <time>2020-10-25T09:26:46Z</time>
      </trkpt>
      <trkpt lat="44.1571" lon="5.03064">
        <ele>505</ele>
        <time>2020-10-25T09:26:47Z</time>
      </trkpt>
      <trkpt lat="44.15709" lon="5.03062">
        <ele>506</ele>
        <time>2020-10-25T09:26:48Z</time>
      </trkpt>
      <trkpt lat="44.15705" lon="5.03056">
        <ele>507</ele>
        <time>2020-10-25T09:26:55Z</time>
      </trkpt>
      <trkpt lat="44.15704" lon="5.03055">
        <ele>508</ele>
        <time>2020-10-25T09:26:56Z</time>
      </trkpt>
      <trkpt lat="44.15702" lon="5.03052">
        <ele>509</ele>
        <time>2020-10-25T09:26:58Z</time>
      </trkpt>
      <trkpt lat="44.15697" lon="5.03051">
        <ele>512</ele>
        <time>2020-10-25T09:27:02Z</time>
      </trkpt>
      <trkpt lat="44.15694" lon="5.0305">
        <ele>514</ele>
        <time>2020-10-25T09:27:11Z</time>
      </trkpt>
      <trkpt lat="44.15688" lon="5.03044">
        <ele>516</ele>
        <time>2020-10-25T09:27:19Z</time>
      </trkpt>
      <trkpt lat="44.15684" lon="5.03037">
        <ele>516</ele>
        <time>2020-10-25T09:27:26Z</time>
      </trkpt>
      <trkpt lat="44.15684" lon="5.03035">
        <ele>516</ele>
        <time>2020-10-25T09:27:27Z</time>
      </trkpt>
      <trkpt lat="44.15683" lon="5.03033">
        <ele>516</ele>
        <time>2020-10-25T09:27:28Z</time>
      </trkpt>
      <trkpt lat="44.15682" lon="5.03031">
        <ele>516</ele>
        <time>2020-10-25T09:27:29Z</time>
      </trkpt>
      <trkpt lat="44.15681" lon="5.03028">
        <ele>515</ele>
        <time>2020-10-25T09:27:30Z</time>
      </trkpt>
      <trkpt lat="44.15673" lon="5.03017">
        <ele>516</ele>
        <time>2020-10-25T09:27:40Z</time>
      </trkpt>
      <trkpt lat="44.1567" lon="5.03011">
        <ele>516</ele>
        <time>2020-10-25T09:27:46Z</time>
      </trkpt>
      <trkpt lat="44.15666" lon="5.03001">
        <ele>516</ele>
        <time>2020-10-25T09:27:55Z</time>
      </trkpt>
      <trkpt lat="44.15663" lon="5.02992">
        <ele>516</ele>
        <time>2020-10-25T09:28:02Z</time>
      </trkpt>
      <trkpt lat="44.15662" lon="5.0299">
        <ele>516</ele>
        <time>2020-10-25T09:28:03Z</time>
      </trkpt>
      <trkpt lat="44.15661" lon="5.02989">
        <ele>517</ele>
        <time>2020-10-25T09:28:04Z</time>
      </trkpt>
      <trkpt lat="44.1566" lon="5.02987">
        <ele>517</ele>
        <time>2020-10-25T09:28:05Z</time>
      </trkpt>
      <trkpt lat="44.15654" lon="5.0298">
        <ele>520</ele>
        <time>2020-10-25T09:28:13Z</time>
      </trkpt>
      <trkpt lat="44.15651" lon="5.02977">
        <ele>522</ele>
        <time>2020-10-25T09:28:26Z</time>
      </trkpt>
      <trkpt lat="44.15649" lon="5.0297">
        <ele>522</ele>
        <time>2020-10-25T09:28:34Z</time>
      </trkpt>
      <trkpt lat="44.15648" lon="5.02968">
        <ele>522</ele>
        <time>2020-10-25T09:28:36Z</time>
      </trkpt>
      <trkpt lat="44.15647" lon="5.02965">
        <ele>522</ele>
        <time>2020-10-25T09:28:38Z</time>
      </trkpt>
      <trkpt lat="44.15646" lon="5.02963">
        <ele>522</ele>
        <time>2020-10-25T09:28:39Z</time>
      </trkpt>
      <trkpt lat="44.15644" lon="5.02959">
        <ele>523</ele>
        <time>2020-10-25T09:28:42Z</time>
      </trkpt>
      <trkpt lat="44.1564" lon="5.0294">
        <ele>521</ele>
        <time>2020-10-25T09:28:52Z</time>
      </trkpt>
      <trkpt lat="44.15637" lon="5.02931">
        <ele>521</ele>
        <time>2020-10-25T09:28:58Z</time>
      </trkpt>
      <trkpt lat="44.15633" lon="5.02927">
        <ele>522</ele>
        <time>2020-10-25T09:29:03Z</time>
      </trkpt>
      <trkpt lat="44.15627" lon="5.02909">
        <ele>523</ele>
        <time>2020-10-25T09:29:13Z</time>
      </trkpt>
      <trkpt lat="44.15626" lon="5.02906">
        <ele>523</ele>
        <time>2020-10-25T09:29:14Z</time>
      </trkpt>
      <trkpt lat="44.15624" lon="5.02904">
        <ele>524</ele>
        <time>2020-10-25T09:29:15Z</time>
      </trkpt>
      <trkpt lat="44.15622" lon="5.02902">
        <ele>525</ele>
        <time>2020-10-25T09:29:16Z</time>
      </trkpt>
      <trkpt lat="44.15621" lon="5.029">
        <ele>525</ele>
        <time>2020-10-25T09:29:17Z</time>
      </trkpt>
      <trkpt lat="44.15619" lon="5.02895">
        <ele>526</ele>
        <time>2020-10-25T09:29:19Z</time>
      </trkpt>
      <trkpt lat="44.15619" lon="5.02892">
        <ele>526</ele>
        <time>2020-10-25T09:29:20Z</time>
      </trkpt>
      <trkpt lat="44.15619" lon="5.02889">
        <ele>526</ele>
        <time>2020-10-25T09:29:21Z</time>
      </trkpt>
      <trkpt lat="44.15619" lon="5.02887">
        <ele>525</ele>
        <time>2020-10-25T09:29:22Z</time>
      </trkpt>
      <trkpt lat="44.15619" lon="5.02884">
        <ele>525</ele>
        <time>2020-10-25T09:29:23Z</time>
      </trkpt>
      <trkpt lat="44.15619" lon="5.0288">
        <ele>525</ele>
        <time>2020-10-25T09:29:24Z</time>
      </trkpt>
      <trkpt lat="44.15618" lon="5.02877">
        <ele>525</ele>
        <time>2020-10-25T09:29:25Z</time>
      </trkpt>
      <trkpt lat="44.15617" lon="5.02874">
        <ele>526</ele>
        <time>2020-10-25T09:29:26Z</time>
      </trkpt>
      <trkpt lat="44.15615" lon="5.02871">
        <ele>527</ele>
        <time>2020-10-25T09:29:28Z</time>
      </trkpt>
      <trkpt lat="44.15613" lon="5.02869">
        <ele>528</ele>
        <time>2020-10-25T09:29:30Z</time>
      </trkpt>
      <trkpt lat="44.15612" lon="5.02868">
        <ele>529</ele>
        <time>2020-10-25T09:29:31Z</time>
      </trkpt>
      <trkpt lat="44.15609" lon="5.02864">
        <ele>529</ele>
        <time>2020-10-25T09:29:46Z</time>
      </trkpt>
      <trkpt lat="44.15608" lon="5.02864">
        <ele>530</ele>
        <time>2020-10-25T09:29:55Z</time>
      </trkpt>
      <trkpt lat="44.15611" lon="5.02852">
        <ele>528</ele>
        <time>2020-10-25T09:30:04Z</time>
      </trkpt>
      <trkpt lat="44.15605" lon="5.02839">
        <ele>530</ele>
        <time>2020-10-25T09:30:15Z</time>
      </trkpt>
      <trkpt lat="44.15604" lon="5.02835">
        <ele>530</ele>
        <time>2020-10-25T09:30:18Z</time>
      </trkpt>
      <trkpt lat="44.15602" lon="5.02831">
        <ele>531</ele>
        <time>2020-10-25T09:30:20Z</time>
      </trkpt>
      <trkpt lat="44.15601" lon="5.02829">
        <ele>531</ele>
        <time>2020-10-25T09:30:21Z</time>
      </trkpt>
      <trkpt lat="44.15599" lon="5.02825">
        <ele>532</ele>
        <time>2020-10-25T09:30:24Z</time>
      </trkpt>
      <trkpt lat="44.15598" lon="5.02816">
        <ele>532</ele>
        <time>2020-10-25T09:30:29Z</time>
      </trkpt>
      <trkpt lat="44.15592" lon="5.0279">
        <ele>535</ele>
        <time>2020-10-25T09:30:40Z</time>
      </trkpt>
      <trkpt lat="44.15602" lon="5.02771">
        <ele>530</ele>
        <time>2020-10-25T09:33:35Z</time>
      </trkpt>
      <trkpt lat="44.15602" lon="5.0277">
        <ele>530</ele>
        <time>2020-10-25T09:33:36Z</time>
      </trkpt>
      <trkpt lat="44.15603" lon="5.02767">
        <ele>529</ele>
        <time>2020-10-25T09:33:44Z</time>
      </trkpt>
      <trkpt lat="44.15605" lon="5.02754">
        <ele>528</ele>
        <time>2020-10-25T09:33:55Z</time>
      </trkpt>
      <trkpt lat="44.15605" lon="5.02744">
        <ele>527</ele>
        <time>2020-10-25T09:34:10Z</time>
      </trkpt>
      <trkpt lat="44.15607" lon="5.02738">
        <ele>526</ele>
        <time>2020-10-25T09:34:16Z</time>
      </trkpt>
      <trkpt lat="44.15607" lon="5.0273">
        <ele>526</ele>
        <time>2020-10-25T09:35:29Z</time>
      </trkpt>
      <trkpt lat="44.1561" lon="5.02728">
        <ele>523</ele>
        <time>2020-10-25T09:35:31Z</time>
      </trkpt>
      <trkpt lat="44.15611" lon="5.02724">
        <ele>522</ele>
        <time>2020-10-25T09:35:34Z</time>
      </trkpt>
      <trkpt lat="44.15612" lon="5.02715">
        <ele>522</ele>
        <time>2020-10-25T09:35:44Z</time>
      </trkpt>
      <trkpt lat="44.15614" lon="5.02711">
        <ele>520</ele>
        <time>2020-10-25T09:35:48Z</time>
      </trkpt>
      <trkpt lat="44.15616" lon="5.02704">
        <ele>519</ele>
        <time>2020-10-25T09:35:53Z</time>
      </trkpt>
      <trkpt lat="44.15621" lon="5.0269">
        <ele>515</ele>
        <time>2020-10-25T09:36:01Z</time>
      </trkpt>
      <trkpt lat="44.15622" lon="5.02677">
        <ele>514</ele>
        <time>2020-10-25T09:36:08Z</time>
      </trkpt>
      <trkpt lat="44.15624" lon="5.02672">
        <ele>512</ele>
        <time>2020-10-25T09:36:16Z</time>
      </trkpt>
      <trkpt lat="44.15626" lon="5.02669">
        <ele>511</ele>
        <time>2020-10-25T09:36:19Z</time>
      </trkpt>
      <trkpt lat="44.15628" lon="5.02664">
        <ele>510</ele>
        <time>2020-10-25T09:36:28Z</time>
      </trkpt>
      <trkpt lat="44.15638" lon="5.02658">
        <ele>500</ele>
        <time>2020-10-25T09:36:36Z</time>
      </trkpt>
      <trkpt lat="44.15644" lon="5.02651">
        <ele>497</ele>
        <time>2020-10-25T09:36:42Z</time>
      </trkpt>
      <trkpt lat="44.15651" lon="5.02639">
        <ele>494</ele>
        <time>2020-10-25T09:36:52Z</time>
      </trkpt>
      <trkpt lat="44.15654" lon="5.02634">
        <ele>492</ele>
        <time>2020-10-25T09:36:57Z</time>
      </trkpt>
      <trkpt lat="44.15655" lon="5.02632">
        <ele>492</ele>
        <time>2020-10-25T09:36:58Z</time>
      </trkpt>
      <trkpt lat="44.1566" lon="5.02623">
        <ele>490</ele>
        <time>2020-10-25T09:37:04Z</time>
      </trkpt>
      <trkpt lat="44.15666" lon="5.0261">
        <ele>486</ele>
        <time>2020-10-25T09:37:12Z</time>
      </trkpt>
      <trkpt lat="44.15669" lon="5.02604">
        <ele>485</ele>
        <time>2020-10-25T09:37:17Z</time>
      </trkpt>
      <trkpt lat="44.15673" lon="5.02593">
        <ele>483</ele>
        <time>2020-10-25T09:37:23Z</time>
      </trkpt>
      <trkpt lat="44.15673" lon="5.02591">
        <ele>483</ele>
        <time>2020-10-25T09:37:24Z</time>
      </trkpt>
      <trkpt lat="44.15682" lon="5.02578">
        <ele>479</ele>
        <time>2020-10-25T09:37:33Z</time>
      </trkpt>
      <trkpt lat="44.15684" lon="5.02576">
        <ele>477</ele>
        <time>2020-10-25T09:37:35Z</time>
      </trkpt>
      <trkpt lat="44.15686" lon="5.02572">
        <ele>477</ele>
        <time>2020-10-25T09:37:37Z</time>
      </trkpt>
      <trkpt lat="44.15689" lon="5.02562">
        <ele>475</ele>
        <time>2020-10-25T09:37:43Z</time>
      </trkpt>
      <trkpt lat="44.1569" lon="5.02559">
        <ele>475</ele>
        <time>2020-10-25T09:37:44Z</time>
      </trkpt>
      <trkpt lat="44.15695" lon="5.02549">
        <ele>471</ele>
        <time>2020-10-25T09:37:50Z</time>
      </trkpt>
      <trkpt lat="44.15696" lon="5.02547">
        <ele>471</ele>
        <time>2020-10-25T09:37:51Z</time>
      </trkpt>
      <trkpt lat="44.15699" lon="5.0254">
        <ele>469</ele>
        <time>2020-10-25T09:37:54Z</time>
      </trkpt>
      <trkpt lat="44.15703" lon="5.0253">
        <ele>466</ele>
        <time>2020-10-25T09:38:03Z</time>
      </trkpt>
      <trkpt lat="44.15706" lon="5.02522">
        <ele>464</ele>
        <time>2020-10-25T09:38:14Z</time>
      </trkpt>
      <trkpt lat="44.1571" lon="5.02513">
        <ele>462</ele>
        <time>2020-10-25T09:38:21Z</time>
      </trkpt>
      <trkpt lat="44.15711" lon="5.02511">
        <ele>461</ele>
        <time>2020-10-25T09:38:22Z</time>
      </trkpt>
      <trkpt lat="44.15713" lon="5.02508">
        <ele>460</ele>
        <time>2020-10-25T09:38:24Z</time>
      </trkpt>
      <trkpt lat="44.15718" lon="5.02499">
        <ele>457</ele>
        <time>2020-10-25T09:38:32Z</time>
      </trkpt>
      <trkpt lat="44.15719" lon="5.02495">
        <ele>456</ele>
        <time>2020-10-25T09:38:34Z</time>
      </trkpt>
      <trkpt lat="44.15724" lon="5.02486">
        <ele>453</ele>
        <time>2020-10-25T09:38:39Z</time>
      </trkpt>
      <trkpt lat="44.15726" lon="5.02476">
        <ele>451</ele>
        <time>2020-10-25T09:38:46Z</time>
      </trkpt>
      <trkpt lat="44.15732" lon="5.02468">
        <ele>448</ele>
        <time>2020-10-25T09:38:52Z</time>
      </trkpt>
      <trkpt lat="44.15736" lon="5.02461">
        <ele>446</ele>
        <time>2020-10-25T09:38:56Z</time>
      </trkpt>
      <trkpt lat="44.15743" lon="5.02454">
        <ele>442</ele>
        <time>2020-10-25T09:39:02Z</time>
      </trkpt>
      <trkpt lat="44.15751" lon="5.02453">
        <ele>439</ele>
        <time>2020-10-25T09:39:09Z</time>
      </trkpt>
      <trkpt lat="44.15765" lon="5.0245">
        <ele>435</ele>
        <time>2020-10-25T09:39:16Z</time>
      </trkpt>
      <trkpt lat="44.15765" lon="5.0245">
        <ele>435</ele>
        <time>2020-10-25T09:39:17Z</time>
      </trkpt>
      <trkpt lat="44.15775" lon="5.02448">
        <ele>432</ele>
        <time>2020-10-25T09:39:24Z</time>
      </trkpt>
      <trkpt lat="44.15784" lon="5.02447">
        <ele>429</ele>
        <time>2020-10-25T09:39:32Z</time>
      </trkpt>
      <trkpt lat="44.15793" lon="5.02442">
        <ele>426</ele>
        <time>2020-10-25T09:39:38Z</time>
      </trkpt>
      <trkpt lat="44.15798" lon="5.02438">
        <ele>424</ele>
        <time>2020-10-25T09:39:41Z</time>
      </trkpt>
      <trkpt lat="44.15806" lon="5.02433">
        <ele>420</ele>
        <time>2020-10-25T09:39:48Z</time>
      </trkpt>
      <trkpt lat="44.15807" lon="5.02432">
        <ele>420</ele>
        <time>2020-10-25T09:39:49Z</time>
      </trkpt>
      <trkpt lat="44.15819" lon="5.02422">
        <ele>414</ele>
        <time>2020-10-25T09:39:58Z</time>
      </trkpt>
      <trkpt lat="44.1582" lon="5.02422">
        <ele>414</ele>
        <time>2020-10-25T09:39:59Z</time>
      </trkpt>
      <trkpt lat="44.15823" lon="5.02421">
        <ele>412</ele>
        <time>2020-10-25T09:40:01Z</time>
      </trkpt>
      <trkpt lat="44.15829" lon="5.0242">
        <ele>410</ele>
        <time>2020-10-25T09:40:06Z</time>
      </trkpt>
      <trkpt lat="44.15831" lon="5.02421">
        <ele>409</ele>
        <time>2020-10-25T09:40:08Z</time>
      </trkpt>
      <trkpt lat="44.15836" lon="5.02422">
        <ele>408</ele>
        <time>2020-10-25T09:40:13Z</time>
      </trkpt>
      <trkpt lat="44.15851" lon="5.0243">
        <ele>403</ele>
        <time>2020-10-25T09:40:23Z</time>
      </trkpt>
      <trkpt lat="44.15859" lon="5.02431">
        <ele>400</ele>
        <time>2020-10-25T09:40:33Z</time>
      </trkpt>
      <trkpt lat="44.15857" lon="5.02423">
        <ele>400</ele>
        <time>2020-10-25T09:40:41Z</time>
      </trkpt>
      <trkpt lat="44.15859" lon="5.02413">
        <ele>399</ele>
        <time>2020-10-25T09:40:49Z</time>
      </trkpt>
      <trkpt lat="44.15858" lon="5.02411">
        <ele>399</ele>
        <time>2020-10-25T09:40:51Z</time>
      </trkpt>
      <trkpt lat="44.15855" lon="5.02403">
        <ele>399</ele>
        <time>2020-10-25T09:40:58Z</time>
      </trkpt>
      <trkpt lat="44.15852" lon="5.02395">
        <ele>400</ele>
        <time>2020-10-25T09:41:03Z</time>
      </trkpt>
      <trkpt lat="44.15839" lon="5.02365">
        <ele>401</ele>
        <time>2020-10-25T09:41:13Z</time>
      </trkpt>
      <trkpt lat="44.15829" lon="5.02339">
        <ele>401</ele>
        <time>2020-10-25T09:41:22Z</time>
      </trkpt>
      <trkpt lat="44.15821" lon="5.02312">
        <ele>402</ele>
        <time>2020-10-25T09:41:31Z</time>
      </trkpt>
      <trkpt lat="44.15812" lon="5.02281">
        <ele>402</ele>
        <time>2020-10-25T09:41:41Z</time>
      </trkpt>
      <trkpt lat="44.15807" lon="5.02242">
        <ele>404</ele>
        <time>2020-10-25T09:41:53Z</time>
      </trkpt>
      <trkpt lat="44.15802" lon="5.02214">
        <ele>405</ele>
        <time>2020-10-25T09:42:02Z</time>
      </trkpt>
      <trkpt lat="44.15793" lon="5.02176">
        <ele>406</ele>
        <time>2020-10-25T09:42:14Z</time>
      </trkpt>
      <trkpt lat="44.1578" lon="5.02147">
        <ele>408</ele>
        <time>2020-10-25T09:42:25Z</time>
      </trkpt>
      <trkpt lat="44.15763" lon="5.02128">
        <ele>410</ele>
        <time>2020-10-25T09:42:34Z</time>
      </trkpt>
      <trkpt lat="44.15747" lon="5.02113">
        <ele>411</ele>
        <time>2020-10-25T09:42:43Z</time>
      </trkpt>
      <trkpt lat="44.15743" lon="5.02109">
        <ele>412</ele>
        <time>2020-10-25T09:42:45Z</time>
      </trkpt>
      <trkpt lat="44.15737" lon="5.021">
        <ele>412</ele>
        <time>2020-10-25T09:42:49Z</time>
      </trkpt>
      <trkpt lat="44.15735" lon="5.02095">
        <ele>412</ele>
        <time>2020-10-25T09:42:51Z</time>
      </trkpt>
      <trkpt lat="44.15732" lon="5.02089">
        <ele>412</ele>
        <time>2020-10-25T09:42:53Z</time>
      </trkpt>
      <trkpt lat="44.15723" lon="5.02053">
        <ele>407</ele>
        <time>2020-10-25T09:43:05Z</time>
      </trkpt>
      <trkpt lat="44.15704" lon="5.02016">
        <ele>412</ele>
        <time>2020-10-25T09:43:19Z</time>
      </trkpt>
      <trkpt lat="44.157" lon="5.01985">
        <ele>413</ele>
        <time>2020-10-25T09:43:29Z</time>
      </trkpt>
      <trkpt lat="44.15693" lon="5.0195">
        <ele>416</ele>
        <time>2020-10-25T09:43:41Z</time>
      </trkpt>
      <trkpt lat="44.1569" lon="5.01909">
        <ele>419</ele>
        <time>2020-10-25T09:43:53Z</time>
      </trkpt>
      <trkpt lat="44.1569" lon="5.01873">
        <ele>419</ele>
        <time>2020-10-25T09:44:04Z</time>
      </trkpt>
      <trkpt lat="44.15688" lon="5.01841">
        <ele>419</ele>
        <time>2020-10-25T09:44:14Z</time>
      </trkpt>
      <trkpt lat="44.15684" lon="5.01807">
        <ele>418</ele>
        <time>2020-10-25T09:44:24Z</time>
      </trkpt>
      <trkpt lat="44.15676" lon="5.01784">
        <ele>420</ele>
        <time>2020-10-25T09:44:32Z</time>
      </trkpt>
      <trkpt lat="44.15663" lon="5.0176">
        <ele>426</ele>
        <time>2020-10-25T09:44:41Z</time>
      </trkpt>
      <trkpt lat="44.15669" lon="5.01726">
        <ele>423</ele>
        <time>2020-10-25T09:44:51Z</time>
      </trkpt>
      <trkpt lat="44.15676" lon="5.01698">
        <ele>421</ele>
        <time>2020-10-25T09:45:00Z</time>
      </trkpt>
      <trkpt lat="44.15676" lon="5.01664">
        <ele>423</ele>
        <time>2020-10-25T09:45:10Z</time>
      </trkpt>
      <trkpt lat="44.15667" lon="5.01628">
        <ele>424</ele>
        <time>2020-10-25T09:45:22Z</time>
      </trkpt>
      <trkpt lat="44.15658" lon="5.016">
        <ele>424</ele>
        <time>2020-10-25T09:45:31Z</time>
      </trkpt>
      <trkpt lat="44.15651" lon="5.01566">
        <ele>424</ele>
        <time>2020-10-25T09:45:43Z</time>
      </trkpt>
      <trkpt lat="44.15652" lon="5.01533">
        <ele>421</ele>
        <time>2020-10-25T09:45:53Z</time>
      </trkpt>
      <trkpt lat="44.15648" lon="5.01501">
        <ele>422</ele>
        <time>2020-10-25T09:46:03Z</time>
      </trkpt>
      <trkpt lat="44.15647" lon="5.01465">
        <ele>422</ele>
        <time>2020-10-25T09:46:15Z</time>
      </trkpt>
      <trkpt lat="44.15646" lon="5.01423">
        <ele>426</ele>
        <time>2020-10-25T09:46:27Z</time>
      </trkpt>
      <trkpt lat="44.15649" lon="5.01392">
        <ele>427</ele>
        <time>2020-10-25T09:46:36Z</time>
      </trkpt>
      <trkpt lat="44.15656" lon="5.01359">
        <ele>425</ele>
        <time>2020-10-25T09:46:47Z</time>
      </trkpt>
      <trkpt lat="44.15662" lon="5.01322">
        <ele>426</ele>
        <time>2020-10-25T09:46:58Z</time>
      </trkpt>
      <trkpt lat="44.15668" lon="5.01283">
        <ele>429</ele>
        <time>2020-10-25T09:47:09Z</time>
      </trkpt>
      <trkpt lat="44.1568" lon="5.01241">
        <ele>431</ele>
        <time>2020-10-25T09:47:22Z</time>
      </trkpt>
      <trkpt lat="44.15691" lon="5.01208">
        <ele>433</ele>
        <time>2020-10-25T09:47:32Z</time>
      </trkpt>
      <trkpt lat="44.15698" lon="5.01185">
        <ele>434</ele>
        <time>2020-10-25T09:47:39Z</time>
      </trkpt>
      <trkpt lat="44.1571" lon="5.01151">
        <ele>434</ele>
        <time>2020-10-25T09:47:51Z</time>
      </trkpt>
      <trkpt lat="44.15712" lon="5.01117">
        <ele>434</ele>
        <time>2020-10-25T09:48:02Z</time>
      </trkpt>
      <trkpt lat="44.1571" lon="5.01112">
        <ele>434</ele>
        <time>2020-10-25T09:48:04Z</time>
      </trkpt>
      <trkpt lat="44.15697" lon="5.01101">
        <ele>433</ele>
        <time>2020-10-25T09:48:10Z</time>
      </trkpt>
      <trkpt lat="44.15675" lon="5.01083">
        <ele>431</ele>
        <time>2020-10-25T09:48:19Z</time>
      </trkpt>
      <trkpt lat="44.15658" lon="5.01066">
        <ele>427</ele>
        <time>2020-10-25T09:48:28Z</time>
      </trkpt>
      <trkpt lat="44.15638" lon="5.01048">
        <ele>425</ele>
        <time>2020-10-25T09:48:37Z</time>
      </trkpt>
      <trkpt lat="44.1562" lon="5.01032">
        <ele>421</ele>
        <time>2020-10-25T09:48:45Z</time>
      </trkpt>
      <trkpt lat="44.15594" lon="5.01022">
        <ele>419</ele>
        <time>2020-10-25T09:48:55Z</time>
      </trkpt>
      <trkpt lat="44.15591" lon="5.01017">
        <ele>419</ele>
        <time>2020-10-25T09:48:57Z</time>
      </trkpt>
      <trkpt lat="44.15591" lon="5.01014">
        <ele>418</ele>
        <time>2020-10-25T09:48:58Z</time>
      </trkpt>
      <trkpt lat="44.1559" lon="5.0101">
        <ele>418</ele>
        <time>2020-10-25T09:48:59Z</time>
      </trkpt>
      <trkpt lat="44.1559" lon="5.01007">
        <ele>418</ele>
        <time>2020-10-25T09:49:00Z</time>
      </trkpt>
      <trkpt lat="44.1559" lon="5.01003">
        <ele>418</ele>
        <time>2020-10-25T09:49:02Z</time>
      </trkpt>
      <trkpt lat="44.15591" lon="5.01002">
        <ele>418</ele>
        <time>2020-10-25T09:49:03Z</time>
      </trkpt>
      <trkpt lat="44.15604" lon="5.00979">
        <ele>417</ele>
        <time>2020-10-25T09:49:14Z</time>
      </trkpt>
      <trkpt lat="44.15611" lon="5.00972">
        <ele>416</ele>
        <time>2020-10-25T09:49:20Z</time>
      </trkpt>
      <trkpt lat="44.15613" lon="5.0097">
        <ele>416</ele>
        <time>2020-10-25T09:49:22Z</time>
      </trkpt>
      <trkpt lat="44.15621" lon="5.00965">
        <ele>413</ele>
        <time>2020-10-25T09:49:28Z</time>
      </trkpt>
      <trkpt lat="44.15627" lon="5.00959">
        <ele>411</ele>
        <time>2020-10-25T09:49:35Z</time>
      </trkpt>
      <trkpt lat="44.15636" lon="5.0095">
        <ele>409</ele>
        <time>2020-10-25T09:49:41Z</time>
      </trkpt>
      <trkpt lat="44.1564" lon="5.00946">
        <ele>407</ele>
        <time>2020-10-25T09:49:43Z</time>
      </trkpt>
      <trkpt lat="44.15641" lon="5.00944">
        <ele>407</ele>
        <time>2020-10-25T09:49:44Z</time>
      </trkpt>
      <trkpt lat="44.15649" lon="5.00929">
        <ele>404</ele>
        <time>2020-10-25T09:49:50Z</time>
      </trkpt>
      <trkpt lat="44.15649" lon="5.00927">
        <ele>404</ele>
        <time>2020-10-25T09:49:51Z</time>
      </trkpt>
      <trkpt lat="44.15655" lon="5.00915">
        <ele>402</ele>
        <time>2020-10-25T09:49:57Z</time>
      </trkpt>
      <trkpt lat="44.15663" lon="5.00908">
        <ele>397</ele>
        <time>2020-10-25T09:50:10Z</time>
      </trkpt>
      <trkpt lat="44.15663" lon="5.00908">
        <ele>397</ele>
        <time>2020-10-25T09:50:30Z</time>
      </trkpt>
      <trkpt lat="44.15665" lon="5.00904">
        <ele>396</ele>
        <time>2020-10-25T09:50:37Z</time>
      </trkpt>
      <trkpt lat="44.15665" lon="5.00903">
        <ele>395</ele>
        <time>2020-10-25T09:50:38Z</time>
      </trkpt>
      <trkpt lat="44.15666" lon="5.00901">
        <ele>395</ele>
        <time>2020-10-25T09:50:39Z</time>
      </trkpt>
      <trkpt lat="44.15667" lon="5.00899">
        <ele>394</ele>
        <time>2020-10-25T09:50:40Z</time>
      </trkpt>
      <trkpt lat="44.15668" lon="5.00896">
        <ele>394</ele>
        <time>2020-10-25T09:50:41Z</time>
      </trkpt>
      <trkpt lat="44.15668" lon="5.00894">
        <ele>393</ele>
        <time>2020-10-25T09:50:42Z</time>
      </trkpt>
      <trkpt lat="44.15674" lon="5.00869">
        <ele>390</ele>
        <time>2020-10-25T09:50:51Z</time>
      </trkpt>
      <trkpt lat="44.15675" lon="5.00863">
        <ele>389</ele>
        <time>2020-10-25T09:50:53Z</time>
      </trkpt>
      <trkpt lat="44.15682" lon="5.00846">
        <ele>385</ele>
        <time>2020-10-25T09:51:00Z</time>
      </trkpt>
      <trkpt lat="44.15684" lon="5.00842">
        <ele>383</ele>
        <time>2020-10-25T09:51:02Z</time>
      </trkpt>
      <trkpt lat="44.15689" lon="5.00831">
        <ele>381</ele>
        <time>2020-10-25T09:51:09Z</time>
      </trkpt>
      <trkpt lat="44.15693" lon="5.00821">
        <ele>379</ele>
        <time>2020-10-25T09:51:15Z</time>
      </trkpt>
      <trkpt lat="44.15699" lon="5.00812">
        <ele>376</ele>
        <time>2020-10-25T09:51:20Z</time>
      </trkpt>
      <trkpt lat="44.15703" lon="5.00794">
        <ele>374</ele>
        <time>2020-10-25T09:51:28Z</time>
      </trkpt>
      <trkpt lat="44.15708" lon="5.00784">
        <ele>371</ele>
        <time>2020-10-25T09:51:35Z</time>
      </trkpt>
      <trkpt lat="44.1571" lon="5.0078">
        <ele>369</ele>
        <time>2020-10-25T09:51:38Z</time>
      </trkpt>
      <trkpt lat="44.15714" lon="5.00774">
        <ele>367</ele>
        <time>2020-10-25T09:51:43Z</time>
      </trkpt>
      <trkpt lat="44.15719" lon="5.00766">
        <ele>363</ele>
        <time>2020-10-25T09:51:48Z</time>
      </trkpt>
      <trkpt lat="44.15729" lon="5.00754">
        <ele>358</ele>
        <time>2020-10-25T09:51:54Z</time>
      </trkpt>
      <trkpt lat="44.1573" lon="5.00752">
        <ele>358</ele>
        <time>2020-10-25T09:51:55Z</time>
      </trkpt>
      <trkpt lat="44.15734" lon="5.00742">
        <ele>355</ele>
        <time>2020-10-25T09:52:00Z</time>
      </trkpt>
      <trkpt lat="44.15741" lon="5.00715">
        <ele>352</ele>
        <time>2020-10-25T09:52:09Z</time>
      </trkpt>
      <trkpt lat="44.15739" lon="5.00688">
        <ele>352</ele>
        <time>2020-10-25T09:52:19Z</time>
      </trkpt>
      <trkpt lat="44.15736" lon="5.00672">
        <ele>352</ele>
        <time>2020-10-25T09:52:25Z</time>
      </trkpt>
      <trkpt lat="44.15734" lon="5.00658">
        <ele>352</ele>
        <time>2020-10-25T09:52:30Z</time>
      </trkpt>
      <trkpt lat="44.1573" lon="5.00631">
        <ele>352</ele>
        <time>2020-10-25T09:52:39Z</time>
      </trkpt>
      <trkpt lat="44.15723" lon="5.00619">
        <ele>353</ele>
        <time>2020-10-25T09:52:45Z</time>
      </trkpt>
      <trkpt lat="44.15718" lon="5.00613">
        <ele>355</ele>
        <time>2020-10-25T09:52:51Z</time>
      </trkpt>
      <trkpt lat="44.15708" lon="5.0059">
        <ele>354</ele>
        <time>2020-10-25T09:53:02Z</time>
      </trkpt>
      <trkpt lat="44.15705" lon="5.00576">
        <ele>351</ele>
        <time>2020-10-25T09:53:11Z</time>
      </trkpt>
      <trkpt lat="44.15697" lon="5.00561">
        <ele>350</ele>
        <time>2020-10-25T09:53:19Z</time>
      </trkpt>
      <trkpt lat="44.15697" lon="5.00557">
        <ele>349</ele>
        <time>2020-10-25T09:53:20Z</time>
      </trkpt>
      <trkpt lat="44.15697" lon="5.00554">
        <ele>348</ele>
        <time>2020-10-25T09:53:21Z</time>
      </trkpt>
      <trkpt lat="44.15697" lon="5.00549">
        <ele>348</ele>
        <time>2020-10-25T09:53:22Z</time>
      </trkpt>
      <trkpt lat="44.15697" lon="5.00547">
        <ele>348</ele>
        <time>2020-10-25T09:53:23Z</time>
      </trkpt>
      <trkpt lat="44.15697" lon="5.00517">
        <ele>346</ele>
        <time>2020-10-25T09:53:33Z</time>
      </trkpt>
      <trkpt lat="44.15699" lon="5.00514">
        <ele>345</ele>
        <time>2020-10-25T09:53:34Z</time>
      </trkpt>
      <trkpt lat="44.157" lon="5.00511">
        <ele>345</ele>
        <time>2020-10-25T09:53:35Z</time>
      </trkpt>
      <trkpt lat="44.15701" lon="5.00508">
        <ele>344</ele>
        <time>2020-10-25T09:53:36Z</time>
      </trkpt>
      <trkpt lat="44.15702" lon="5.00505">
        <ele>344</ele>
        <time>2020-10-25T09:53:37Z</time>
      </trkpt>
      <trkpt lat="44.15704" lon="5.00502">
        <ele>343</ele>
        <time>2020-10-25T09:53:38Z</time>
      </trkpt>
      <trkpt lat="44.15706" lon="5.00499">
        <ele>342</ele>
        <time>2020-10-25T09:53:39Z</time>
      </trkpt>
      <trkpt lat="44.15712" lon="5.00486">
        <ele>339</ele>
        <time>2020-10-25T09:53:44Z</time>
      </trkpt>
      <trkpt lat="44.15714" lon="5.00485">
        <ele>339</ele>
        <time>2020-10-25T09:53:45Z</time>
      </trkpt>
      <trkpt lat="44.15716" lon="5.00481">
        <ele>338</ele>
        <time>2020-10-25T09:53:47Z</time>
      </trkpt>
      <trkpt lat="44.1572" lon="5.00468">
        <ele>335</ele>
        <time>2020-10-25T09:53:53Z</time>
      </trkpt>
      <trkpt lat="44.15723" lon="5.00462">
        <ele>333</ele>
        <time>2020-10-25T09:53:58Z</time>
      </trkpt>
      <trkpt lat="44.15724" lon="5.00452">
        <ele>332</ele>
        <time>2020-10-25T09:54:03Z</time>
      </trkpt>
      <trkpt lat="44.15724" lon="5.00435">
        <ele>329</ele>
        <time>2020-10-25T09:54:11Z</time>
      </trkpt>
      <trkpt lat="44.15717" lon="5.00412">
        <ele>327</ele>
        <time>2020-10-25T09:54:20Z</time>
      </trkpt>
      <trkpt lat="44.15716" lon="5.00409">
        <ele>327</ele>
        <time>2020-10-25T09:54:21Z</time>
      </trkpt>
      <trkpt lat="44.15716" lon="5.00406">
        <ele>327</ele>
        <time>2020-10-25T09:54:22Z</time>
      </trkpt>
      <trkpt lat="44.15716" lon="5.00403">
        <ele>326</ele>
        <time>2020-10-25T09:54:23Z</time>
      </trkpt>
      <trkpt lat="44.15716" lon="5.004">
        <ele>326</ele>
        <time>2020-10-25T09:54:24Z</time>
      </trkpt>
      <trkpt lat="44.15715" lon="5.00397">
        <ele>325</ele>
        <time>2020-10-25T09:54:25Z</time>
      </trkpt>
      <trkpt lat="44.15714" lon="5.00394">
        <ele>325</ele>
        <time>2020-10-25T09:54:26Z</time>
      </trkpt>
      <trkpt lat="44.15713" lon="5.0039">
        <ele>325</ele>
        <time>2020-10-25T09:54:27Z</time>
      </trkpt>
      <trkpt lat="44.15713" lon="5.00387">
        <ele>325</ele>
        <time>2020-10-25T09:54:28Z</time>
      </trkpt>
      <trkpt lat="44.15712" lon="5.00384">
        <ele>324</ele>
        <time>2020-10-25T09:54:29Z</time>
      </trkpt>
      <trkpt lat="44.15712" lon="5.0038">
        <ele>324</ele>
        <time>2020-10-25T09:54:30Z</time>
      </trkpt>
      <trkpt lat="44.15711" lon="5.00376">
        <ele>324</ele>
        <time>2020-10-25T09:54:31Z</time>
      </trkpt>
      <trkpt lat="44.1571" lon="5.00372">
        <ele>323</ele>
        <time>2020-10-25T09:54:32Z</time>
      </trkpt>
      <trkpt lat="44.15709" lon="5.00367">
        <ele>323</ele>
        <time>2020-10-25T09:54:33Z</time>
      </trkpt>
      <trkpt lat="44.15708" lon="5.00362">
        <ele>323</ele>
        <time>2020-10-25T09:54:34Z</time>
      </trkpt>
      <trkpt lat="44.15705" lon="5.00328">
        <ele>319</ele>
        <time>2020-10-25T09:54:45Z</time>
      </trkpt>
      <trkpt lat="44.15705" lon="5.00324">
        <ele>319</ele>
        <time>2020-10-25T09:54:46Z</time>
      </trkpt>
      <trkpt lat="44.15703" lon="5.00314">
        <ele>318</ele>
        <time>2020-10-25T09:56:30Z</time>
      </trkpt>
      <trkpt lat="44.15694" lon="5.00306">
        <ele>320</ele>
        <time>2020-10-25T09:56:41Z</time>
      </trkpt>
      <trkpt lat="44.15687" lon="5.00306">
        <ele>321</ele>
        <time>2020-10-25T09:56:50Z</time>
      </trkpt>
      <trkpt lat="44.15685" lon="5.00306">
        <ele>321</ele>
        <time>2020-10-25T09:56:52Z</time>
      </trkpt>
      <trkpt lat="44.15663" lon="5.00306">
        <ele>322</ele>
        <time>2020-10-25T09:57:05Z</time>
      </trkpt>
      <trkpt lat="44.15657" lon="5.00308">
        <ele>320</ele>
        <time>2020-10-25T09:57:09Z</time>
      </trkpt>
      <trkpt lat="44.1565" lon="5.00311">
        <ele>317</ele>
        <time>2020-10-25T09:57:14Z</time>
      </trkpt>
      <trkpt lat="44.15645" lon="5.00308">
        <ele>314</ele>
        <time>2020-10-25T09:57:18Z</time>
      </trkpt>
      <trkpt lat="44.15642" lon="5.00302">
        <ele>312</ele>
        <time>2020-10-25T09:57:21Z</time>
      </trkpt>
      <trkpt lat="44.15639" lon="5.00295">
        <ele>309</ele>
        <time>2020-10-25T09:57:24Z</time>
      </trkpt>
      <trkpt lat="44.15638" lon="5.00292">
        <ele>308</ele>
        <time>2020-10-25T09:57:26Z</time>
      </trkpt>
      <trkpt lat="44.15636" lon="5.00288">
        <ele>307</ele>
        <time>2020-10-25T09:57:28Z</time>
      </trkpt>
      <trkpt lat="44.15635" lon="5.00281">
        <ele>305</ele>
        <time>2020-10-25T09:57:33Z</time>
      </trkpt>
      <trkpt lat="44.1563" lon="5.00266">
        <ele>300</ele>
        <time>2020-10-25T09:57:38Z</time>
      </trkpt>
      <trkpt lat="44.15631" lon="5.00249">
        <ele>296</ele>
        <time>2020-10-25T09:57:46Z</time>
      </trkpt>
      <trkpt lat="44.15622" lon="5.00238">
        <ele>291</ele>
        <time>2020-10-25T09:57:52Z</time>
      </trkpt>
      <trkpt lat="44.15615" lon="5.00228">
        <ele>287</ele>
        <time>2020-10-25T09:57:59Z</time>
      </trkpt>
      <trkpt lat="44.15611" lon="5.00219">
        <ele>285</ele>
        <time>2020-10-25T09:58:07Z</time>
      </trkpt>
      <trkpt lat="44.15599" lon="5.00237">
        <ele>286</ele>
        <time>2020-10-25T09:58:19Z</time>
      </trkpt>
      <trkpt lat="44.15588" lon="5.00273">
        <ele>286</ele>
        <time>2020-10-25T09:58:33Z</time>
      </trkpt>
      <trkpt lat="44.15579" lon="5.0031">
        <ele>284</ele>
        <time>2020-10-25T09:58:43Z</time>
      </trkpt>
      <trkpt lat="44.15561" lon="5.00349">
        <ele>281</ele>
        <time>2020-10-25T09:58:54Z</time>
      </trkpt>
      <trkpt lat="44.15552" lon="5.00352">
        <ele>280</ele>
        <time>2020-10-25T09:58:57Z</time>
      </trkpt>
      <trkpt lat="44.15525" lon="5.00362">
        <ele>283</ele>
        <time>2020-10-25T09:59:09Z</time>
      </trkpt>
      <trkpt lat="44.15519" lon="5.00362">
        <ele>282</ele>
        <time>2020-10-25T09:59:12Z</time>
      </trkpt>
      <trkpt lat="44.15496" lon="5.00381">
        <ele>282</ele>
        <time>2020-10-25T09:59:23Z</time>
      </trkpt>
      <trkpt lat="44.15474" lon="5.00418">
        <ele>285</ele>
        <time>2020-10-25T09:59:35Z</time>
      </trkpt>
      <trkpt lat="44.15447" lon="5.00458">
        <ele>284</ele>
        <time>2020-10-25T09:59:50Z</time>
      </trkpt>
      <trkpt lat="44.1543" lon="5.0049">
        <ele>284</ele>
        <time>2020-10-25T10:00:02Z</time>
      </trkpt>
      <trkpt lat="44.15412" lon="5.00513">
        <ele>283</ele>
        <time>2020-10-25T10:00:13Z</time>
      </trkpt>
      <trkpt lat="44.15396" lon="5.00546">
        <ele>284</ele>
        <time>2020-10-25T10:00:23Z</time>
      </trkpt>
      <trkpt lat="44.15385" lon="5.00577">
        <ele>284</ele>
        <time>2020-10-25T10:00:36Z</time>
      </trkpt>
      <trkpt lat="44.15379" lon="5.00585">
        <ele>284</ele>
        <time>2020-10-25T10:00:40Z</time>
      </trkpt>
      <trkpt lat="44.15371" lon="5.00588">
        <ele>283</ele>
        <time>2020-10-25T10:00:43Z</time>
      </trkpt>
      <trkpt lat="44.15366" lon="5.00592">
        <ele>282</ele>
        <time>2020-10-25T10:00:45Z</time>
      </trkpt>
      <trkpt lat="44.1535" lon="5.00607">
        <ele>285</ele>
        <time>2020-10-25T10:00:52Z</time>
      </trkpt>
      <trkpt lat="44.15333" lon="5.00611">
        <ele>287</ele>
        <time>2020-10-25T10:01:01Z</time>
      </trkpt>
      <trkpt lat="44.15313" lon="5.00586">
        <ele>288</ele>
        <time>2020-10-25T10:01:14Z</time>
      </trkpt>
      <trkpt lat="44.15311" lon="5.00585">
        <ele>288</ele>
        <time>2020-10-25T10:01:15Z</time>
      </trkpt>
      <trkpt lat="44.15302" lon="5.00585">
        <ele>289</ele>
        <time>2020-10-25T10:01:20Z</time>
      </trkpt>
      <trkpt lat="44.15298" lon="5.0059">
        <ele>291</ele>
        <time>2020-10-25T10:01:26Z</time>
      </trkpt>
      <trkpt lat="44.15297" lon="5.00591">
        <ele>291</ele>
        <time>2020-10-25T10:01:27Z</time>
      </trkpt>
      <trkpt lat="44.15287" lon="5.00601">
        <ele>294</ele>
        <time>2020-10-25T10:01:38Z</time>
      </trkpt>
      <trkpt lat="44.15273" lon="5.00611">
        <ele>298</ele>
        <time>2020-10-25T10:01:49Z</time>
      </trkpt>
      <trkpt lat="44.15273" lon="5.00612">
        <ele>298</ele>
        <time>2020-10-25T10:01:50Z</time>
      </trkpt>
      <trkpt lat="44.15257" lon="5.00623">
        <ele>300</ele>
        <time>2020-10-25T10:02:03Z</time>
      </trkpt>
      <trkpt lat="44.15248" lon="5.00635">
        <ele>302</ele>
        <time>2020-10-25T10:02:12Z</time>
      </trkpt>
      <trkpt lat="44.15243" lon="5.0064">
        <ele>303</ele>
        <time>2020-10-25T10:02:17Z</time>
      </trkpt>
      <trkpt lat="44.1524" lon="5.00645">
        <ele>304</ele>
        <time>2020-10-25T10:02:20Z</time>
      </trkpt>
      <trkpt lat="44.15227" lon="5.00663">
        <ele>307</ele>
        <time>2020-10-25T10:02:32Z</time>
      </trkpt>
      <trkpt lat="44.15225" lon="5.00666">
        <ele>307</ele>
        <time>2020-10-25T10:02:34Z</time>
      </trkpt>
      <trkpt lat="44.15224" lon="5.00667">
        <ele>307</ele>
        <time>2020-10-25T10:02:35Z</time>
      </trkpt>
      <trkpt lat="44.15223" lon="5.00669">
        <ele>307</ele>
        <time>2020-10-25T10:02:36Z</time>
      </trkpt>
      <trkpt lat="44.15221" lon="5.0067">
        <ele>308</ele>
        <time>2020-10-25T10:02:37Z</time>
      </trkpt>
      <trkpt lat="44.1522" lon="5.00673">
        <ele>308</ele>
        <time>2020-10-25T10:02:38Z</time>
      </trkpt>
      <trkpt lat="44.15208" lon="5.00695">
        <ele>311</ele>
        <time>2020-10-25T10:02:52Z</time>
      </trkpt>
      <trkpt lat="44.15205" lon="5.00703">
        <ele>312</ele>
        <time>2020-10-25T10:02:58Z</time>
      </trkpt>
      <trkpt lat="44.15198" lon="5.00718">
        <ele>314</ele>
        <time>2020-10-25T10:03:07Z</time>
      </trkpt>
      <trkpt lat="44.15188" lon="5.00737">
        <ele>317</ele>
        <time>2020-10-25T10:03:21Z</time>
      </trkpt>
      <trkpt lat="44.15177" lon="5.00752">
        <ele>319</ele>
        <time>2020-10-25T10:03:30Z</time>
      </trkpt>
      <trkpt lat="44.15175" lon="5.00753">
        <ele>319</ele>
        <time>2020-10-25T10:03:31Z</time>
      </trkpt>
      <trkpt lat="44.15173" lon="5.00754">
        <ele>320</ele>
        <time>2020-10-25T10:03:32Z</time>
      </trkpt>
      <trkpt lat="44.15172" lon="5.00756">
        <ele>320</ele>
        <time>2020-10-25T10:03:33Z</time>
      </trkpt>
      <trkpt lat="44.1517" lon="5.00757">
        <ele>320</ele>
        <time>2020-10-25T10:03:34Z</time>
      </trkpt>
      <trkpt lat="44.15168" lon="5.00759">
        <ele>320</ele>
        <time>2020-10-25T10:03:35Z</time>
      </trkpt>
      <trkpt lat="44.15154" lon="5.0078">
        <ele>324</ele>
        <time>2020-10-25T10:03:46Z</time>
      </trkpt>
      <trkpt lat="44.15153" lon="5.00783">
        <ele>324</ele>
        <time>2020-10-25T10:03:47Z</time>
      </trkpt>
      <trkpt lat="44.15152" lon="5.00785">
        <ele>324</ele>
        <time>2020-10-25T10:03:48Z</time>
      </trkpt>
      <trkpt lat="44.1515" lon="5.00789">
        <ele>325</ele>
        <time>2020-10-25T10:03:49Z</time>
      </trkpt>
      <trkpt lat="44.1515" lon="5.00791">
        <ele>325</ele>
        <time>2020-10-25T10:03:50Z</time>
      </trkpt>
      <trkpt lat="44.15148" lon="5.00793">
        <ele>325</ele>
        <time>2020-10-25T10:03:51Z</time>
      </trkpt>
      <trkpt lat="44.15147" lon="5.00795">
        <ele>326</ele>
        <time>2020-10-25T10:03:52Z</time>
      </trkpt>
      <trkpt lat="44.15143" lon="5.00801">
        <ele>326</ele>
        <time>2020-10-25T10:03:55Z</time>
      </trkpt>
      <trkpt lat="44.15132" lon="5.00792">
        <ele>327</ele>
        <time>2020-10-25T10:04:02Z</time>
      </trkpt>
      <trkpt lat="44.15131" lon="5.00772">
        <ele>327</ele>
        <time>2020-10-25T10:04:09Z</time>
      </trkpt>
      <trkpt lat="44.15131" lon="5.00769">
        <ele>327</ele>
        <time>2020-10-25T10:04:10Z</time>
      </trkpt>
      <trkpt lat="44.15132" lon="5.0075">
        <ele>329</ele>
        <time>2020-10-25T10:04:17Z</time>
      </trkpt>
      <trkpt lat="44.1513" lon="5.00748">
        <ele>330</ele>
        <time>2020-10-25T10:04:19Z</time>
      </trkpt>
      <trkpt lat="44.15128" lon="5.00748">
        <ele>330</ele>
        <time>2020-10-25T10:04:21Z</time>
      </trkpt>
      <trkpt lat="44.15124" lon="5.0075">
        <ele>331</ele>
        <time>2020-10-25T10:04:24Z</time>
      </trkpt>
      <trkpt lat="44.15122" lon="5.00754">
        <ele>331</ele>
        <time>2020-10-25T10:04:26Z</time>
      </trkpt>
      <trkpt lat="44.15115" lon="5.00762">
        <ele>332</ele>
        <time>2020-10-25T10:04:31Z</time>
      </trkpt>
      <trkpt lat="44.15113" lon="5.00763">
        <ele>332</ele>
        <time>2020-10-25T10:04:32Z</time>
      </trkpt>
      <trkpt lat="44.15112" lon="5.00763">
        <ele>332</ele>
        <time>2020-10-25T10:04:33Z</time>
      </trkpt>
      <trkpt lat="44.1511" lon="5.00764">
        <ele>333</ele>
        <time>2020-10-25T10:04:34Z</time>
      </trkpt>
      <trkpt lat="44.15108" lon="5.00765">
        <ele>333</ele>
        <time>2020-10-25T10:04:35Z</time>
      </trkpt>
      <trkpt lat="44.15107" lon="5.00766">
        <ele>333</ele>
        <time>2020-10-25T10:04:36Z</time>
      </trkpt>
      <trkpt lat="44.15105" lon="5.00767">
        <ele>334</ele>
        <time>2020-10-25T10:04:37Z</time>
      </trkpt>
      <trkpt lat="44.15103" lon="5.00768">
        <ele>334</ele>
        <time>2020-10-25T10:04:38Z</time>
      </trkpt>
      <trkpt lat="44.15101" lon="5.00768">
        <ele>334</ele>
        <time>2020-10-25T10:04:39Z</time>
      </trkpt>
      <trkpt lat="44.151" lon="5.00769">
        <ele>335</ele>
        <time>2020-10-25T10:04:40Z</time>
      </trkpt>
      <trkpt lat="44.15098" lon="5.00769">
        <ele>335</ele>
        <time>2020-10-25T10:04:41Z</time>
      </trkpt>
      <trkpt lat="44.15096" lon="5.0077">
        <ele>336</ele>
        <time>2020-10-25T10:04:42Z</time>
      </trkpt>
      <trkpt lat="44.15095" lon="5.0077">
        <ele>336</ele>
        <time>2020-10-25T10:04:43Z</time>
      </trkpt>
      <trkpt lat="44.15093" lon="5.00769">
        <ele>336</ele>
        <time>2020-10-25T10:04:44Z</time>
      </trkpt>
      <trkpt lat="44.15074" lon="5.00772">
        <ele>339</ele>
        <time>2020-10-25T10:04:54Z</time>
      </trkpt>
      <trkpt lat="44.15061" lon="5.00765">
        <ele>341</ele>
        <time>2020-10-25T10:05:04Z</time>
      </trkpt>
      <trkpt lat="44.15056" lon="5.00755">
        <ele>342</ele>
        <time>2020-10-25T10:05:11Z</time>
      </trkpt>
      <trkpt lat="44.15049" lon="5.00742">
        <ele>344</ele>
        <time>2020-10-25T10:05:17Z</time>
      </trkpt>
      <trkpt lat="44.15042" lon="5.0073">
        <ele>344</ele>
        <time>2020-10-25T10:05:22Z</time>
      </trkpt>
      <trkpt lat="44.15038" lon="5.00724">
        <ele>344</ele>
        <time>2020-10-25T10:05:25Z</time>
      </trkpt>
      <trkpt lat="44.15035" lon="5.00704">
        <ele>347</ele>
        <time>2020-10-25T10:05:33Z</time>
      </trkpt>
      <trkpt lat="44.15029" lon="5.00681">
        <ele>348</ele>
        <time>2020-10-25T10:05:41Z</time>
      </trkpt>
      <trkpt lat="44.1502" lon="5.00646">
        <ele>349</ele>
        <time>2020-10-25T10:05:52Z</time>
      </trkpt>
      <trkpt lat="44.1502" lon="5.00641">
        <ele>350</ele>
        <time>2020-10-25T10:05:54Z</time>
      </trkpt>
      <trkpt lat="44.15019" lon="5.00638">
        <ele>350</ele>
        <time>2020-10-25T10:05:55Z</time>
      </trkpt>
      <trkpt lat="44.15019" lon="5.00635">
        <ele>350</ele>
        <time>2020-10-25T10:05:56Z</time>
      </trkpt>
      <trkpt lat="44.15019" lon="5.00632">
        <ele>350</ele>
        <time>2020-10-25T10:05:57Z</time>
      </trkpt>
      <trkpt lat="44.15018" lon="5.00629">
        <ele>351</ele>
        <time>2020-10-25T10:05:58Z</time>
      </trkpt>
      <trkpt lat="44.15012" lon="5.00603">
        <ele>352</ele>
        <time>2020-10-25T10:06:06Z</time>
      </trkpt>
      <trkpt lat="44.15005" lon="5.00576">
        <ele>351</ele>
        <time>2020-10-25T10:06:14Z</time>
      </trkpt>
      <trkpt lat="44.14996" lon="5.00555">
        <ele>349</ele>
        <time>2020-10-25T10:06:21Z</time>
      </trkpt>
      <trkpt lat="44.14998" lon="5.00542">
        <ele>350</ele>
        <time>2020-10-25T10:06:25Z</time>
      </trkpt>
      <trkpt lat="44.14994" lon="5.00528">
        <ele>347</ele>
        <time>2020-10-25T10:06:35Z</time>
      </trkpt>
      <trkpt lat="44.14994" lon="5.00525">
        <ele>347</ele>
        <time>2020-10-25T10:06:36Z</time>
      </trkpt>
      <trkpt lat="44.14993" lon="5.00515">
        <ele>344</ele>
        <time>2020-10-25T10:06:40Z</time>
      </trkpt>
      <trkpt lat="44.14993" lon="5.00511">
        <ele>343</ele>
        <time>2020-10-25T10:06:41Z</time>
      </trkpt>
      <trkpt lat="44.14993" lon="5.00506">
        <ele>343</ele>
        <time>2020-10-25T10:06:42Z</time>
      </trkpt>
      <trkpt lat="44.14994" lon="5.00502">
        <ele>342</ele>
        <time>2020-10-25T10:06:43Z</time>
      </trkpt>
      <trkpt lat="44.14994" lon="5.00499">
        <ele>342</ele>
        <time>2020-10-25T10:06:44Z</time>
      </trkpt>
      <trkpt lat="44.1499" lon="5.00481">
        <ele>337</ele>
        <time>2020-10-25T10:06:53Z</time>
      </trkpt>
      <trkpt lat="44.14988" lon="5.0048">
        <ele>336</ele>
        <time>2020-10-25T10:06:56Z</time>
      </trkpt>
      <trkpt lat="44.14985" lon="5.00485">
        <ele>336</ele>
        <time>2020-10-25T10:07:01Z</time>
      </trkpt>
      <trkpt lat="44.14985" lon="5.00489">
        <ele>337</ele>
        <time>2020-10-25T10:07:02Z</time>
      </trkpt>
      <trkpt lat="44.14985" lon="5.00493">
        <ele>337</ele>
        <time>2020-10-25T10:07:03Z</time>
      </trkpt>
      <trkpt lat="44.14984" lon="5.00495">
        <ele>338</ele>
        <time>2020-10-25T10:07:04Z</time>
      </trkpt>
      <trkpt lat="44.14984" lon="5.00497">
        <ele>338</ele>
        <time>2020-10-25T10:07:05Z</time>
      </trkpt>
      <trkpt lat="44.14979" lon="5.00504">
        <ele>337</ele>
        <time>2020-10-25T10:07:09Z</time>
      </trkpt>
      <trkpt lat="44.14977" lon="5.00505">
        <ele>336</ele>
        <time>2020-10-25T10:07:10Z</time>
      </trkpt>
      <trkpt lat="44.14967" lon="5.00509">
        <ele>334</ele>
        <time>2020-10-25T10:07:16Z</time>
      </trkpt>
      <trkpt lat="44.14955" lon="5.00508">
        <ele>332</ele>
        <time>2020-10-25T10:07:23Z</time>
      </trkpt>
      <trkpt lat="44.14952" lon="5.00509">
        <ele>331</ele>
        <time>2020-10-25T10:07:24Z</time>
      </trkpt>
      <trkpt lat="44.14942" lon="5.00521">
        <ele>331</ele>
        <time>2020-10-25T10:07:32Z</time>
      </trkpt>
      <trkpt lat="44.14935" lon="5.00522">
        <ele>329</ele>
        <time>2020-10-25T10:07:40Z</time>
      </trkpt>
      <trkpt lat="44.14934" lon="5.00522">
        <ele>328</ele>
        <time>2020-10-25T10:07:41Z</time>
      </trkpt>
      <trkpt lat="44.14927" lon="5.00522">
        <ele>326</ele>
        <time>2020-10-25T10:07:47Z</time>
      </trkpt>
      <trkpt lat="44.1492" lon="5.00523">
        <ele>324</ele>
        <time>2020-10-25T10:07:51Z</time>
      </trkpt>
      <trkpt lat="44.14916" lon="5.00523">
        <ele>323</ele>
        <time>2020-10-25T10:07:53Z</time>
      </trkpt>
      <trkpt lat="44.14906" lon="5.00522">
        <ele>319</ele>
        <time>2020-10-25T10:08:00Z</time>
      </trkpt>
      <trkpt lat="44.14893" lon="5.00519">
        <ele>313</ele>
        <time>2020-10-25T10:08:09Z</time>
      </trkpt>
      <trkpt lat="44.14884" lon="5.00517">
        <ele>309</ele>
        <time>2020-10-25T10:08:14Z</time>
      </trkpt>
      <trkpt lat="44.14881" lon="5.00515">
        <ele>308</ele>
        <time>2020-10-25T10:08:16Z</time>
      </trkpt>
      <trkpt lat="44.14873" lon="5.00514">
        <ele>305</ele>
        <time>2020-10-25T10:08:28Z</time>
      </trkpt>
      <trkpt lat="44.14872" lon="5.00517">
        <ele>304</ele>
        <time>2020-10-25T10:08:34Z</time>
      </trkpt>
      <trkpt lat="44.14865" lon="5.00519">
        <ele>301</ele>
        <time>2020-10-25T10:08:38Z</time>
      </trkpt>
      <trkpt lat="44.14861" lon="5.0052">
        <ele>300</ele>
        <time>2020-10-25T10:08:40Z</time>
      </trkpt>
      <trkpt lat="44.14856" lon="5.00519">
        <ele>298</ele>
        <time>2020-10-25T10:08:43Z</time>
      </trkpt>
      <trkpt lat="44.1485" lon="5.00502">
        <ele>296</ele>
        <time>2020-10-25T10:08:54Z</time>
      </trkpt>
      <trkpt lat="44.14849" lon="5.00501">
        <ele>296</ele>
        <time>2020-10-25T10:08:55Z</time>
      </trkpt>
      <trkpt lat="44.14842" lon="5.00495">
        <ele>293</ele>
        <time>2020-10-25T10:09:01Z</time>
      </trkpt>
      <trkpt lat="44.14836" lon="5.0049">
        <ele>291</ele>
        <time>2020-10-25T10:09:06Z</time>
      </trkpt>
      <trkpt lat="44.14835" lon="5.0049">
        <ele>290</ele>
        <time>2020-10-25T10:09:07Z</time>
      </trkpt>
      <trkpt lat="44.14819" lon="5.00468">
        <ele>286</ele>
        <time>2020-10-25T10:09:17Z</time>
      </trkpt>
      <trkpt lat="44.14813" lon="5.0046">
        <ele>285</ele>
        <time>2020-10-25T10:09:20Z</time>
      </trkpt>
      <trkpt lat="44.14807" lon="5.00444">
        <ele>284</ele>
        <time>2020-10-25T10:09:28Z</time>
      </trkpt>
      <trkpt lat="44.14801" lon="5.00445">
        <ele>283</ele>
        <time>2020-10-25T10:09:38Z</time>
      </trkpt>
      <trkpt lat="44.14794" lon="5.00454">
        <ele>283</ele>
        <time>2020-10-25T10:09:48Z</time>
      </trkpt>
      <trkpt lat="44.14793" lon="5.00459">
        <ele>283</ele>
        <time>2020-10-25T10:09:52Z</time>
      </trkpt>
      <trkpt lat="44.14792" lon="5.00463">
        <ele>283</ele>
        <time>2020-10-25T10:09:54Z</time>
      </trkpt>
      <trkpt lat="44.14792" lon="5.00464">
        <ele>283</ele>
        <time>2020-10-25T10:09:55Z</time>
      </trkpt>
      <trkpt lat="44.14797" lon="5.00493">
        <ele>284</ele>
        <time>2020-10-25T10:10:06Z</time>
      </trkpt>
      <trkpt lat="44.14806" lon="5.00521">
        <ele>288</ele>
        <time>2020-10-25T10:10:16Z</time>
      </trkpt>
      <trkpt lat="44.14811" lon="5.0054">
        <ele>290</ele>
        <time>2020-10-25T10:10:23Z</time>
      </trkpt>
      <trkpt lat="44.14816" lon="5.00558">
        <ele>293</ele>
        <time>2020-10-25T10:10:30Z</time>
      </trkpt>
      <trkpt lat="44.14822" lon="5.00581">
        <ele>297</ele>
        <time>2020-10-25T10:10:40Z</time>
      </trkpt>
      <trkpt lat="44.14812" lon="5.00604">
        <ele>297</ele>
        <time>2020-10-25T10:10:49Z</time>
      </trkpt>
      <trkpt lat="44.148" lon="5.00623">
        <ele>299</ele>
        <time>2020-10-25T10:10:57Z</time>
      </trkpt>
      <trkpt lat="44.14789" lon="5.00641">
        <ele>305</ele>
        <time>2020-10-25T10:11:05Z</time>
      </trkpt>
      <trkpt lat="44.14781" lon="5.00642">
        <ele>307</ele>
        <time>2020-10-25T10:11:10Z</time>
      </trkpt>
      <trkpt lat="44.14776" lon="5.00639">
        <ele>308</ele>
        <time>2020-10-25T10:11:13Z</time>
      </trkpt>
      <trkpt lat="44.14755" lon="5.00634">
        <ele>312</ele>
        <time>2020-10-25T10:11:25Z</time>
      </trkpt>
      <trkpt lat="44.14738" lon="5.00635">
        <ele>313</ele>
        <time>2020-10-25T10:11:33Z</time>
      </trkpt>
      <trkpt lat="44.14722" lon="5.0064">
        <ele>315</ele>
        <time>2020-10-25T10:11:44Z</time>
      </trkpt>
      <trkpt lat="44.14703" lon="5.00652">
        <ele>317</ele>
        <time>2020-10-25T10:11:58Z</time>
      </trkpt>
      <trkpt lat="44.14683" lon="5.0066">
        <ele>315</ele>
        <time>2020-10-25T10:12:08Z</time>
      </trkpt>
      <trkpt lat="44.14674" lon="5.00674">
        <ele>314</ele>
        <time>2020-10-25T10:12:13Z</time>
      </trkpt>
      <trkpt lat="44.14671" lon="5.00681">
        <ele>314</ele>
        <time>2020-10-25T10:12:15Z</time>
      </trkpt>
      <trkpt lat="44.14662" lon="5.00712">
        <ele>314</ele>
        <time>2020-10-25T10:12:24Z</time>
      </trkpt>
      <trkpt lat="44.1466" lon="5.00729">
        <ele>316</ele>
        <time>2020-10-25T10:12:29Z</time>
      </trkpt>
      <trkpt lat="44.14655" lon="5.00755">
        <ele>319</ele>
        <time>2020-10-25T10:12:39Z</time>
      </trkpt>
      <trkpt lat="44.14646" lon="5.00772">
        <ele>320</ele>
        <time>2020-10-25T10:12:47Z</time>
      </trkpt>
      <trkpt lat="44.14644" lon="5.00774">
        <ele>320</ele>
        <time>2020-10-25T10:12:48Z</time>
      </trkpt>
      <trkpt lat="44.14641" lon="5.00778">
        <ele>320</ele>
        <time>2020-10-25T10:12:50Z</time>
      </trkpt>
      <trkpt lat="44.1464" lon="5.0078">
        <ele>320</ele>
        <time>2020-10-25T10:12:51Z</time>
      </trkpt>
      <trkpt lat="44.14627" lon="5.00794">
        <ele>320</ele>
        <time>2020-10-25T10:13:00Z</time>
      </trkpt>
      <trkpt lat="44.14626" lon="5.00797">
        <ele>320</ele>
        <time>2020-10-25T10:13:01Z</time>
      </trkpt>
      <trkpt lat="44.14625" lon="5.00803">
        <ele>321</ele>
        <time>2020-10-25T10:13:03Z</time>
      </trkpt>
      <trkpt lat="44.14624" lon="5.00805">
        <ele>321</ele>
        <time>2020-10-25T10:13:04Z</time>
      </trkpt>
      <trkpt lat="44.14623" lon="5.00807">
        <ele>321</ele>
        <time>2020-10-25T10:13:05Z</time>
      </trkpt>
      <trkpt lat="44.14611" lon="5.00826">
        <ele>317</ele>
        <time>2020-10-25T10:13:14Z</time>
      </trkpt>
      <trkpt lat="44.14616" lon="5.00854">
        <ele>319</ele>
        <time>2020-10-25T10:13:24Z</time>
      </trkpt>
      <trkpt lat="44.14622" lon="5.00884">
        <ele>322</ele>
        <time>2020-10-25T10:13:34Z</time>
      </trkpt>
      <trkpt lat="44.14624" lon="5.0092">
        <ele>324</ele>
        <time>2020-10-25T10:13:45Z</time>
      </trkpt>
      <trkpt lat="44.14624" lon="5.00922">
        <ele>324</ele>
        <time>2020-10-25T10:13:46Z</time>
      </trkpt>
      <trkpt lat="44.14624" lon="5.00925">
        <ele>324</ele>
        <time>2020-10-25T10:13:47Z</time>
      </trkpt>
      <trkpt lat="44.14623" lon="5.00928">
        <ele>324</ele>
        <time>2020-10-25T10:13:48Z</time>
      </trkpt>
      <trkpt lat="44.14623" lon="5.0093">
        <ele>324</ele>
        <time>2020-10-25T10:13:49Z</time>
      </trkpt>
      <trkpt lat="44.14621" lon="5.00932">
        <ele>324</ele>
        <time>2020-10-25T10:13:50Z</time>
      </trkpt>
      <trkpt lat="44.1462" lon="5.00935">
        <ele>324</ele>
        <time>2020-10-25T10:13:51Z</time>
      </trkpt>
      <trkpt lat="44.14619" lon="5.00937">
        <ele>324</ele>
        <time>2020-10-25T10:13:52Z</time>
      </trkpt>
      <trkpt lat="44.14618" lon="5.0094">
        <ele>324</ele>
        <time>2020-10-25T10:13:53Z</time>
      </trkpt>
      <trkpt lat="44.14603" lon="5.00966">
        <ele>322</ele>
        <time>2020-10-25T10:14:03Z</time>
      </trkpt>
      <trkpt lat="44.14589" lon="5.00997">
        <ele>323</ele>
        <time>2020-10-25T10:14:13Z</time>
      </trkpt>
      <trkpt lat="44.14586" lon="5.01002">
        <ele>322</ele>
        <time>2020-10-25T10:14:15Z</time>
      </trkpt>
      <trkpt lat="44.14585" lon="5.01005">
        <ele>323</ele>
        <time>2020-10-25T10:14:16Z</time>
      </trkpt>
      <trkpt lat="44.14584" lon="5.01007">
        <ele>323</ele>
        <time>2020-10-25T10:14:17Z</time>
      </trkpt>
      <trkpt lat="44.14583" lon="5.0101">
        <ele>323</ele>
        <time>2020-10-25T10:14:18Z</time>
      </trkpt>
      <trkpt lat="44.14582" lon="5.01012">
        <ele>323</ele>
        <time>2020-10-25T10:14:19Z</time>
      </trkpt>
      <trkpt lat="44.14581" lon="5.01014">
        <ele>323</ele>
        <time>2020-10-25T10:14:20Z</time>
      </trkpt>
      <trkpt lat="44.14579" lon="5.01016">
        <ele>323</ele>
        <time>2020-10-25T10:14:21Z</time>
      </trkpt>
      <trkpt lat="44.14578" lon="5.01018">
        <ele>323</ele>
        <time>2020-10-25T10:14:22Z</time>
      </trkpt>
      <trkpt lat="44.14567" lon="5.01037">
        <ele>323</ele>
        <time>2020-10-25T10:14:32Z</time>
      </trkpt>
      <trkpt lat="44.14553" lon="5.01058">
        <ele>321</ele>
        <time>2020-10-25T10:14:43Z</time>
      </trkpt>
      <trkpt lat="44.14549" lon="5.01063">
        <ele>320</ele>
        <time>2020-10-25T10:14:46Z</time>
      </trkpt>
      <trkpt lat="44.14534" lon="5.01074">
        <ele>318</ele>
        <time>2020-10-25T10:14:54Z</time>
      </trkpt>
      <trkpt lat="44.14514" lon="5.01088">
        <ele>316</ele>
        <time>2020-10-25T10:15:03Z</time>
      </trkpt>
      <trkpt lat="44.14504" lon="5.01091">
        <ele>316</ele>
        <time>2020-10-25T10:15:09Z</time>
      </trkpt>
      <trkpt lat="44.14496" lon="5.011">
        <ele>315</ele>
        <time>2020-10-25T10:15:14Z</time>
      </trkpt>
      <trkpt lat="44.14469" lon="5.01113">
        <ele>314</ele>
        <time>2020-10-25T10:15:26Z</time>
      </trkpt>
      <trkpt lat="44.14442" lon="5.01118">
        <ele>314</ele>
        <time>2020-10-25T10:15:37Z</time>
      </trkpt>
      <trkpt lat="44.14416" lon="5.01129">
        <ele>316</ele>
        <time>2020-10-25T10:15:46Z</time>
      </trkpt>
      <trkpt lat="44.14414" lon="5.0113">
        <ele>316</ele>
        <time>2020-10-25T10:15:47Z</time>
      </trkpt>
      <trkpt lat="44.14411" lon="5.01132">
        <ele>316</ele>
        <time>2020-10-25T10:15:48Z</time>
      </trkpt>
      <trkpt lat="44.14386" lon="5.01143">
        <ele>312</ele>
        <time>2020-10-25T10:15:59Z</time>
      </trkpt>
      <trkpt lat="44.14371" lon="5.01145">
        <ele>307</ele>
        <time>2020-10-25T10:16:06Z</time>
      </trkpt>
      <trkpt lat="44.14369" lon="5.01145">
        <ele>306</ele>
        <time>2020-10-25T10:16:07Z</time>
      </trkpt>
      <trkpt lat="44.14366" lon="5.01144">
        <ele>306</ele>
        <time>2020-10-25T10:16:08Z</time>
      </trkpt>
      <trkpt lat="44.14363" lon="5.01144">
        <ele>305</ele>
        <time>2020-10-25T10:16:09Z</time>
      </trkpt>
      <trkpt lat="44.14361" lon="5.01143">
        <ele>304</ele>
        <time>2020-10-25T10:16:10Z</time>
      </trkpt>
      <trkpt lat="44.1435" lon="5.01143">
        <ele>303</ele>
        <time>2020-10-25T10:16:17Z</time>
      </trkpt>
      <trkpt lat="44.14346" lon="5.01125">
        <ele>303</ele>
        <time>2020-10-25T10:16:26Z</time>
      </trkpt>
      <trkpt lat="44.14352" lon="5.01111">
        <ele>304</ele>
        <time>2020-10-25T10:16:33Z</time>
      </trkpt>
      <trkpt lat="44.14354" lon="5.01107">
        <ele>304</ele>
        <time>2020-10-25T10:16:35Z</time>
      </trkpt>
      <trkpt lat="44.14356" lon="5.01093">
        <ele>302</ele>
        <time>2020-10-25T10:16:43Z</time>
      </trkpt>
      <trkpt lat="44.14347" lon="5.01081">
        <ele>299</ele>
        <time>2020-10-25T10:16:49Z</time>
      </trkpt>
      <trkpt lat="44.14345" lon="5.01077">
        <ele>298</ele>
        <time>2020-10-25T10:16:50Z</time>
      </trkpt>
      <trkpt lat="44.14343" lon="5.01075">
        <ele>297</ele>
        <time>2020-10-25T10:16:51Z</time>
      </trkpt>
      <trkpt lat="44.14341" lon="5.01073">
        <ele>296</ele>
        <time>2020-10-25T10:16:52Z</time>
      </trkpt>
      <trkpt lat="44.14336" lon="5.01071">
        <ele>295</ele>
        <time>2020-10-25T10:16:56Z</time>
      </trkpt>
      <trkpt lat="44.14334" lon="5.01071">
        <ele>295</ele>
        <time>2020-10-25T10:16:57Z</time>
      </trkpt>
      <trkpt lat="44.14331" lon="5.01072">
        <ele>294</ele>
        <time>2020-10-25T10:16:58Z</time>
      </trkpt>
      <trkpt lat="44.14317" lon="5.01082">
        <ele>292</ele>
        <time>2020-10-25T10:17:06Z</time>
      </trkpt>
      <trkpt lat="44.14294" lon="5.01115">
        <ele>291</ele>
        <time>2020-10-25T10:17:18Z</time>
      </trkpt>
      <trkpt lat="44.14274" lon="5.01134">
        <ele>290</ele>
        <time>2020-10-25T10:17:28Z</time>
      </trkpt>
      <trkpt lat="44.14243" lon="5.01157">
        <ele>287</ele>
        <time>2020-10-25T10:17:39Z</time>
      </trkpt>
      <trkpt lat="44.14222" lon="5.01169">
        <ele>285</ele>
        <time>2020-10-25T10:17:49Z</time>
      </trkpt>
      <trkpt lat="44.14202" lon="5.01181">
        <ele>282</ele>
        <time>2020-10-25T10:17:56Z</time>
      </trkpt>
      <trkpt lat="44.14199" lon="5.01182">
        <ele>282</ele>
        <time>2020-10-25T10:17:57Z</time>
      </trkpt>
      <trkpt lat="44.14197" lon="5.01181">
        <ele>281</ele>
        <time>2020-10-25T10:17:58Z</time>
      </trkpt>
      <trkpt lat="44.14181" lon="5.01178">
        <ele>279</ele>
        <time>2020-10-25T10:18:05Z</time>
      </trkpt>
      <trkpt lat="44.14166" lon="5.01168">
        <ele>275</ele>
        <time>2020-10-25T10:18:12Z</time>
      </trkpt>
      <trkpt lat="44.14155" lon="5.01132">
        <ele>272</ele>
        <time>2020-10-25T10:18:22Z</time>
      </trkpt>
      <trkpt lat="44.14152" lon="5.0111">
        <ele>268</ele>
        <time>2020-10-25T10:18:30Z</time>
      </trkpt>
      <trkpt lat="44.14153" lon="5.01107">
        <ele>268</ele>
        <time>2020-10-25T10:18:38Z</time>
      </trkpt>
      <trkpt lat="44.14155" lon="5.01107">
        <ele>267</ele>
        <time>2020-10-25T10:18:39Z</time>
      </trkpt>
      <trkpt lat="44.14156" lon="5.01106">
        <ele>267</ele>
        <time>2020-10-25T10:18:40Z</time>
      </trkpt>
      <trkpt lat="44.14158" lon="5.01105">
        <ele>266</ele>
        <time>2020-10-25T10:18:41Z</time>
      </trkpt>
      <trkpt lat="44.14159" lon="5.01104">
        <ele>266</ele>
        <time>2020-10-25T10:18:42Z</time>
      </trkpt>
      <trkpt lat="44.14169" lon="5.0109">
        <ele>263</ele>
        <time>2020-10-25T10:18:49Z</time>
      </trkpt>
      <trkpt lat="44.14169" lon="5.01088">
        <ele>262</ele>
        <time>2020-10-25T10:18:50Z</time>
      </trkpt>
      <trkpt lat="44.14169" lon="5.01086">
        <ele>262</ele>
        <time>2020-10-25T10:18:51Z</time>
      </trkpt>
      <trkpt lat="44.14168" lon="5.01083">
        <ele>261</ele>
        <time>2020-10-25T10:18:52Z</time>
      </trkpt>
      <trkpt lat="44.14166" lon="5.01082">
        <ele>261</ele>
        <time>2020-10-25T10:18:53Z</time>
      </trkpt>
      <trkpt lat="44.14165" lon="5.01081">
        <ele>261</ele>
        <time>2020-10-25T10:18:54Z</time>
      </trkpt>
      <trkpt lat="44.14163" lon="5.0108">
        <ele>261</ele>
        <time>2020-10-25T10:18:55Z</time>
      </trkpt>
      <trkpt lat="44.14161" lon="5.01079">
        <ele>261</ele>
        <time>2020-10-25T10:18:56Z</time>
      </trkpt>
      <trkpt lat="44.14148" lon="5.01066">
        <ele>260</ele>
        <time>2020-10-25T10:19:04Z</time>
      </trkpt>
      <trkpt lat="44.14126" lon="5.0106">
        <ele>256</ele>
        <time>2020-10-25T10:19:15Z</time>
      </trkpt>
      <trkpt lat="44.14106" lon="5.01067">
        <ele>255</ele>
        <time>2020-10-25T10:19:23Z</time>
      </trkpt>
      <trkpt lat="44.14088" lon="5.01074">
        <ele>253</ele>
        <time>2020-10-25T10:19:30Z</time>
      </trkpt>
      <trkpt lat="44.14065" lon="5.01077">
        <ele>248</ele>
        <time>2020-10-25T10:19:38Z</time>
      </trkpt>
      <trkpt lat="44.14042" lon="5.01081">
        <ele>243</ele>
        <time>2020-10-25T10:19:47Z</time>
      </trkpt>
      <trkpt lat="44.14037" lon="5.0108">
        <ele>242</ele>
        <time>2020-10-25T10:19:49Z</time>
      </trkpt>
      <trkpt lat="44.1402" lon="5.01081">
        <ele>239</ele>
        <time>2020-10-25T10:19:57Z</time>
      </trkpt>
      <trkpt lat="44.14018" lon="5.01079">
        <ele>239</ele>
        <time>2020-10-25T10:19:58Z</time>
      </trkpt>
      <trkpt lat="44.14017" lon="5.01076">
        <ele>238</ele>
        <time>2020-10-25T10:19:59Z</time>
      </trkpt>
      <trkpt lat="44.14016" lon="5.01073">
        <ele>237</ele>
        <time>2020-10-25T10:20:00Z</time>
      </trkpt>
      <trkpt lat="44.14017" lon="5.0107">
        <ele>237</ele>
        <time>2020-10-25T10:20:01Z</time>
      </trkpt>
      <trkpt lat="44.14017" lon="5.01067">
        <ele>237</ele>
        <time>2020-10-25T10:20:02Z</time>
      </trkpt>
      <trkpt lat="44.1402" lon="5.01062">
        <ele>236</ele>
        <time>2020-10-25T10:20:04Z</time>
      </trkpt>
      <trkpt lat="44.1404" lon="5.01049">
        <ele>235</ele>
        <time>2020-10-25T10:20:13Z</time>
      </trkpt>
      <trkpt lat="44.14063" lon="5.01029">
        <ele>234</ele>
        <time>2020-10-25T10:20:24Z</time>
      </trkpt>
      <trkpt lat="44.14082" lon="5.0101">
        <ele>234</ele>
        <time>2020-10-25T10:20:33Z</time>
      </trkpt>
      <trkpt lat="44.14086" lon="5.00997">
        <ele>233</ele>
        <time>2020-10-25T10:20:37Z</time>
      </trkpt>
      <trkpt lat="44.14085" lon="5.00994">
        <ele>232</ele>
        <time>2020-10-25T10:20:38Z</time>
      </trkpt>
      <trkpt lat="44.14084" lon="5.0099">
        <ele>232</ele>
        <time>2020-10-25T10:20:39Z</time>
      </trkpt>
      <trkpt lat="44.14082" lon="5.00986">
        <ele>232</ele>
        <time>2020-10-25T10:20:40Z</time>
      </trkpt>
      <trkpt lat="44.1408" lon="5.00985">
        <ele>231</ele>
        <time>2020-10-25T10:20:41Z</time>
      </trkpt>
      <trkpt lat="44.14077" lon="5.00983">
        <ele>231</ele>
        <time>2020-10-25T10:20:42Z</time>
      </trkpt>
      <trkpt lat="44.14075" lon="5.00981">
        <ele>231</ele>
        <time>2020-10-25T10:20:43Z</time>
      </trkpt>
      <trkpt lat="44.14053" lon="5.00971">
        <ele>227</ele>
        <time>2020-10-25T10:20:53Z</time>
      </trkpt>
      <trkpt lat="44.14051" lon="5.00969">
        <ele>226</ele>
        <time>2020-10-25T10:20:54Z</time>
      </trkpt>
      <trkpt lat="44.14049" lon="5.00968">
        <ele>226</ele>
        <time>2020-10-25T10:20:55Z</time>
      </trkpt>
      <trkpt lat="44.14048" lon="5.00966">
        <ele>225</ele>
        <time>2020-10-25T10:20:56Z</time>
      </trkpt>
      <trkpt lat="44.14046" lon="5.00964">
        <ele>225</ele>
        <time>2020-10-25T10:20:57Z</time>
      </trkpt>
      <trkpt lat="44.14045" lon="5.00963">
        <ele>224</ele>
        <time>2020-10-25T10:20:58Z</time>
      </trkpt>
      <trkpt lat="44.14028" lon="5.00942">
        <ele>219</ele>
        <time>2020-10-25T10:21:08Z</time>
      </trkpt>
      <trkpt lat="44.1401" lon="5.0092">
        <ele>217</ele>
        <time>2020-10-25T10:21:19Z</time>
      </trkpt>
      <trkpt lat="44.14008" lon="5.00919">
        <ele>217</ele>
        <time>2020-10-25T10:21:20Z</time>
      </trkpt>
      <trkpt lat="44.13986" lon="5.00912">
        <ele>213</ele>
        <time>2020-10-25T10:21:29Z</time>
      </trkpt>
      <trkpt lat="44.13972" lon="5.00898">
        <ele>211</ele>
        <time>2020-10-25T10:21:36Z</time>
      </trkpt>
      <trkpt lat="44.13947" lon="5.00874">
        <ele>208</ele>
        <time>2020-10-25T10:21:48Z</time>
      </trkpt>
      <trkpt lat="44.13927" lon="5.0084">
        <ele>202</ele>
        <time>2020-10-25T10:21:58Z</time>
      </trkpt>
      <trkpt lat="44.1391" lon="5.00818">
        <ele>197</ele>
        <time>2020-10-25T10:22:07Z</time>
      </trkpt>
      <trkpt lat="44.13892" lon="5.00794">
        <ele>195</ele>
        <time>2020-10-25T10:22:16Z</time>
      </trkpt>
      <trkpt lat="44.13875" lon="5.00774">
        <ele>193</ele>
        <time>2020-10-25T10:22:25Z</time>
      </trkpt>
      <trkpt lat="44.13873" lon="5.00774">
        <ele>193</ele>
        <time>2020-10-25T10:22:39Z</time>
      </trkpt>
      <trkpt lat="44.13869" lon="5.00773">
        <ele>193</ele>
        <time>2020-10-25T10:22:42Z</time>
      </trkpt>
      <trkpt lat="44.13867" lon="5.00772">
        <ele>193</ele>
        <time>2020-10-25T10:22:43Z</time>
      </trkpt>
      <trkpt lat="44.13866" lon="5.00772">
        <ele>193</ele>
        <time>2020-10-25T10:22:44Z</time>
      </trkpt>
      <trkpt lat="44.13863" lon="5.00771">
        <ele>193</ele>
        <time>2020-10-25T10:22:46Z</time>
      </trkpt>
      <trkpt lat="44.13861" lon="5.00772">
        <ele>193</ele>
        <time>2020-10-25T10:22:47Z</time>
      </trkpt>
      <trkpt lat="44.13859" lon="5.00772">
        <ele>193</ele>
        <time>2020-10-25T10:22:48Z</time>
      </trkpt>
      <trkpt lat="44.13857" lon="5.00773">
        <ele>193</ele>
        <time>2020-10-25T10:22:49Z</time>
      </trkpt>
      <trkpt lat="44.13855" lon="5.00774">
        <ele>193</ele>
        <time>2020-10-25T10:22:50Z</time>
      </trkpt>
      <trkpt lat="44.1384" lon="5.00785">
        <ele>193</ele>
        <time>2020-10-25T10:22:57Z</time>
      </trkpt>
      <trkpt lat="44.13817" lon="5.00806">
        <ele>192</ele>
        <time>2020-10-25T10:23:07Z</time>
      </trkpt>
      <trkpt lat="44.13815" lon="5.00808">
        <ele>192</ele>
        <time>2020-10-25T10:23:08Z</time>
      </trkpt>
      <trkpt lat="44.13812" lon="5.0081">
        <ele>192</ele>
        <time>2020-10-25T10:23:09Z</time>
      </trkpt>
      <trkpt lat="44.1381" lon="5.00811">
        <ele>192</ele>
        <time>2020-10-25T10:23:10Z</time>
      </trkpt>
      <trkpt lat="44.13808" lon="5.00812">
        <ele>192</ele>
        <time>2020-10-25T10:23:11Z</time>
      </trkpt>
      <trkpt lat="44.13806" lon="5.00813">
        <ele>192</ele>
        <time>2020-10-25T10:23:12Z</time>
      </trkpt>
      <trkpt lat="44.13803" lon="5.00814">
        <ele>192</ele>
        <time>2020-10-25T10:23:13Z</time>
      </trkpt>
      <trkpt lat="44.13773" lon="5.0082">
        <ele>188</ele>
        <time>2020-10-25T10:23:24Z</time>
      </trkpt>
      <trkpt lat="44.13753" lon="5.00813">
        <ele>186</ele>
        <time>2020-10-25T10:23:33Z</time>
      </trkpt>
      <trkpt lat="44.13738" lon="5.00788">
        <ele>185</ele>
        <time>2020-10-25T10:23:43Z</time>
      </trkpt>
      <trkpt lat="44.1373" lon="5.00772">
        <ele>184</ele>
        <time>2020-10-25T10:23:49Z</time>
      </trkpt>
      <trkpt lat="44.13728" lon="5.00768">
        <ele>184</ele>
        <time>2020-10-25T10:23:50Z</time>
      </trkpt>
      <trkpt lat="44.13726" lon="5.00766">
        <ele>184</ele>
        <time>2020-10-25T10:23:51Z</time>
      </trkpt>
      <trkpt lat="44.13713" lon="5.0074">
        <ele>182</ele>
        <time>2020-10-25T10:24:00Z</time>
      </trkpt>
      <trkpt lat="44.137" lon="5.00726">
        <ele>181</ele>
        <time>2020-10-25T10:24:09Z</time>
      </trkpt>
      <trkpt lat="44.13668" lon="5.00733">
        <ele>180</ele>
        <time>2020-10-25T10:24:21Z</time>
      </trkpt>
      <trkpt lat="44.13662" lon="5.00737">
        <ele>180</ele>
        <time>2020-10-25T10:24:25Z</time>
      </trkpt>
      <trkpt lat="44.13655" lon="5.00738">
        <ele>180</ele>
        <time>2020-10-25T10:24:29Z</time>
      </trkpt>
      <trkpt lat="44.13654" lon="5.00736">
        <ele>180</ele>
        <time>2020-10-25T10:24:30Z</time>
      </trkpt>
      <trkpt lat="44.13648" lon="5.00727">
        <ele>180</ele>
        <time>2020-10-25T10:24:34Z</time>
      </trkpt>
      <trkpt lat="44.13646" lon="5.00725">
        <ele>180</ele>
        <time>2020-10-25T10:24:35Z</time>
      </trkpt>
      <trkpt lat="44.13644" lon="5.00725">
        <ele>180</ele>
        <time>2020-10-25T10:24:36Z</time>
      </trkpt>
      <trkpt lat="44.13641" lon="5.00724">
        <ele>180</ele>
        <time>2020-10-25T10:24:37Z</time>
      </trkpt>
      <trkpt lat="44.13639" lon="5.00723">
        <ele>180</ele>
        <time>2020-10-25T10:24:38Z</time>
      </trkpt>
      <trkpt lat="44.13635" lon="5.0072">
        <ele>180</ele>
        <time>2020-10-25T10:24:43Z</time>
      </trkpt>
      <trkpt lat="44.13633" lon="5.0072">
        <ele>180</ele>
        <time>2020-10-25T10:24:44Z</time>
      </trkpt>
      <trkpt lat="44.13631" lon="5.00721">
        <ele>180</ele>
        <time>2020-10-25T10:24:45Z</time>
      </trkpt>
      <trkpt lat="44.13629" lon="5.00722">
        <ele>180</ele>
        <time>2020-10-25T10:24:46Z</time>
      </trkpt>
      <trkpt lat="44.13627" lon="5.00723">
        <ele>180</ele>
        <time>2020-10-25T10:24:47Z</time>
      </trkpt>
      <trkpt lat="44.13626" lon="5.00724">
        <ele>180</ele>
        <time>2020-10-25T10:24:48Z</time>
      </trkpt>
      <trkpt lat="44.13624" lon="5.00724">
        <ele>180</ele>
        <time>2020-10-25T10:24:49Z</time>
      </trkpt>
      <trkpt lat="44.13622" lon="5.00724">
        <ele>180</ele>
        <time>2020-10-25T10:24:50Z</time>
      </trkpt>
      <trkpt lat="44.13621" lon="5.00721">
        <ele>180</ele>
        <time>2020-10-25T10:24:51Z</time>
      </trkpt>
      <trkpt lat="44.1362" lon="5.00718">
        <ele>180</ele>
        <time>2020-10-25T10:24:52Z</time>
      </trkpt>
      <trkpt lat="44.1362" lon="5.00715">
        <ele>180</ele>
        <time>2020-10-25T10:24:53Z</time>
      </trkpt>
      <trkpt lat="44.1362" lon="5.00712">
        <ele>180</ele>
        <time>2020-10-25T10:24:54Z</time>
      </trkpt>
      <trkpt lat="44.13619" lon="5.00709">
        <ele>180</ele>
        <time>2020-10-25T10:24:55Z</time>
      </trkpt>
      <trkpt lat="44.13618" lon="5.00673">
        <ele>179</ele>
        <time>2020-10-25T10:25:05Z</time>
      </trkpt>
      <trkpt lat="44.1362" lon="5.00636">
        <ele>178</ele>
        <time>2020-10-25T10:25:16Z</time>
      </trkpt>
      <trkpt lat="44.1362" lon="5.00617">
        <ele>179</ele>
        <time>2020-10-25T10:25:21Z</time>
      </trkpt>
      <trkpt lat="44.13618" lon="5.00614">
        <ele>179</ele>
        <time>2020-10-25T10:25:22Z</time>
      </trkpt>
      <trkpt lat="44.13608" lon="5.00583">
        <ele>180</ele>
        <time>2020-10-25T10:25:31Z</time>
      </trkpt>
      <trkpt lat="44.13601" lon="5.00564">
        <ele>176</ele>
        <time>2020-10-25T10:25:37Z</time>
      </trkpt>
      <trkpt lat="44.13591" lon="5.00535">
        <ele>166</ele>
        <time>2020-10-25T10:25:45Z</time>
      </trkpt>
      <trkpt lat="44.13585" lon="5.00507">
        <ele>159</ele>
        <time>2020-10-25T10:25:53Z</time>
      </trkpt>
      <trkpt lat="44.13584" lon="5.00501">
        <ele>157</ele>
        <time>2020-10-25T10:25:55Z</time>
      </trkpt>
      <trkpt lat="44.13576" lon="5.00474">
        <ele>153</ele>
        <time>2020-10-25T10:26:04Z</time>
      </trkpt>
      <trkpt lat="44.13567" lon="5.0044">
        <ele>146</ele>
        <time>2020-10-25T10:26:14Z</time>
      </trkpt>
      <trkpt lat="44.1357" lon="5.00399">
        <ele>141</ele>
        <time>2020-10-25T10:26:26Z</time>
      </trkpt>
      <trkpt lat="44.13581" lon="5.00379">
        <ele>146</ele>
        <time>2020-10-25T10:26:34Z</time>
      </trkpt>
      <trkpt lat="44.13598" lon="5.00375">
        <ele>151</ele>
        <time>2020-10-25T10:26:43Z</time>
      </trkpt>
      <trkpt lat="44.13622" lon="5.0038">
        <ele>155</ele>
        <time>2020-10-25T10:26:54Z</time>
      </trkpt>
      <trkpt lat="44.13651" lon="5.00394">
        <ele>156</ele>
        <time>2020-10-25T10:27:08Z</time>
      </trkpt>
      <trkpt lat="44.13675" lon="5.00392">
        <ele>158</ele>
        <time>2020-10-25T10:27:19Z</time>
      </trkpt>
      <trkpt lat="44.13698" lon="5.00377">
        <ele>159</ele>
        <time>2020-10-25T10:27:30Z</time>
      </trkpt>
      <trkpt lat="44.13715" lon="5.00351">
        <ele>158</ele>
        <time>2020-10-25T10:27:40Z</time>
      </trkpt>
      <trkpt lat="44.13722" lon="5.00323">
        <ele>156</ele>
        <time>2020-10-25T10:27:49Z</time>
      </trkpt>
      <trkpt lat="44.13722" lon="5.00319">
        <ele>156</ele>
        <time>2020-10-25T10:27:50Z</time>
      </trkpt>
      <trkpt lat="44.13724" lon="5.00284">
        <ele>155</ele>
        <time>2020-10-25T10:27:59Z</time>
      </trkpt>
      <trkpt lat="44.13729" lon="5.00246">
        <ele>155</ele>
        <time>2020-10-25T10:28:09Z</time>
      </trkpt>
      <trkpt lat="44.13732" lon="5.0021">
        <ele>154</ele>
        <time>2020-10-25T10:28:19Z</time>
      </trkpt>
      <trkpt lat="44.13739" lon="5.00172">
        <ele>153</ele>
        <time>2020-10-25T10:28:29Z</time>
      </trkpt>
      <trkpt lat="44.13745" lon="5.00134">
        <ele>152</ele>
        <time>2020-10-25T10:28:39Z</time>
      </trkpt>
      <trkpt lat="44.13751" lon="5.00096">
        <ele>151</ele>
        <time>2020-10-25T10:28:49Z</time>
      </trkpt>
      <trkpt lat="44.13757" lon="5.00063">
        <ele>148</ele>
        <time>2020-10-25T10:28:58Z</time>
      </trkpt>
      <trkpt lat="44.13763" lon="5.00034">
        <ele>147</ele>
        <time>2020-10-25T10:29:06Z</time>
      </trkpt>
      <trkpt lat="44.13766" lon="5.00002">
        <ele>145</ele>
        <time>2020-10-25T10:29:15Z</time>
      </trkpt>
      <trkpt lat="44.13771" lon="4.99955">
        <ele>142</ele>
        <time>2020-10-25T10:29:28Z</time>
      </trkpt>
      <trkpt lat="44.13781" lon="4.99918">
        <ele>141</ele>
        <time>2020-10-25T10:29:38Z</time>
      </trkpt>
      <trkpt lat="44.1379" lon="4.99884">
        <ele>140</ele>
        <time>2020-10-25T10:29:48Z</time>
      </trkpt>
      <trkpt lat="44.13801" lon="4.99845">
        <ele>138</ele>
        <time>2020-10-25T10:30:00Z</time>
      </trkpt>
      <trkpt lat="44.13802" lon="4.99841">
        <ele>138</ele>
        <time>2020-10-25T10:30:01Z</time>
      </trkpt>
      <trkpt lat="44.13801" lon="4.99838">
        <ele>138</ele>
        <time>2020-10-25T10:30:02Z</time>
      </trkpt>
      <trkpt lat="44.13801" lon="4.99835">
        <ele>138</ele>
        <time>2020-10-25T10:30:03Z</time>
      </trkpt>
      <trkpt lat="44.13798" lon="4.99834">
        <ele>137</ele>
        <time>2020-10-25T10:30:04Z</time>
      </trkpt>
      <trkpt lat="44.13796" lon="4.99833">
        <ele>137</ele>
        <time>2020-10-25T10:30:05Z</time>
      </trkpt>
      <trkpt lat="44.13794" lon="4.99834">
        <ele>137</ele>
        <time>2020-10-25T10:30:06Z</time>
      </trkpt>
      <trkpt lat="44.13792" lon="4.99834">
        <ele>137</ele>
        <time>2020-10-25T10:30:07Z</time>
      </trkpt>
      <trkpt lat="44.1379" lon="4.99836">
        <ele>137</ele>
        <time>2020-10-25T10:30:08Z</time>
      </trkpt>
      <trkpt lat="44.13788" lon="4.99838">
        <ele>137</ele>
        <time>2020-10-25T10:30:09Z</time>
      </trkpt>
      <trkpt lat="44.13786" lon="4.99839">
        <ele>137</ele>
        <time>2020-10-25T10:30:10Z</time>
      </trkpt>
      <trkpt lat="44.13784" lon="4.9984">
        <ele>137</ele>
        <time>2020-10-25T10:30:11Z</time>
      </trkpt>
      <trkpt lat="44.13782" lon="4.99841">
        <ele>137</ele>
        <time>2020-10-25T10:30:12Z</time>
      </trkpt>
      <trkpt lat="44.1378" lon="4.99843">
        <ele>137</ele>
        <time>2020-10-25T10:30:13Z</time>
      </trkpt>
      <trkpt lat="44.13761" lon="4.99862">
        <ele>136</ele>
        <time>2020-10-25T10:30:22Z</time>
      </trkpt>
      <trkpt lat="44.13739" lon="4.9988">
        <ele>136</ele>
        <time>2020-10-25T10:30:32Z</time>
      </trkpt>
      <trkpt lat="44.1372" lon="4.99895">
        <ele>136</ele>
        <time>2020-10-25T10:30:41Z</time>
      </trkpt>
      <trkpt lat="44.13695" lon="4.99915">
        <ele>136</ele>
        <time>2020-10-25T10:30:51Z</time>
      </trkpt>
      <trkpt lat="44.13673" lon="4.99937">
        <ele>136</ele>
        <time>2020-10-25T10:31:01Z</time>
      </trkpt>
      <trkpt lat="44.1365" lon="4.99958">
        <ele>137</ele>
        <time>2020-10-25T10:31:11Z</time>
      </trkpt>
      <trkpt lat="44.13629" lon="4.99969">
        <ele>137</ele>
        <time>2020-10-25T10:31:19Z</time>
      </trkpt>
      <trkpt lat="44.13623" lon="4.99962">
        <ele>137</ele>
        <time>2020-10-25T10:31:22Z</time>
      </trkpt>
      <trkpt lat="44.13621" lon="4.99959">
        <ele>137</ele>
        <time>2020-10-25T10:31:23Z</time>
      </trkpt>
      <trkpt lat="44.1362" lon="4.99956">
        <ele>136</ele>
        <time>2020-10-25T10:31:24Z</time>
      </trkpt>
      <trkpt lat="44.13618" lon="4.99953">
        <ele>136</ele>
        <time>2020-10-25T10:31:25Z</time>
      </trkpt>
      <trkpt lat="44.13616" lon="4.9995">
        <ele>136</ele>
        <time>2020-10-25T10:31:26Z</time>
      </trkpt>
      <trkpt lat="44.13615" lon="4.99947">
        <ele>136</ele>
        <time>2020-10-25T10:31:27Z</time>
      </trkpt>
      <trkpt lat="44.13614" lon="4.99944">
        <ele>135</ele>
        <time>2020-10-25T10:31:28Z</time>
      </trkpt>
      <trkpt lat="44.13612" lon="4.99941">
        <ele>135</ele>
        <time>2020-10-25T10:31:29Z</time>
      </trkpt>
      <trkpt lat="44.13611" lon="4.99938">
        <ele>135</ele>
        <time>2020-10-25T10:31:30Z</time>
      </trkpt>
      <trkpt lat="44.1361" lon="4.99935">
        <ele>135</ele>
        <time>2020-10-25T10:31:31Z</time>
      </trkpt>
      <trkpt lat="44.13608" lon="4.99931">
        <ele>134</ele>
        <time>2020-10-25T10:31:32Z</time>
      </trkpt>
      <trkpt lat="44.13597" lon="4.999">
        <ele>134</ele>
        <time>2020-10-25T10:31:41Z</time>
      </trkpt>
      <trkpt lat="44.13586" lon="4.99873">
        <ele>137</ele>
        <time>2020-10-25T10:31:49Z</time>
      </trkpt>
      <trkpt lat="44.13573" lon="4.99843">
        <ele>142</ele>
        <time>2020-10-25T10:31:58Z</time>
      </trkpt>
      <trkpt lat="44.13572" lon="4.99829">
        <ele>143</ele>
        <time>2020-10-25T10:32:02Z</time>
      </trkpt>
      <trkpt lat="44.13573" lon="4.99826">
        <ele>143</ele>
        <time>2020-10-25T10:32:03Z</time>
      </trkpt>
      <trkpt lat="44.13574" lon="4.99822">
        <ele>143</ele>
        <time>2020-10-25T10:32:04Z</time>
      </trkpt>
      <trkpt lat="44.13591" lon="4.99792">
        <ele>141</ele>
        <time>2020-10-25T10:32:14Z</time>
      </trkpt>
      <trkpt lat="44.13604" lon="4.99763">
        <ele>140</ele>
        <time>2020-10-25T10:32:23Z</time>
      </trkpt>
      <trkpt lat="44.13618" lon="4.99729">
        <ele>137</ele>
        <time>2020-10-25T10:32:33Z</time>
      </trkpt>
      <trkpt lat="44.13622" lon="4.99692">
        <ele>135</ele>
        <time>2020-10-25T10:32:43Z</time>
      </trkpt>
      <trkpt lat="44.13619" lon="4.99655">
        <ele>133</ele>
        <time>2020-10-25T10:32:52Z</time>
      </trkpt>
      <trkpt lat="44.13613" lon="4.99627">
        <ele>131</ele>
        <time>2020-10-25T10:33:00Z</time>
      </trkpt>
      <trkpt lat="44.13604" lon="4.99594">
        <ele>127</ele>
        <time>2020-10-25T10:33:09Z</time>
      </trkpt>
      <trkpt lat="44.13601" lon="4.99579">
        <ele>126</ele>
        <time>2020-10-25T10:33:13Z</time>
      </trkpt>
      <trkpt lat="44.13599" lon="4.99575">
        <ele>126</ele>
        <time>2020-10-25T10:33:14Z</time>
      </trkpt>
      <trkpt lat="44.13597" lon="4.99573">
        <ele>126</ele>
        <time>2020-10-25T10:33:15Z</time>
      </trkpt>
      <trkpt lat="44.13595" lon="4.9957">
        <ele>125</ele>
        <time>2020-10-25T10:33:16Z</time>
      </trkpt>
      <trkpt lat="44.13593" lon="4.99568">
        <ele>125</ele>
        <time>2020-10-25T10:33:17Z</time>
      </trkpt>
      <trkpt lat="44.1359" lon="4.99567">
        <ele>125</ele>
        <time>2020-10-25T10:33:18Z</time>
      </trkpt>
      <trkpt lat="44.13588" lon="4.99566">
        <ele>125</ele>
        <time>2020-10-25T10:33:19Z</time>
      </trkpt>
      <trkpt lat="44.13585" lon="4.99566">
        <ele>124</ele>
        <time>2020-10-25T10:33:20Z</time>
      </trkpt>
      <trkpt lat="44.13581" lon="4.99566">
        <ele>124</ele>
        <time>2020-10-25T10:33:21Z</time>
      </trkpt>
      <trkpt lat="44.13559" lon="4.99571">
        <ele>125</ele>
        <time>2020-10-25T10:33:30Z</time>
      </trkpt>
      <trkpt lat="44.13535" lon="4.99573">
        <ele>125</ele>
        <time>2020-10-25T10:33:39Z</time>
      </trkpt>
      <trkpt lat="44.13509" lon="4.99562">
        <ele>124</ele>
        <time>2020-10-25T10:33:49Z</time>
      </trkpt>
      <trkpt lat="44.13486" lon="4.99558">
        <ele>123</ele>
        <time>2020-10-25T10:33:59Z</time>
      </trkpt>
      <trkpt lat="44.1346" lon="4.99547">
        <ele>122</ele>
        <time>2020-10-25T10:34:08Z</time>
      </trkpt>
      <trkpt lat="44.13435" lon="4.9953">
        <ele>119</ele>
        <time>2020-10-25T10:34:18Z</time>
      </trkpt>
      <trkpt lat="44.13412" lon="4.99499">
        <ele>116</ele>
        <time>2020-10-25T10:34:29Z</time>
      </trkpt>
      <trkpt lat="44.13405" lon="4.99487">
        <ele>116</ele>
        <time>2020-10-25T10:34:33Z</time>
      </trkpt>
      <trkpt lat="44.13403" lon="4.99485">
        <ele>116</ele>
        <time>2020-10-25T10:34:34Z</time>
      </trkpt>
      <trkpt lat="44.13399" lon="4.99483">
        <ele>116</ele>
        <time>2020-10-25T10:34:36Z</time>
      </trkpt>
      <trkpt lat="44.13391" lon="4.99478">
        <ele>115</ele>
        <time>2020-10-25T10:34:40Z</time>
      </trkpt>
      <trkpt lat="44.13391" lon="4.99473">
        <ele>115</ele>
        <time>2020-10-25T10:34:42Z</time>
      </trkpt>
      <trkpt lat="44.13392" lon="4.99466">
        <ele>115</ele>
        <time>2020-10-25T10:34:44Z</time>
      </trkpt>
      <trkpt lat="44.13397" lon="4.99441">
        <ele>114</ele>
        <time>2020-10-25T10:34:52Z</time>
      </trkpt>
      <trkpt lat="44.13387" lon="4.99415">
        <ele>112</ele>
        <time>2020-10-25T10:35:00Z</time>
      </trkpt>
      <trkpt lat="44.13388" lon="4.99413">
        <ele>112</ele>
        <time>2020-10-25T10:35:01Z</time>
      </trkpt>
      <trkpt lat="44.13395" lon="4.99408">
        <ele>112</ele>
        <time>2020-10-25T10:35:04Z</time>
      </trkpt>
      <trkpt lat="44.13416" lon="4.9939">
        <ele>112</ele>
        <time>2020-10-25T10:35:14Z</time>
      </trkpt>
      <trkpt lat="44.13418" lon="4.99388">
        <ele>112</ele>
        <time>2020-10-25T10:35:15Z</time>
      </trkpt>
      <trkpt lat="44.13424" lon="4.99384">
        <ele>113</ele>
        <time>2020-10-25T10:35:18Z</time>
      </trkpt>
      <trkpt lat="44.13431" lon="4.99379">
        <ele>113</ele>
        <time>2020-10-25T10:35:21Z</time>
      </trkpt>
      <trkpt lat="44.13437" lon="4.99375">
        <ele>113</ele>
        <time>2020-10-25T10:35:24Z</time>
      </trkpt>
      <trkpt lat="44.13439" lon="4.99373">
        <ele>113</ele>
        <time>2020-10-25T10:35:25Z</time>
      </trkpt>
      <trkpt lat="44.13444" lon="4.99371">
        <ele>114</ele>
        <time>2020-10-25T10:35:27Z</time>
      </trkpt>
      <trkpt lat="44.13467" lon="4.99362">
        <ele>116</ele>
        <time>2020-10-25T10:35:36Z</time>
      </trkpt>
      <trkpt lat="44.13478" lon="4.9936">
        <ele>117</ele>
        <time>2020-10-25T10:35:41Z</time>
      </trkpt>
      <trkpt lat="44.13486" lon="4.99352">
        <ele>118</ele>
        <time>2020-10-25T10:35:46Z</time>
      </trkpt>
      <trkpt lat="44.13487" lon="4.99349">
        <ele>118</ele>
        <time>2020-10-25T10:35:47Z</time>
      </trkpt>
      <trkpt lat="44.13487" lon="4.99346">
        <ele>118</ele>
        <time>2020-10-25T10:35:48Z</time>
      </trkpt>
      <trkpt lat="44.13487" lon="4.99343">
        <ele>118</ele>
        <time>2020-10-25T10:35:49Z</time>
      </trkpt>
      <trkpt lat="44.13486" lon="4.9934">
        <ele>117</ele>
        <time>2020-10-25T10:35:50Z</time>
      </trkpt>
      <trkpt lat="44.13485" lon="4.99337">
        <ele>117</ele>
        <time>2020-10-25T10:35:51Z</time>
      </trkpt>
      <trkpt lat="44.13484" lon="4.99334">
        <ele>117</ele>
        <time>2020-10-25T10:35:52Z</time>
      </trkpt>
      <trkpt lat="44.13483" lon="4.9933">
        <ele>116</ele>
        <time>2020-10-25T10:35:53Z</time>
      </trkpt>
      <trkpt lat="44.1349" lon="4.99307">
        <ele>116</ele>
        <time>2020-10-25T10:36:01Z</time>
      </trkpt>
      <trkpt lat="44.13512" lon="4.99292">
        <ele>118</ele>
        <time>2020-10-25T10:36:11Z</time>
      </trkpt>
      <trkpt lat="44.13529" lon="4.99275">
        <ele>119</ele>
        <time>2020-10-25T10:36:19Z</time>
      </trkpt>
      <trkpt lat="44.13547" lon="4.99261">
        <ele>120</ele>
        <time>2020-10-25T10:36:28Z</time>
      </trkpt>
      <trkpt lat="44.13564" lon="4.99244">
        <ele>121</ele>
        <time>2020-10-25T10:36:36Z</time>
      </trkpt>
      <trkpt lat="44.13581" lon="4.9922">
        <ele>121</ele>
        <time>2020-10-25T10:36:44Z</time>
      </trkpt>
      <trkpt lat="44.13599" lon="4.99197">
        <ele>121</ele>
        <time>2020-10-25T10:36:54Z</time>
      </trkpt>
      <trkpt lat="44.13608" lon="4.99188">
        <ele>121</ele>
        <time>2020-10-25T10:37:03Z</time>
      </trkpt>
      <trkpt lat="44.13614" lon="4.99184">
        <ele>121</ele>
        <time>2020-10-25T10:37:47Z</time>
      </trkpt>
      <trkpt lat="44.13617" lon="4.99182">
        <ele>121</ele>
        <time>2020-10-25T10:37:50Z</time>
      </trkpt>
      <trkpt lat="44.13633" lon="4.9917">
        <ele>122</ele>
        <time>2020-10-25T10:37:58Z</time>
      </trkpt>
      <trkpt lat="44.13649" lon="4.99151">
        <ele>122</ele>
        <time>2020-10-25T10:38:07Z</time>
      </trkpt>
      <trkpt lat="44.13666" lon="4.99138">
        <ele>123</ele>
        <time>2020-10-25T10:38:16Z</time>
      </trkpt>
      <trkpt lat="44.13678" lon="4.99125">
        <ele>123</ele>
        <time>2020-10-25T10:38:22Z</time>
      </trkpt>
      <trkpt lat="44.13686" lon="4.99119">
        <ele>124</ele>
        <time>2020-10-25T10:38:26Z</time>
      </trkpt>
      <trkpt lat="44.13688" lon="4.99118">
        <ele>124</ele>
        <time>2020-10-25T10:38:27Z</time>
      </trkpt>
      <trkpt lat="44.13695" lon="4.99111">
        <ele>124</ele>
        <time>2020-10-25T10:38:36Z</time>
      </trkpt>
      <trkpt lat="44.13703" lon="4.99105">
        <ele>124</ele>
        <time>2020-10-25T10:38:54Z</time>
      </trkpt>
      <trkpt lat="44.13704" lon="4.99104">
        <ele>124</ele>
        <time>2020-10-25T10:38:55Z</time>
      </trkpt>
      <trkpt lat="44.13707" lon="4.99102">
        <ele>124</ele>
        <time>2020-10-25T10:38:57Z</time>
      </trkpt>
      <trkpt lat="44.13716" lon="4.99095">
        <ele>125</ele>
        <time>2020-10-25T10:39:06Z</time>
      </trkpt>
      <trkpt lat="44.13729" lon="4.99082">
        <ele>125</ele>
        <time>2020-10-25T10:39:16Z</time>
      </trkpt>
      <trkpt lat="44.1374" lon="4.99074">
        <ele>125</ele>
        <time>2020-10-25T10:39:24Z</time>
      </trkpt>
      <trkpt lat="44.13755" lon="4.99057">
        <ele>126</ele>
        <time>2020-10-25T10:39:36Z</time>
      </trkpt>
      <trkpt lat="44.1377" lon="4.99046">
        <ele>127</ele>
        <time>2020-10-25T10:39:43Z</time>
      </trkpt>
      <trkpt lat="44.13772" lon="4.99044">
        <ele>127</ele>
        <time>2020-10-25T10:39:44Z</time>
      </trkpt>
      <trkpt lat="44.13793" lon="4.99028">
        <ele>127</ele>
        <time>2020-10-25T10:39:54Z</time>
      </trkpt>
      <trkpt lat="44.13812" lon="4.99011">
        <ele>128</ele>
        <time>2020-10-25T10:40:04Z</time>
      </trkpt>
      <trkpt lat="44.13834" lon="4.98994">
        <ele>128</ele>
        <time>2020-10-25T10:40:14Z</time>
      </trkpt>
      <trkpt lat="44.13852" lon="4.98971">
        <ele>127</ele>
        <time>2020-10-25T10:40:23Z</time>
      </trkpt>
      <trkpt lat="44.13859" lon="4.98962">
        <ele>127</ele>
        <time>2020-10-25T10:40:27Z</time>
      </trkpt>
      <trkpt lat="44.13865" lon="4.98956">
        <ele>127</ele>
        <time>2020-10-25T10:40:30Z</time>
      </trkpt>
      <trkpt lat="44.13868" lon="4.98956">
        <ele>127</ele>
        <time>2020-10-25T10:40:31Z</time>
      </trkpt>
      <trkpt lat="44.1387" lon="4.98956">
        <ele>127</ele>
        <time>2020-10-25T10:40:32Z</time>
      </trkpt>
      <trkpt lat="44.13872" lon="4.98957">
        <ele>127</ele>
        <time>2020-10-25T10:40:33Z</time>
      </trkpt>
      <trkpt lat="44.13874" lon="4.98958">
        <ele>127</ele>
        <time>2020-10-25T10:40:34Z</time>
      </trkpt>
      <trkpt lat="44.13878" lon="4.9896">
        <ele>127</ele>
        <time>2020-10-25T10:40:36Z</time>
      </trkpt>
      <trkpt lat="44.13882" lon="4.98961">
        <ele>127</ele>
        <time>2020-10-25T10:40:38Z</time>
      </trkpt>
      <trkpt lat="44.13884" lon="4.98961">
        <ele>127</ele>
        <time>2020-10-25T10:40:39Z</time>
      </trkpt>
      <trkpt lat="44.13886" lon="4.9896">
        <ele>127</ele>
        <time>2020-10-25T10:40:40Z</time>
      </trkpt>
      <trkpt lat="44.13887" lon="4.98959">
        <ele>127</ele>
        <time>2020-10-25T10:40:41Z</time>
      </trkpt>
      <trkpt lat="44.13889" lon="4.98957">
        <ele>127</ele>
        <time>2020-10-25T10:40:42Z</time>
      </trkpt>
      <trkpt lat="44.13891" lon="4.98954">
        <ele>127</ele>
        <time>2020-10-25T10:40:43Z</time>
      </trkpt>
      <trkpt lat="44.13892" lon="4.98952">
        <ele>127</ele>
        <time>2020-10-25T10:40:44Z</time>
      </trkpt>
      <trkpt lat="44.13894" lon="4.98949">
        <ele>127</ele>
        <time>2020-10-25T10:40:45Z</time>
      </trkpt>
      <trkpt lat="44.13896" lon="4.98946">
        <ele>127</ele>
        <time>2020-10-25T10:40:46Z</time>
      </trkpt>
      <trkpt lat="44.13905" lon="4.98911">
        <ele>126</ele>
        <time>2020-10-25T10:40:56Z</time>
      </trkpt>
      <trkpt lat="44.13892" lon="4.98883">
        <ele>125</ele>
        <time>2020-10-25T10:41:05Z</time>
      </trkpt>
      <trkpt lat="44.1388" lon="4.98855">
        <ele>124</ele>
        <time>2020-10-25T10:41:14Z</time>
      </trkpt>
      <trkpt lat="44.13867" lon="4.98832">
        <ele>124</ele>
        <time>2020-10-25T10:41:22Z</time>
      </trkpt>
      <trkpt lat="44.13853" lon="4.98808">
        <ele>123</ele>
        <time>2020-10-25T10:41:31Z</time>
      </trkpt>
      <trkpt lat="44.13845" lon="4.98791">
        <ele>123</ele>
        <time>2020-10-25T10:41:41Z</time>
      </trkpt>
      <trkpt lat="44.13838" lon="4.98771">
        <ele>124</ele>
        <time>2020-10-25T10:41:53Z</time>
      </trkpt>
      <trkpt lat="44.13833" lon="4.9875">
        <ele>124</ele>
        <time>2020-10-25T10:42:06Z</time>
      </trkpt>
      <trkpt lat="44.13831" lon="4.98733">
        <ele>124</ele>
        <time>2020-10-25T10:42:19Z</time>
      </trkpt>
    </trkseg>
  </trk>
</gpx>